Wetterdaten: Freitag, 05.07.2019
Datum Zeit Temp. A. Pool Temp. Temp. 5cm Feuchte A. Luftdruck Regen Wind Richtung Richtung Sonnenschein ET UV Solar Taupunkt Windchill Windben Empfang
05.07.2019 00:00 17,4 C 26,1 C 16,7 C 70 % 1016,2 hPa 0,0 l/m 5,5 km/h (1 Bft) S-SW 198 0 min 0,000 mm 0,0 UV-I 0 W/m 11,9 C 17,4 C 6,4 km/h (2 Bft) 95,83 %
05.07.2019 00:02 17,4 C 26,1 C 16,7 C 70 % 1016,2 hPa 0,0 l/m 5,7 km/h (1 Bft) S-SW 198 0 min 0,000 mm 0,0 UV-I 0 W/m 11,9 C 17,4 C 9,7 km/h (2 Bft) 92,86 %
05.07.2019 00:04 17,4 C 26,1 C 16,7 C 70 % 1016,1 hPa 0,0 l/m 5,3 km/h (1 Bft) S-SW 192 0 min 0,000 mm 0,0 UV-I 0 W/m 11,9 C 17,4 C 8,0 km/h (2 Bft) 95,74 %
05.07.2019 00:06 17,4 C 26,1 C 16,7 C 70 % 1016,2 hPa 0,0 l/m 6,0 km/h (2 Bft) S 188 0 min 0,000 mm 0,0 UV-I 0 W/m 11,9 C 17,4 C 8,0 km/h (2 Bft) 98,00 %
05.07.2019 00:08 17,3 C 26,1 C 16,7 C 70 % 1016,1 hPa 0,0 l/m 6,1 km/h (2 Bft) S 188 0 min 0,000 mm 0,0 UV-I 0 W/m 11,8 C 17,3 C 8,0 km/h (2 Bft) 95,74 %
05.07.2019 00:10 17,3 C 26,1 C 16,7 C 71 % 1016,2 hPa 0,0 l/m 5,8 km/h (2 Bft) S-SW 196 0 min 0,000 mm 0,0 UV-I 0 W/m 12,0 C 17,3 C 8,0 km/h (2 Bft) 100,00 %
05.07.2019 00:12 17,3 C 26,1 C 16,7 C 71 % 1016,2 hPa 0,0 l/m 5,4 km/h (1 Bft) S-SW 194 0 min 0,000 mm 0,0 UV-I 0 W/m 12,0 C 17,3 C 8,0 km/h (2 Bft) 100,00 %
05.07.2019 00:14 17,3 C 26,1 C 16,7 C 71 % 1016,2 hPa 0,0 l/m 4,7 km/h (1 Bft) S-SW 192 0 min 0,000 mm 0,0 UV-I 0 W/m 12,0 C 17,3 C 6,4 km/h (2 Bft) 97,37 %
05.07.2019 00:16 17,3 C 26,1 C 16,1 C 71 % 1016,2 hPa 0,0 l/m 3,6 km/h (1 Bft) S-SW 194 0 min 0,000 mm 0,0 UV-I 0 W/m 12,0 C 17,3 C 4,8 km/h (1 Bft) 97,87 %
05.07.2019 00:18 17,2 C 26,1 C 16,1 C 71 % 1016,2 hPa 0,0 l/m 5,0 km/h (1 Bft) S-SW 202 0 min 0,000 mm 0,0 UV-I 0 W/m 11,9 C 17,2 C 6,4 km/h (2 Bft) 100,00 %
05.07.2019 00:20 17,1 C 26,1 C 16,1 C 71 % 1016,1 hPa 0,0 l/m 4,3 km/h (1 Bft) S-SW 205 0 min 0,000 mm 0,0 UV-I 0 W/m 11,8 C 17,1 C 6,4 km/h (2 Bft) 97,87 %
05.07.2019 00:22 17,1 C 26,1 C 16,1 C 71 % 1016,1 hPa 0,0 l/m 5,0 km/h (1 Bft) S 185 0 min 0,000 mm 0,0 UV-I 0 W/m 11,8 C 17,1 C 8,0 km/h (2 Bft) 100,00 %
05.07.2019 00:24 17,0 C 26,1 C 16,1 C 72 % 1016,1 hPa 0,0 l/m 5,1 km/h (1 Bft) S-SW 194 0 min 0,000 mm 0,0 UV-I 0 W/m 11,9 C 17,0 C 6,4 km/h (2 Bft) 100,00 %
05.07.2019 00:26 16,9 C 26,1 C 16,1 C 72 % 1016,1 hPa 0,0 l/m 6,0 km/h (2 Bft) S-SW 203 0 min 0,000 mm 0,0 UV-I 0 W/m 11,8 C 16,9 C 8,0 km/h (2 Bft) 95,74 %
05.07.2019 00:28 16,9 C 26,1 C 16,1 C 72 % 1016,1 hPa 0,0 l/m 5,8 km/h (2 Bft) S-SW 200 0 min 0,000 mm 0,0 UV-I 0 W/m 11,8 C 16,9 C 8,0 km/h (2 Bft) 100,00 %
05.07.2019 00:30 16,8 C 26,1 C 16,1 C 72 % 1016,1 hPa 0,0 l/m 6,0 km/h (2 Bft) S-SW 198 0 min 0,000 mm 0,0 UV-I 0 W/m 11,7 C 16,8 C 8,0 km/h (2 Bft) 100,00 %
05.07.2019 00:32 16,8 C 26,1 C 16,1 C 72 % 1016,1 hPa 0,0 l/m 5,5 km/h (1 Bft) S 187 0 min 0,000 mm 0,0 UV-I 0 W/m 11,7 C 16,8 C 6,4 km/h (2 Bft) 100,00 %
05.07.2019 00:34 16,7 C 26,1 C 16,1 C 72 % 1016,1 hPa 0,0 l/m 5,7 km/h (1 Bft) S-SW 205 0 min 0,000 mm 0,0 UV-I 0 W/m 11,6 C 16,7 C 8,0 km/h (2 Bft) 100,00 %
05.07.2019 00:36 16,7 C 26,1 C 16,1 C 72 % 1016,1 hPa 0,0 l/m 5,6 km/h (1 Bft) S-SW 208 0 min 0,000 mm 0,0 UV-I 0 W/m 11,6 C 16,7 C 8,0 km/h (2 Bft) 100,00 %
05.07.2019 00:38 16,7 C 26,1 C 16,1 C 73 % 1016,1 hPa 0,0 l/m 5,8 km/h (2 Bft) S-SW 200 0 min 0,000 mm 0,0 UV-I 0 W/m 11,8 C 16,7 C 8,0 km/h (2 Bft) 95,74 %
05.07.2019 00:40 16,6 C 26,1 C 16,1 C 73 % 1016,1 hPa 0,0 l/m 5,7 km/h (1 Bft) S 190 0 min 0,000 mm 0,0 UV-I 0 W/m 11,7 C 16,6 C 8,0 km/h (2 Bft) 100,00 %
05.07.2019 00:42 16,4 C 26,1 C 15,6 C 74 % 1016,1 hPa 0,0 l/m 5,8 km/h (2 Bft) S-SW 200 0 min 0,000 mm 0,0 UV-I 0 W/m 11,8 C 16,4 C 8,0 km/h (2 Bft) 100,00 %
05.07.2019 00:44 16,3 C 26,1 C 15,6 C 74 % 1016,1 hPa 0,0 l/m 6,7 km/h (2 Bft) S-SW 207 0 min 0,000 mm 0,0 UV-I 0 W/m 11,7 C 16,2 C 9,7 km/h (2 Bft) 97,87 %
05.07.2019 00:46 16,4 C 26,1 C 15,6 C 73 % 1016,1 hPa 0,0 l/m 6,5 km/h (2 Bft) S-SW 213 0 min 0,000 mm 0,0 UV-I 0 W/m 11,5 C 16,4 C 9,7 km/h (2 Bft) 97,87 %
05.07.2019 00:48 16,6 C 26,1 C 15,6 C 72 % 1016,0 hPa 0,0 l/m 7,4 km/h (2 Bft) SW 221 0 min 0,000 mm 0,0 UV-I 0 W/m 11,5 C 16,1 C 9,7 km/h (2 Bft) 100,00 %
05.07.2019 00:50 16,7 C 25,6 C 15,6 C 72 % 1016,0 hPa 0,0 l/m 6,8 km/h (2 Bft) S-SW 208 0 min 0,000 mm 0,0 UV-I 0 W/m 11,6 C 16,5 C 9,7 km/h (2 Bft) 100,00 %
05.07.2019 00:52 16,7 C 26,1 C 15,6 C 71 % 1016,0 hPa 0,0 l/m 8,0 km/h (2 Bft) S-SW 211 0 min 0,000 mm 0,0 UV-I 0 W/m 11,4 C 15,9 C 9,7 km/h (2 Bft) 100,00 %
05.07.2019 00:54 16,8 C 25,6 C 15,6 C 71 % 1016,0 hPa 0,0 l/m 6,6 km/h (2 Bft) S-SW 209 0 min 0,000 mm 0,0 UV-I 0 W/m 11,5 C 16,7 C 9,7 km/h (2 Bft) 97,87 %
05.07.2019 00:56 16,8 C 25,6 C 15,6 C 71 % 1016,0 hPa 0,0 l/m 7,1 km/h (2 Bft) S-SW 211 0 min 0,000 mm 0,0 UV-I 0 W/m 11,5 C 16,4 C 9,7 km/h (2 Bft) 98,00 %
05.07.2019 00:58 16,7 C 25,6 C 15,6 C 71 % 1016,0 hPa 0,0 l/m 6,7 km/h (2 Bft) S-SW 194 0 min 0,000 mm 0,0 UV-I 0 W/m 11,4 C 16,6 C 9,7 km/h (2 Bft) 97,87 %
05.07.2019 01:00 16,7 C 25,6 C 15,6 C 71 % 1016,1 hPa 0,0 l/m 7,5 km/h (2 Bft) S-SW 211 0 min 0,025 mm 0,0 UV-I 0 W/m 11,4 C 16,1 C 9,7 km/h (2 Bft) 98,00 %
05.07.2019 01:02 16,7 C 25,6 C 15,6 C 72 % 1016,1 hPa 0,0 l/m 8,0 km/h (2 Bft) S-SW 197 0 min 0,000 mm 0,0 UV-I 0 W/m 11,6 C 15,9 C 11,3 km/h (2 Bft) 97,44 %
05.07.2019 01:04 16,7 C 25,6 C 15,6 C 71 % 1016,1 hPa 0,0 l/m 7,2 km/h (2 Bft) SW 234 0 min 0,000 mm 0,0 UV-I 0 W/m 11,4 C 16,3 C 9,7 km/h (2 Bft) 95,74 %
05.07.2019 01:06 16,6 C 25,6 C 15,6 C 72 % 1016,1 hPa 0,0 l/m 7,8 km/h (2 Bft) S-SW 205 0 min 0,000 mm 0,0 UV-I 0 W/m 11,5 C 15,9 C 9,7 km/h (2 Bft) 97,87 %
05.07.2019 01:08 16,6 C 25,6 C 15,6 C 71 % 1016,1 hPa 0,0 l/m 7,9 km/h (2 Bft) S-SW 208 0 min 0,000 mm 0,0 UV-I 0 W/m 11,3 C 15,8 C 9,7 km/h (2 Bft) 98,00 %
05.07.2019 01:10 16,6 C 25,6 C 15,6 C 71 % 1016,1 hPa 0,0 l/m 8,4 km/h (2 Bft) S-SW 212 0 min 0,000 mm 0,0 UV-I 0 W/m 11,3 C 15,6 C 9,7 km/h (2 Bft) 95,74 %
05.07.2019 01:12 16,6 C 25,6 C 15,6 C 71 % 1016,1 hPa 0,0 l/m 7,0 km/h (2 Bft) S-SW 209 0 min 0,000 mm 0,0 UV-I 0 W/m 11,3 C 16,3 C 11,3 km/h (2 Bft) 94,44 %
05.07.2019 01:14 16,6 C 25,6 C 15,6 C 71 % 1016,1 hPa 0,0 l/m 7,5 km/h (2 Bft) S-SW 210 0 min 0,000 mm 0,0 UV-I 0 W/m 11,3 C 16,0 C 11,3 km/h (2 Bft) 96,23 %
05.07.2019 01:16 16,6 C 25,6 C 15,6 C 71 % 1016,1 hPa 0,0 l/m 6,8 km/h (2 Bft) S-SW 213 0 min 0,000 mm 0,0 UV-I 0 W/m 11,3 C 16,4 C 9,7 km/h (2 Bft) 94,00 %
05.07.2019 01:18 16,6 C 25,6 C 15,6 C 71 % 1016,1 hPa 0,0 l/m 7,2 km/h (2 Bft) SW 214 0 min 0,000 mm 0,0 UV-I 0 W/m 11,3 C 16,2 C 9,7 km/h (2 Bft) 95,74 %
05.07.2019 01:20 16,6 C 25,6 C 15,6 C 71 % 1016,1 hPa 0,0 l/m 6,9 km/h (2 Bft) S-SW 209 0 min 0,000 mm 0,0 UV-I 0 W/m 11,3 C 16,3 C 8,0 km/h (2 Bft) 95,74 %
05.07.2019 01:22 16,5 C 25,6 C 15,6 C 71 % 1016,1 hPa 0,0 l/m 6,0 km/h (2 Bft) SW 217 0 min 0,000 mm 0,0 UV-I 0 W/m 11,2 C 16,5 C 8,0 km/h (2 Bft) 95,74 %
05.07.2019 01:24 16,5 C 25,6 C 15,6 C 71 % 1016,1 hPa 0,0 l/m 7,0 km/h (2 Bft) S-SW 207 0 min 0,000 mm 0,0 UV-I 0 W/m 11,2 C 16,2 C 9,7 km/h (2 Bft) 95,74 %
05.07.2019 01:26 16,4 C 25,6 C 15,6 C 71 % 1016,1 hPa 0,0 l/m 7,0 km/h (2 Bft) S-SW 198 0 min 0,000 mm 0,0 UV-I 0 W/m 11,1 C 16,1 C 9,7 km/h (2 Bft) 95,74 %
05.07.2019 01:28 16,4 C 25,6 C 15,6 C 71 % 1016,1 hPa 0,0 l/m 5,7 km/h (1 Bft) S-SW 212 0 min 0,000 mm 0,0 UV-I 0 W/m 11,1 C 16,4 C 9,7 km/h (2 Bft) 93,62 %
05.07.2019 01:30 16,4 C 25,6 C 15,6 C 72 % 1016,0 hPa 0,0 l/m 7,1 km/h (2 Bft) S-SW 206 0 min 0,000 mm 0,0 UV-I 0 W/m 11,3 C 16,0 C 11,3 km/h (2 Bft) 96,00 %
05.07.2019 01:32 16,4 C 25,6 C 15,6 C 71 % 1015,9 hPa 0,0 l/m 7,0 km/h (2 Bft) S-SW 197 0 min 0,000 mm 0,0 UV-I 0 W/m 11,1 C 16,1 C 9,7 km/h (2 Bft) 93,62 %
05.07.2019 01:34 16,4 C 25,6 C 15,6 C 71 % 1015,9 hPa 0,0 l/m 7,4 km/h (2 Bft) S-SW 195 0 min 0,000 mm 0,0 UV-I 0 W/m 11,1 C 15,9 C 9,7 km/h (2 Bft) 95,12 %
05.07.2019 01:36 16,5 C 25,6 C 15,6 C 71 % 1015,9 hPa 0,0 l/m 8,2 km/h (2 Bft) S-SW 205 0 min 0,000 mm 0,0 UV-I 0 W/m 11,2 C 15,6 C 11,3 km/h (2 Bft) 93,62 %
05.07.2019 01:38 16,6 C 25,6 C 15,6 C 71 % 1015,9 hPa 0,0 l/m 8,3 km/h (2 Bft) S-SW 198 0 min 0,000 mm 0,0 UV-I 0 W/m 11,3 C 15,6 C 11,3 km/h (2 Bft) 95,74 %
05.07.2019 01:40 16,6 C 25,6 C 15,6 C 71 % 1015,9 hPa 0,0 l/m 6,9 km/h (2 Bft) S-SW 211 0 min 0,000 mm 0,0 UV-I 0 W/m 11,3 C 16,3 C 9,7 km/h (2 Bft) 92,00 %
05.07.2019 01:42 16,5 C 25,6 C 15,6 C 71 % 1015,9 hPa 0,0 l/m 7,4 km/h (2 Bft) S-SW 205 0 min 0,000 mm 0,0 UV-I 0 W/m 11,2 C 16,0 C 9,7 km/h (2 Bft) 95,74 %
05.07.2019 01:44 16,5 C 25,6 C 15,6 C 71 % 1015,9 hPa 0,0 l/m 7,9 km/h (2 Bft) SW 223 0 min 0,000 mm 0,0 UV-I 0 W/m 11,2 C 15,7 C 11,3 km/h (2 Bft) 93,62 %
05.07.2019 01:46 16,4 C 25,6 C 15,6 C 71 % 1015,9 hPa 0,0 l/m 7,0 km/h (2 Bft) S-SW 200 0 min 0,000 mm 0,0 UV-I 0 W/m 11,1 C 16,1 C 11,3 km/h (2 Bft) 96,00 %
05.07.2019 01:48 16,4 C 25,6 C 15,6 C 71 % 1015,9 hPa 0,0 l/m 6,5 km/h (2 Bft) S-SW 206 0 min 0,000 mm 0,0 UV-I 0 W/m 11,1 C 16,4 C 9,7 km/h (2 Bft) 95,74 %
05.07.2019 01:50 16,4 C 25,6 C 15,6 C 71 % 1015,9 hPa 0,0 l/m 7,7 km/h (2 Bft) SW 221 0 min 0,000 mm 0,0 UV-I 0 W/m 11,1 C 15,7 C 12,9 km/h (3 Bft) 93,62 %
05.07.2019 01:52 16,4 C 25,6 C 15,6 C 71 % 1015,9 hPa 0,0 l/m 6,9 km/h (2 Bft) S-SW 211 0 min 0,000 mm 0,0 UV-I 0 W/m 11,1 C 16,1 C 11,3 km/h (2 Bft) 95,74 %
05.07.2019 01:54 16,3 C 25,6 C 15,0 C 71 % 1015,9 hPa 0,0 l/m 7,3 km/h (2 Bft) SW 217 0 min 0,000 mm 0,0 UV-I 0 W/m 11,0 C 15,8 C 9,7 km/h (2 Bft) 97,22 %
05.07.2019 01:56 16,2 C 25,6 C 15,6 C 72 % 1015,8 hPa 0,0 l/m 7,4 km/h (2 Bft) S-SW 209 0 min 0,000 mm 0,0 UV-I 0 W/m 11,1 C 15,7 C 9,7 km/h (2 Bft) 98,00 %
05.07.2019 01:58 16,2 C 25,6 C 15,6 C 72 % 1015,8 hPa 0,0 l/m 7,1 km/h (2 Bft) S-SW 198 0 min 0,000 mm 0,0 UV-I 0 W/m 11,1 C 15,8 C 9,7 km/h (2 Bft) 92,00 %
05.07.2019 02:00 16,2 C 25,6 C 15,6 C 72 % 1015,8 hPa 0,0 l/m 7,2 km/h (2 Bft) SW 217 0 min 0,026 mm 0,0 UV-I 0 W/m 11,1 C 15,8 C 11,3 km/h (2 Bft) 95,74 %
05.07.2019 02:02 16,2 C 25,6 C 15,6 C 72 % 1015,8 hPa 0,0 l/m 6,9 km/h (2 Bft) S-SW 205 0 min 0,000 mm 0,0 UV-I 0 W/m 11,1 C 15,9 C 11,3 km/h (2 Bft) 95,74 %
05.07.2019 02:04 16,2 C 25,6 C 15,0 C 72 % 1015,8 hPa 0,0 l/m 7,6 km/h (2 Bft) S-SW 204 0 min 0,000 mm 0,0 UV-I 0 W/m 11,1 C 15,6 C 11,3 km/h (2 Bft) 96,00 %
05.07.2019 02:06 16,2 C 25,6 C 15,0 C 72 % 1015,8 hPa 0,0 l/m 7,9 km/h (2 Bft) S-SW 209 0 min 0,000 mm 0,0 UV-I 0 W/m 11,1 C 15,4 C 11,3 km/h (2 Bft) 97,87 %
05.07.2019 02:08 16,1 C 25,6 C 15,0 C 72 % 1015,8 hPa 0,0 l/m 8,3 km/h (2 Bft) SW 216 0 min 0,000 mm 0,0 UV-I 0 W/m 11,0 C 15,1 C 11,3 km/h (2 Bft) 100,00 %
05.07.2019 02:10 16,1 C 25,6 C 15,0 C 72 % 1015,8 hPa 0,0 l/m 7,8 km/h (2 Bft) SW 217 0 min 0,000 mm 0,0 UV-I 0 W/m 11,0 C 15,4 C 11,3 km/h (2 Bft) 100,00 %
05.07.2019 02:12 16,1 C 25,6 C 15,0 C 72 % 1015,8 hPa 0,0 l/m 8,4 km/h (2 Bft) SW 225 0 min 0,000 mm 0,0 UV-I 0 W/m 11,0 C 15,1 C 12,9 km/h (3 Bft) 100,00 %
05.07.2019 02:14 16,1 C 25,6 C 15,0 C 72 % 1015,8 hPa 0,0 l/m 7,0 km/h (2 Bft) S-SW 203 0 min 0,000 mm 0,0 UV-I 0 W/m 11,0 C 15,8 C 11,3 km/h (2 Bft) 100,00 %
05.07.2019 02:16 16,1 C 25,6 C 15,0 C 72 % 1015,8 hPa 0,0 l/m 6,5 km/h (2 Bft) S-SW 203 0 min 0,000 mm 0,0 UV-I 0 W/m 11,0 C 16,1 C 11,3 km/h (2 Bft) 100,00 %
05.07.2019 02:18 16,1 C 25,6 C 15,0 C 72 % 1015,7 hPa 0,0 l/m 7,1 km/h (2 Bft) SW 218 0 min 0,000 mm 0,0 UV-I 0 W/m 11,0 C 15,7 C 12,9 km/h (3 Bft) 100,00 %
05.07.2019 02:20 16,1 C 25,6 C 15,0 C 72 % 1015,8 hPa 0,0 l/m 7,9 km/h (2 Bft) SW 214 0 min 0,000 mm 0,0 UV-I 0 W/m 11,0 C 15,3 C 11,3 km/h (2 Bft) 100,00 %
05.07.2019 02:22 16,0 C 25,6 C 15,0 C 72 % 1015,8 hPa 0,0 l/m 8,1 km/h (2 Bft) S-SW 206 0 min 0,000 mm 0,0 UV-I 0 W/m 11,0 C 15,1 C 11,3 km/h (2 Bft) 100,00 %
05.07.2019 02:24 15,9 C 25,6 C 15,0 C 73 % 1015,8 hPa 0,0 l/m 6,9 km/h (2 Bft) S-SW 205 0 min 0,000 mm 0,0 UV-I 0 W/m 11,1 C 15,6 C 9,7 km/h (2 Bft) 100,00 %
05.07.2019 02:26 15,9 C 25,6 C 15,0 C 73 % 1015,7 hPa 0,0 l/m 7,0 km/h (2 Bft) S-SW 211 0 min 0,000 mm 0,0 UV-I 0 W/m 11,1 C 15,6 C 9,7 km/h (2 Bft) 97,87 %
05.07.2019 02:28 15,9 C 25,6 C 15,0 C 72 % 1015,7 hPa 0,0 l/m 6,8 km/h (2 Bft) S-SW 206 0 min 0,000 mm 0,0 UV-I 0 W/m 10,9 C 15,7 C 9,7 km/h (2 Bft) 100,00 %
05.07.2019 02:30 16,1 C 25,6 C 15,0 C 72 % 1015,7 hPa 0,0 l/m 7,3 km/h (2 Bft) S-SW 202 0 min 0,000 mm 0,0 UV-I 0 W/m 11,0 C 15,6 C 9,7 km/h (2 Bft) 100,00 %
05.07.2019 02:32 16,1 C 25,6 C 15,0 C 72 % 1015,7 hPa 0,0 l/m 7,6 km/h (2 Bft) SW 221 0 min 0,000 mm 0,0 UV-I 0 W/m 11,0 C 15,5 C 11,3 km/h (2 Bft) 95,74 %
05.07.2019 02:34 16,1 C 25,6 C 15,0 C 72 % 1015,7 hPa 0,0 l/m 7,1 km/h (2 Bft) SW 219 0 min 0,000 mm 0,0 UV-I 0 W/m 11,0 C 15,7 C 9,7 km/h (2 Bft) 95,74 %
05.07.2019 02:36 16,1 C 25,6 C 15,0 C 72 % 1015,7 hPa 0,0 l/m 6,9 km/h (2 Bft) S-SW 213 0 min 0,000 mm 0,0 UV-I 0 W/m 11,0 C 15,8 C 9,7 km/h (2 Bft) 97,87 %
05.07.2019 02:38 16,0 C 25,6 C 14,4 C 73 % 1015,8 hPa 0,0 l/m 6,1 km/h (2 Bft) SW 222 0 min 0,000 mm 0,0 UV-I 0 W/m 11,2 C 16,0 C 8,0 km/h (2 Bft) 95,74 %
05.07.2019 02:40 15,9 C 25,6 C 14,4 C 73 % 1015,8 hPa 0,0 l/m 5,2 km/h (1 Bft) SW 234 0 min 0,000 mm 0,0 UV-I 0 W/m 11,1 C 15,9 C 6,4 km/h (2 Bft) 97,92 %
05.07.2019 02:42 15,8 C 25,6 C 14,4 C 73 % 1015,8 hPa 0,0 l/m 5,9 km/h (2 Bft) SW 223 0 min 0,000 mm 0,0 UV-I 0 W/m 11,0 C 15,8 C 8,0 km/h (2 Bft) 97,87 %
05.07.2019 02:44 15,7 C 25,6 C 14,4 C 73 % 1015,8 hPa 0,0 l/m 6,8 km/h (2 Bft) SW 218 0 min 0,000 mm 0,0 UV-I 0 W/m 10,9 C 15,5 C 8,0 km/h (2 Bft) 95,74 %
05.07.2019 02:46 15,5 C 25,6 C 14,4 C 75 % 1015,8 hPa 0,0 l/m 7,5 km/h (2 Bft) S-SW 210 0 min 0,000 mm 0,0 UV-I 0 W/m 11,1 C 14,9 C 9,7 km/h (2 Bft) 97,14 %
05.07.2019 02:48 15,3 C 25,6 C 14,4 C 75 % 1015,7 hPa 0,0 l/m 7,3 km/h (2 Bft) S-SW 205 0 min 0,000 mm 0,0 UV-I 0 W/m 10,9 C 14,8 C 9,7 km/h (2 Bft) 96,00 %
05.07.2019 02:50 15,2 C 25,6 C 14,4 C 76 % 1015,7 hPa 0,0 l/m 7,2 km/h (2 Bft) S-SW 200 0 min 0,000 mm 0,0 UV-I 0 W/m 11,0 C 14,8 C 9,7 km/h (2 Bft) 98,00 %
05.07.2019 02:52 15,2 C 25,6 C 14,4 C 76 % 1015,7 hPa 0,0 l/m 7,0 km/h (2 Bft) S-SW 203 0 min 0,000 mm 0,0 UV-I 0 W/m 11,0 C 14,9 C 9,7 km/h (2 Bft) 95,74 %
05.07.2019 02:54 15,3 C 25,6 C 14,4 C 75 % 1015,7 hPa 0,0 l/m 5,9 km/h (2 Bft) S-SW 211 0 min 0,000 mm 0,0 UV-I 0 W/m 10,9 C 15,3 C 9,7 km/h (2 Bft) 97,87 %
05.07.2019 02:56 15,4 C 25,6 C 14,4 C 75 % 1015,7 hPa 0,0 l/m 7,3 km/h (2 Bft) S-SW 213 0 min 0,000 mm 0,0 UV-I 0 W/m 11,0 C 14,9 C 9,7 km/h (2 Bft) 95,74 %
05.07.2019 02:58 15,4 C 25,6 C 14,4 C 74 % 1015,7 hPa 0,0 l/m 8,3 km/h (2 Bft) S-SW 201 0 min 0,000 mm 0,0 UV-I 0 W/m 10,8 C 14,4 C 12,9 km/h (3 Bft) 100,00 %
05.07.2019 03:00 15,6 C 25,6 C 14,4 C 74 % 1015,7 hPa 0,0 l/m 6,5 km/h (2 Bft) S-SW 200 0 min 0,025 mm 0,0 UV-I 0 W/m 11,0 C 15,6 C 9,7 km/h (2 Bft) 100,00 %
05.07.2019 03:02 15,6 C 25,6 C 14,4 C 74 % 1015,7 hPa 0,0 l/m 4,5 km/h (1 Bft) SW 225 0 min 0,000 mm 0,0 UV-I 0 W/m 11,0 C 15,6 C 6,4 km/h (2 Bft) 100,00 %
05.07.2019 03:04 15,6 C 25,6 C 14,4 C 74 % 1015,6 hPa 0,0 l/m 6,6 km/h (2 Bft) S-SW 213 0 min 0,000 mm 0,0 UV-I 0 W/m 11,0 C 15,5 C 9,7 km/h (2 Bft) 100,00 %
05.07.2019 03:06 15,6 C 25,6 C 14,4 C 74 % 1015,6 hPa 0,0 l/m 6,3 km/h (2 Bft) SW 217 0 min 0,000 mm 0,0 UV-I 0 W/m 11,0 C 15,6 C 8,0 km/h (2 Bft) 100,00 %
05.07.2019 03:08 15,6 C 25,6 C 14,4 C 74 % 1015,6 hPa 0,0 l/m 7,2 km/h (2 Bft) SW 221 0 min 0,000 mm 0,0 UV-I 0 W/m 11,0 C 15,2 C 9,7 km/h (2 Bft) 100,00 %
05.07.2019 03:10 15,6 C 25,6 C 13,9 C 74 % 1015,6 hPa 0,0 l/m 6,0 km/h (2 Bft) SW 217 0 min 0,000 mm 0,0 UV-I 0 W/m 11,0 C 15,6 C 9,7 km/h (2 Bft) 98,00 %
05.07.2019 03:12 15,6 C 25,6 C 13,9 C 74 % 1015,6 hPa 0,0 l/m 6,4 km/h (2 Bft) SW 217 0 min 0,000 mm 0,0 UV-I 0 W/m 11,0 C 15,6 C 8,0 km/h (2 Bft) 100,00 %
05.07.2019 03:14 15,5 C 25,6 C 13,9 C 74 % 1015,6 hPa 0,0 l/m 6,8 km/h (2 Bft) SW 222 0 min 0,000 mm 0,0 UV-I 0 W/m 10,9 C 15,3 C 9,7 km/h (2 Bft) 100,00 %
05.07.2019 03:16 15,3 C 25,6 C 13,9 C 75 % 1015,6 hPa 0,0 l/m 6,3 km/h (2 Bft) SW 225 0 min 0,000 mm 0,0 UV-I 0 W/m 10,9 C 15,3 C 9,7 km/h (2 Bft) 100,00 %
05.07.2019 03:18 15,2 C 25,6 C 13,9 C 76 % 1015,6 hPa 0,0 l/m 6,8 km/h (2 Bft) S-SW 210 0 min 0,000 mm 0,0 UV-I 0 W/m 11,0 C 15,0 C 8,0 km/h (2 Bft) 100,00 %
05.07.2019 03:20 15,2 C 25,6 C 13,9 C 76 % 1015,5 hPa 0,0 l/m 6,6 km/h (2 Bft) SW 216 0 min 0,000 mm 0,0 UV-I 0 W/m 11,0 C 15,1 C 9,7 km/h (2 Bft) 100,00 %
05.07.2019 03:22 15,0 C 25,6 C 13,9 C 76 % 1015,5 hPa 0,0 l/m 6,9 km/h (2 Bft) S-SW 213 0 min 0,000 mm 0,0 UV-I 0 W/m 10,8 C 14,7 C 9,7 km/h (2 Bft) 100,00 %
05.07.2019 03:24 14,9 C 25,6 C 14,4 C 77 % 1015,5 hPa 0,0 l/m 6,8 km/h (2 Bft) SW 214 0 min 0,000 mm 0,0 UV-I 0 W/m 10,9 C 14,7 C 9,7 km/h (2 Bft) 100,00 %
05.07.2019 03:26 15,0 C 25,6 C 14,4 C 77 % 1015,5 hPa 0,0 l/m 5,6 km/h (1 Bft) SW 221 0 min 0,000 mm 0,0 UV-I 0 W/m 11,0 C 15,0 C 8,0 km/h (2 Bft) 100,00 %
05.07.2019 03:28 15,0 C 25,6 C 14,4 C 76 % 1015,5 hPa 0,0 l/m 6,1 km/h (2 Bft) SW 221 0 min 0,000 mm 0,0 UV-I 0 W/m 10,8 C 15,0 C 8,0 km/h (2 Bft) 100,00 %
05.07.2019 03:30 15,0 C 25,0 C 13,9 C 76 % 1015,5 hPa 0,0 l/m 5,5 km/h (1 Bft) SW 226 0 min 0,000 mm 0,0 UV-I 0 W/m 10,8 C 15,0 C 8,0 km/h (2 Bft) 95,74 %
05.07.2019 03:32 15,1 C 25,0 C 13,9 C 76 % 1015,4 hPa 0,0 l/m 4,5 km/h (1 Bft) SW 226 0 min 0,000 mm 0,0 UV-I 0 W/m 10,9 C 15,1 C 6,4 km/h (2 Bft) 100,00 %
05.07.2019 03:34 15,1 C 25,0 C 13,9 C 76 % 1015,4 hPa 0,0 l/m 5,4 km/h (1 Bft) SW 217 0 min 0,000 mm 0,0 UV-I 0 W/m 10,9 C 15,1 C 6,4 km/h (2 Bft) 100,00 %
05.07.2019 03:36 15,1 C 25,0 C 13,9 C 76 % 1015,4 hPa 0,0 l/m 4,4 km/h (1 Bft) SW 221 0 min 0,000 mm 0,0 UV-I 0 W/m 10,9 C 15,1 C 6,4 km/h (2 Bft) 95,74 %
05.07.2019 03:38 15,1 C 25,0 C 13,3 C 77 % 1015,4 hPa 0,0 l/m 4,6 km/h (1 Bft) SW 225 0 min 0,000 mm 0,0 UV-I 0 W/m 11,1 C 15,1 C 6,4 km/h (2 Bft) 93,62 %
05.07.2019 03:40 15,0 C 25,0 C 13,3 C 76 % 1015,4 hPa 0,0 l/m 4,8 km/h (1 Bft) SW 220 0 min 0,000 mm 0,0 UV-I 0 W/m 10,8 C 15,0 C 6,4 km/h (2 Bft) 93,62 %
05.07.2019 03:42 14,9 C 25,0 C 13,3 C 76 % 1015,4 hPa 0,0 l/m 4,1 km/h (1 Bft) SW 221 0 min 0,000 mm 0,0 UV-I 0 W/m 10,7 C 14,9 C 4,8 km/h (1 Bft) 95,74 %
05.07.2019 03:44 14,8 C 25,0 C 13,3 C 77 % 1015,3 hPa 0,0 l/m 4,7 km/h (1 Bft) S-SW 210 0 min 0,000 mm 0,0 UV-I 0 W/m 10,8 C 14,8 C 6,4 km/h (2 Bft) 95,74 %
05.07.2019 03:46 14,7 C 25,0 C 13,9 C 77 % 1015,3 hPa 0,0 l/m 5,1 km/h (1 Bft) S-SW 211 0 min 0,000 mm 0,0 UV-I 0 W/m 10,7 C 14,7 C 6,4 km/h (2 Bft) 97,87 %
05.07.2019 03:48 14,7 C 25,0 C 13,9 C 78 % 1015,3 hPa 0,0 l/m 5,2 km/h (1 Bft) S-SW 213 0 min 0,000 mm 0,0 UV-I 0 W/m 10,9 C 14,7 C 6,4 km/h (2 Bft) 97,92 %
05.07.2019 03:50 14,6 C 25,0 C 13,9 C 78 % 1015,2 hPa 0,0 l/m 5,2 km/h (1 Bft) S-SW 212 0 min 0,000 mm 0,0 UV-I 0 W/m 10,8 C 14,6 C 6,4 km/h (2 Bft) 100,00 %
05.07.2019 03:52 14,6 C 25,0 C 13,9 C 78 % 1015,2 hPa 0,0 l/m 5,1 km/h (1 Bft) SW 219 0 min 0,000 mm 0,0 UV-I 0 W/m 10,8 C 14,6 C 8,0 km/h (2 Bft) 95,74 %
05.07.2019 03:54 14,6 C 25,0 C 13,9 C 78 % 1015,2 hPa 0,0 l/m 5,0 km/h (1 Bft) SW 223 0 min 0,000 mm 0,0 UV-I 0 W/m 10,8 C 14,6 C 8,0 km/h (2 Bft) 97,14 %
05.07.2019 03:56 14,6 C 25,0 C 13,9 C 78 % 1015,2 hPa 0,0 l/m 4,9 km/h (1 Bft) SW 221 0 min 0,000 mm 0,0 UV-I 0 W/m 10,8 C 14,6 C 6,4 km/h (2 Bft) 95,38 %
05.07.2019 03:58 14,6 C 25,0 C 13,9 C 78 % 1015,2 hPa 0,0 l/m 4,0 km/h (1 Bft) SW 221 0 min 0,000 mm 0,0 UV-I 0 W/m 10,8 C 14,6 C 4,8 km/h (1 Bft) 95,74 %
05.07.2019 04:00 14,6 C 25,0 C 13,3 C 78 % 1015,2 hPa 0,0 l/m 3,9 km/h (1 Bft) W-SW 237 0 min 0,026 mm 0,0 UV-I 0 W/m 10,8 C 14,6 C 6,4 km/h (2 Bft) 91,49 %
05.07.2019 04:02 14,6 C 25,0 C 13,3 C 78 % 1015,3 hPa 0,0 l/m 3,1 km/h (1 Bft) W-SW 240 0 min 0,000 mm 0,0 UV-I 0 W/m 10,8 C 14,6 C 4,8 km/h (1 Bft) 100,00 %
05.07.2019 04:04 14,1 C 25,0 C 12,8 C 80 % 1015,3 hPa 0,0 l/m 3,1 km/h (1 Bft) W-SW 240 0 min 0,000 mm 0,0 UV-I 0 W/m 10,7 C 14,1 C 4,8 km/h (1 Bft) 93,62 %
05.07.2019 04:06 13,8 C 25,0 C 12,8 C 82 % 1015,3 hPa 0,0 l/m 3,4 km/h (1 Bft) W-SW 240 0 min 0,000 mm 0,0 UV-I 0 W/m 10,8 C 13,8 C 4,8 km/h (1 Bft) 95,74 %
05.07.2019 04:08 13,7 C 25,0 C 12,8 C 82 % 1015,3 hPa 0,0 l/m 2,2 km/h (1 Bft) W-SW 240 0 min 0,000 mm 0,0 UV-I 0 W/m 10,7 C 13,7 C 3,2 km/h (1 Bft) 93,62 %
05.07.2019 04:10 13,7 C 25,0 C 12,2 C 82 % 1015,3 hPa 0,0 l/m 1,6 km/h (1 Bft) W-SW 240 0 min 0,000 mm 0,0 UV-I 0 W/m 10,7 C 13,7 C 3,2 km/h (1 Bft) 97,87 %
05.07.2019 04:12 13,8 C 25,0 C 12,2 C 82 % 1015,4 hPa 0,0 l/m 2,1 km/h (1 Bft) W-SW 240 0 min 0,000 mm 0,0 UV-I 0 W/m 10,8 C 13,8 C 4,8 km/h (1 Bft) 93,62 %
05.07.2019 04:14 13,9 C 25,0 C 12,2 C 82 % 1015,4 hPa 0,0 l/m 2,5 km/h (1 Bft) SW 225 0 min 0,000 mm 0,0 UV-I 0 W/m 10,9 C 13,9 C 4,8 km/h (1 Bft) 97,87 %
05.07.2019 04:16 14,0 C 25,0 C 12,8 C 81 % 1015,4 hPa 0,0 l/m 4,6 km/h (1 Bft) W-SW 244 0 min 0,000 mm 0,0 UV-I 0 W/m 10,8 C 14,0 C 6,4 km/h (2 Bft) 98,00 %
05.07.2019 04:18 14,1 C 25,0 C 12,8 C 81 % 1015,4 hPa 0,0 l/m 4,4 km/h (1 Bft) SW 219 0 min 0,000 mm 0,0 UV-I 0 W/m 10,9 C 14,1 C 8,0 km/h (2 Bft) 97,22 %
05.07.2019 04:20 14,1 C 25,0 C 12,8 C 81 % 1015,3 hPa 0,0 l/m 5,8 km/h (2 Bft) W-SW 252 0 min 0,000 mm 0,0 UV-I 0 W/m 10,9 C 14,1 C 8,0 km/h (2 Bft) 98,00 %
05.07.2019 04:22 14,1 C 25,0 C 12,8 C 82 % 1015,3 hPa 0,0 l/m 7,5 km/h (2 Bft) S-SW 209 0 min 0,000 mm 0,0 UV-I 0 W/m 11,1 C 13,4 C 11,3 km/h (2 Bft) 97,87 %
05.07.2019 04:24 14,1 C 25,0 C 13,3 C 82 % 1015,3 hPa 0,0 l/m 8,8 km/h (2 Bft) SW 229 0 min 0,000 mm 0,0 UV-I 0 W/m 11,1 C 12,7 C 12,9 km/h (3 Bft) 95,74 %
05.07.2019 04:26 14,2 C 25,0 C 13,3 C 82 % 1015,2 hPa 0,0 l/m 9,7 km/h (2 Bft) S-SW 206 0 min 0,000 mm 0,0 UV-I 0 W/m 11,2 C 12,4 C 16,1 km/h (3 Bft) 97,87 %
05.07.2019 04:28 14,3 C 25,0 C 13,3 C 82 % 1015,3 hPa 0,0 l/m 8,8 km/h (2 Bft) S-SW 205 0 min 0,000 mm 0,0 UV-I 0 W/m 11,3 C 12,9 C 12,9 km/h (3 Bft) 96,00 %
05.07.2019 04:30 14,3 C 25,0 C 13,3 C 81 % 1015,3 hPa 0,0 l/m 7,6 km/h (2 Bft) SW 222 0 min 0,000 mm 0,0 UV-I 0 W/m 11,1 C 13,6 C 11,3 km/h (2 Bft) 95,74 %
05.07.2019 04:32 14,3 C 25,0 C 13,3 C 81 % 1015,3 hPa 0,0 l/m 8,1 km/h (2 Bft) S-SW 211 0 min 0,000 mm 0,0 UV-I 0 W/m 11,1 C 13,3 C 12,9 km/h (3 Bft) 97,87 %
05.07.2019 04:34 14,3 C 25,0 C 13,3 C 81 % 1015,2 hPa 0,0 l/m 6,3 km/h (2 Bft) S-SW 210 0 min 0,000 mm 0,0 UV-I 0 W/m 11,1 C 14,3 C 9,7 km/h (2 Bft) 97,87 %
05.07.2019 04:36 14,3 C 25,0 C 13,9 C 81 % 1015,2 hPa 0,0 l/m 8,7 km/h (2 Bft) S-SW 201 0 min 0,000 mm 0,0 UV-I 0 W/m 11,1 C 13,0 C 11,3 km/h (2 Bft) 96,00 %
05.07.2019 04:38 14,3 C 25,0 C 13,9 C 81 % 1015,2 hPa 0,0 l/m 8,2 km/h (2 Bft) SW 215 0 min 0,000 mm 0,0 UV-I 0 W/m 11,1 C 13,3 C 11,3 km/h (2 Bft) 97,87 %
05.07.2019 04:40 14,3 C 25,0 C 13,9 C 81 % 1015,2 hPa 0,0 l/m 7,4 km/h (2 Bft) SW 217 0 min 0,000 mm 0,0 UV-I 0 W/m 11,1 C 13,7 C 9,7 km/h (2 Bft) 97,87 %
05.07.2019 04:42 14,3 C 25,0 C 13,9 C 81 % 1015,2 hPa 0,0 l/m 7,8 km/h (2 Bft) S-SW 208 0 min 0,000 mm 0,0 UV-I 0 W/m 11,1 C 13,5 C 11,3 km/h (2 Bft) 97,87 %
05.07.2019 04:44 14,3 C 25,0 C 13,9 C 81 % 1015,2 hPa 0,0 l/m 4,7 km/h (1 Bft) S 185 0 min 0,000 mm 0,0 UV-I 0 W/m 11,1 C 14,3 C 8,0 km/h (2 Bft) 97,14 %
05.07.2019 04:46 14,3 C 25,0 C 13,9 C 81 % 1015,2 hPa 0,0 l/m 5,1 km/h (1 Bft) S-SW 196 0 min 0,000 mm 0,0 UV-I 0 W/m 11,1 C 14,3 C 8,0 km/h (2 Bft) 98,00 %
05.07.2019 04:48 14,3 C 25,0 C 13,9 C 80 % 1015,2 hPa 0,0 l/m 4,8 km/h (1 Bft) SW 214 0 min 0,000 mm 0,0 UV-I 0 W/m 10,9 C 14,3 C 8,0 km/h (2 Bft) 97,87 %
05.07.2019 04:50 14,3 C 25,0 C 13,9 C 81 % 1015,2 hPa 0,0 l/m 5,4 km/h (1 Bft) S-SW 200 0 min 0,000 mm 0,0 UV-I 0 W/m 11,1 C 14,3 C 8,0 km/h (2 Bft) 94,00 %
05.07.2019 04:52 14,3 C 25,0 C 13,3 C 81 % 1015,2 hPa 0,0 l/m 6,0 km/h (2 Bft) S-SW 200 0 min 0,000 mm 0,0 UV-I 0 W/m 11,1 C 14,3 C 8,0 km/h (2 Bft) 95,74 %
05.07.2019 04:54 14,3 C 25,0 C 13,3 C 81 % 1015,2 hPa 0,0 l/m 5,6 km/h (1 Bft) S-SW 196 0 min 0,000 mm 0,0 UV-I 0 W/m 11,1 C 14,3 C 8,0 km/h (2 Bft) 97,87 %
05.07.2019 04:56 14,3 C 25,0 C 13,9 C 81 % 1015,1 hPa 0,0 l/m 6,7 km/h (2 Bft) S 184 0 min 0,000 mm 0,0 UV-I 0 W/m 11,1 C 14,1 C 9,7 km/h (2 Bft) 97,87 %
05.07.2019 04:58 14,3 C 25,0 C 13,9 C 80 % 1015,1 hPa 0,0 l/m 5,7 km/h (1 Bft) S-SW 200 0 min 0,000 mm 0,0 UV-I 0 W/m 10,9 C 14,3 C 8,0 km/h (2 Bft) 98,00 %
05.07.2019 05:00 14,3 C 25,0 C 13,9 C 80 % 1015,1 hPa 0,0 l/m 5,7 km/h (1 Bft) S-SW 197 0 min 0,025 mm 0,0 UV-I 4 W/m 10,9 C 14,3 C 8,0 km/h (2 Bft) 95,83 %
05.07.2019 05:02 14,4 C 25,0 C 13,9 C 80 % 1015,1 hPa 0,0 l/m 5,9 km/h (2 Bft) S-SW 200 0 min 0,000 mm 0,0 UV-I 5 W/m 11,0 C 14,4 C 9,7 km/h (2 Bft) 95,16 %
05.07.2019 05:04 14,5 C 25,0 C 13,9 C 79 % 1015,1 hPa 0,0 l/m 5,4 km/h (1 Bft) S-SW 193 0 min 0,000 mm 0,0 UV-I 5 W/m 10,9 C 14,5 C 8,0 km/h (2 Bft) 98,00 %
05.07.2019 05:06 14,6 C 25,0 C 13,9 C 79 % 1015,1 hPa 0,0 l/m 4,7 km/h (1 Bft) S-SW 198 0 min 0,000 mm 0,0 UV-I 5 W/m 11,0 C 14,6 C 8,0 km/h (2 Bft) 95,74 %
05.07.2019 05:08 14,6 C 25,0 C 13,9 C 79 % 1015,1 hPa 0,0 l/m 5,2 km/h (1 Bft) S-SW 205 0 min 0,000 mm 0,0 UV-I 6 W/m 11,0 C 14,6 C 8,0 km/h (2 Bft) 97,87 %
05.07.2019 05:10 14,5 C 25,0 C 13,9 C 79 % 1015,1 hPa 0,0 l/m 4,6 km/h (1 Bft) S-SW 199 0 min 0,000 mm 0,0 UV-I 7 W/m 10,9 C 14,5 C 8,0 km/h (2 Bft) 97,87 %
05.07.2019 05:12 14,4 C 25,0 C 13,3 C 79 % 1015,2 hPa 0,0 l/m 4,0 km/h (1 Bft) S-SW 200 0 min 0,000 mm 0,0 UV-I 7 W/m 10,8 C 14,4 C 6,4 km/h (2 Bft) 97,87 %
05.07.2019 05:14 14,4 C 25,0 C 13,3 C 79 % 1015,1 hPa 0,0 l/m 5,1 km/h (1 Bft) S-SW 198 0 min 0,000 mm 0,0 UV-I 8 W/m 10,8 C 14,4 C 6,4 km/h (2 Bft) 100,00 %
05.07.2019 05:16 14,4 C 25,0 C 13,3 C 80 % 1015,2 hPa 0,0 l/m 5,3 km/h (1 Bft) S-SW 206 0 min 0,000 mm 0,0 UV-I 9 W/m 11,0 C 14,4 C 8,0 km/h (2 Bft) 95,74 %
05.07.2019 05:18 14,3 C 25,0 C 13,3 C 80 % 1015,2 hPa 0,0 l/m 5,0 km/h (1 Bft) S-SW 200 0 min 0,000 mm 0,0 UV-I 11 W/m 10,9 C 14,3 C 6,4 km/h (2 Bft) 97,87 %
05.07.2019 05:20 14,3 C 25,0 C 13,9 C 80 % 1015,2 hPa 0,0 l/m 4,7 km/h (1 Bft) S 188 0 min 0,000 mm 0,0 UV-I 12 W/m 10,9 C 14,3 C 8,0 km/h (2 Bft) 95,74 %
05.07.2019 05:22 14,2 C 25,0 C 13,9 C 81 % 1015,2 hPa 0,0 l/m 5,8 km/h (2 Bft) S-SW 212 0 min 0,000 mm 0,0 UV-I 13 W/m 11,0 C 14,2 C 8,0 km/h (2 Bft) 100,00 %
05.07.2019 05:24 14,2 C 25,0 C 13,9 C 81 % 1015,2 hPa 0,0 l/m 4,9 km/h (1 Bft) S-SW 193 2 min 0,000 mm 0,0 UV-I 14 W/m 11,0 C 14,2 C 8,0 km/h (2 Bft) 97,87 %
05.07.2019 05:26 14,2 C 25,0 C 13,9 C 81 % 1015,2 hPa 0,0 l/m 4,7 km/h (1 Bft) S-SW 200 2 min 0,000 mm 0,0 UV-I 14 W/m 11,0 C 14,2 C 9,7 km/h (2 Bft) 97,87 %
05.07.2019 05:28 14,2 C 25,0 C 13,9 C 81 % 1015,2 hPa 0,0 l/m 4,4 km/h (1 Bft) S-SW 205 0 min 0,000 mm 0,0 UV-I 15 W/m 11,0 C 14,2 C 6,4 km/h (2 Bft) 97,87 %
05.07.2019 05:30 14,2 C 25,0 C 13,9 C 81 % 1015,2 hPa 0,0 l/m 5,1 km/h (1 Bft) S-SW 200 2 min 0,000 mm 0,0 UV-I 18 W/m 11,0 C 14,2 C 6,4 km/h (2 Bft) 97,87 %
05.07.2019 05:32 14,2 C 25,0 C 13,9 C 81 % 1015,2 hPa 0,0 l/m 5,5 km/h (1 Bft) S-SW 204 0 min 0,000 mm 0,0 UV-I 19 W/m 11,0 C 14,2 C 6,4 km/h (2 Bft) 97,87 %
05.07.2019 05:34 14,2 C 25,0 C 13,9 C 82 % 1015,2 hPa 0,0 l/m 4,7 km/h (1 Bft) S-SW 198 0 min 0,000 mm 0,0 UV-I 20 W/m 11,2 C 14,2 C 6,4 km/h (2 Bft) 95,74 %
05.07.2019 05:36 14,2 C 25,0 C 13,9 C 82 % 1015,2 hPa 0,0 l/m 5,4 km/h (1 Bft) S-SW 205 0 min 0,000 mm 0,0 UV-I 22 W/m 11,2 C 14,2 C 8,0 km/h (2 Bft) 91,67 %
05.07.2019 05:38 14,2 C 25,0 C 13,9 C 82 % 1015,2 hPa 0,0 l/m 6,1 km/h (2 Bft) S-SW 205 0 min 0,000 mm 0,0 UV-I 24 W/m 11,2 C 14,2 C 8,0 km/h (2 Bft) 96,00 %
05.07.2019 05:40 14,2 C 25,0 C 13,9 C 82 % 1015,2 hPa 0,0 l/m 6,8 km/h (2 Bft) SW 217 0 min 0,000 mm 0,0 UV-I 26 W/m 11,2 C 14,0 C 9,7 km/h (2 Bft) 97,87 %
05.07.2019 05:42 14,2 C 25,0 C 13,9 C 82 % 1015,2 hPa 0,0 l/m 6,7 km/h (2 Bft) S-SW 203 0 min 0,000 mm 0,0 UV-I 28 W/m 11,2 C 14,0 C 9,7 km/h (2 Bft) 97,87 %
05.07.2019 05:44 14,2 C 25,0 C 13,9 C 82 % 1015,2 hPa 0,0 l/m 6,8 km/h (2 Bft) S-SW 207 0 min 0,000 mm 0,0 UV-I 30 W/m 11,2 C 14,0 C 8,0 km/h (2 Bft) 96,00 %
05.07.2019 05:46 14,2 C 25,0 C 13,9 C 82 % 1015,2 hPa 0,0 l/m 7,1 km/h (2 Bft) S-SW 206 0 min 0,000 mm 0,0 UV-I 33 W/m 11,2 C 13,8 C 8,0 km/h (2 Bft) 97,87 %
05.07.2019 05:48 14,2 C 25,0 C 14,4 C 82 % 1015,2 hPa 0,0 l/m 7,1 km/h (2 Bft) S-SW 206 0 min 0,000 mm 0,0 UV-I 41 W/m 11,2 C 13,8 C 9,7 km/h (2 Bft) 93,62 %
05.07.2019 05:50 14,2 C 25,0 C 14,4 C 82 % 1015,2 hPa 0,0 l/m 6,7 km/h (2 Bft) S-SW 209 0 min 0,000 mm 0,0 UV-I 42 W/m 11,2 C 14,0 C 9,7 km/h (2 Bft) 97,87 %
05.07.2019 05:52 14,2 C 25,0 C 14,4 C 82 % 1015,1 hPa 0,0 l/m 7,2 km/h (2 Bft) S-SW 206 0 min 0,000 mm 0,0 UV-I 41 W/m 11,2 C 13,7 C 9,7 km/h (2 Bft) 98,00 %
05.07.2019 05:54 14,3 C 25,0 C 14,4 C 82 % 1015,1 hPa 0,0 l/m 6,7 km/h (2 Bft) SW 218 0 min 0,000 mm 0,0 UV-I 42 W/m 11,3 C 14,1 C 9,7 km/h (2 Bft) 97,30 %
05.07.2019 05:56 14,3 C 25,0 C 14,4 C 81 % 1015,2 hPa 0,0 l/m 6,5 km/h (2 Bft) SW 223 0 min 0,000 mm 0,0 UV-I 44 W/m 11,1 C 14,3 C 8,0 km/h (2 Bft) 97,87 %
05.07.2019 05:58 14,4 C 25,0 C 14,4 C 81 % 1015,2 hPa 0,0 l/m 6,7 km/h (2 Bft) S-SW 212 0 min 0,000 mm 0,0 UV-I 46 W/m 11,2 C 14,2 C 8,0 km/h (2 Bft) 98,00 %
05.07.2019 06:00 14,4 C 25,0 C 14,4 C 81 % 1015,2 hPa 0,0 l/m 6,2 km/h (2 Bft) S-SW 209 0 min 0,025 mm 0,0 UV-I 47 W/m 11,2 C 14,4 C 9,7 km/h (2 Bft) 97,87 %
05.07.2019 06:02 14,4 C 25,0 C 14,4 C 80 % 1015,2 hPa 0,0 l/m 6,8 km/h (2 Bft) S-SW 200 0 min 0,000 mm 0,0 UV-I 49 W/m 11,0 C 14,2 C 9,7 km/h (2 Bft) 95,74 %
05.07.2019 06:04 14,5 C 25,0 C 14,4 C 80 % 1015,2 hPa 0,0 l/m 6,4 km/h (2 Bft) S-SW 202 0 min 0,000 mm 0,0 UV-I 51 W/m 11,1 C 14,5 C 9,7 km/h (2 Bft) 95,74 %
05.07.2019 06:06 14,6 C 25,0 C 15,0 C 80 % 1015,2 hPa 0,0 l/m 5,8 km/h (2 Bft) SW 215 0 min 0,000 mm 0,0 UV-I 52 W/m 11,2 C 14,6 C 8,0 km/h (2 Bft) 95,74 %
05.07.2019 06:08 14,7 C 25,0 C 15,0 C 80 % 1015,2 hPa 0,0 l/m 5,5 km/h (1 Bft) S-SW 212 0 min 0,000 mm 0,0 UV-I 54 W/m 11,3 C 14,7 C 9,7 km/h (2 Bft) 95,74 %
05.07.2019 06:10 14,7 C 25,0 C 15,0 C 79 % 1015,2 hPa 0,0 l/m 6,2 km/h (2 Bft) S-SW 206 0 min 0,000 mm 0,0 UV-I 61 W/m 11,1 C 14,7 C 9,7 km/h (2 Bft) 98,00 %
05.07.2019 06:12 14,8 C 25,0 C 15,0 C 79 % 1015,2 hPa 0,0 l/m 6,4 km/h (2 Bft) S-SW 211 0 min 0,000 mm 0,0 UV-I 72 W/m 11,2 C 14,8 C 8,0 km/h (2 Bft) 100,00 %
05.07.2019 06:14 14,8 C 25,0 C 15,0 C 79 % 1015,2 hPa 0,0 l/m 7,4 km/h (2 Bft) SW 219 2 min 0,000 mm 0,0 UV-I 82 W/m 11,2 C 14,2 C 9,7 km/h (2 Bft) 100,00 %
05.07.2019 06:16 14,8 C 25,0 C 15,0 C 79 % 1015,2 hPa 0,0 l/m 6,8 km/h (2 Bft) S-SW 212 0 min 0,000 mm 0,0 UV-I 80 W/m 11,2 C 14,6 C 8,0 km/h (2 Bft) 100,00 %
05.07.2019 06:18 14,9 C 25,0 C 15,0 C 80 % 1015,2 hPa 0,0 l/m 6,5 km/h (2 Bft) SW 223 0 min 0,000 mm 0,0 UV-I 74 W/m 11,5 C 14,9 C 9,7 km/h (2 Bft) 100,00 %
05.07.2019 06:20 14,9 C 25,0 C 15,0 C 80 % 1015,3 hPa 0,0 l/m 4,8 km/h (1 Bft) SW 225 0 min 0,000 mm 0,0 UV-I 70 W/m 11,5 C 14,9 C 8,0 km/h (2 Bft) 95,74 %
05.07.2019 06:22 14,9 C 25,0 C 15,0 C 80 % 1015,3 hPa 0,0 l/m 4,9 km/h (1 Bft) SW 221 0 min 0,000 mm 0,0 UV-I 74 W/m 11,5 C 14,9 C 6,4 km/h (2 Bft) 100,00 %
05.07.2019 06:24 14,9 C 25,0 C 15,0 C 80 % 1015,3 hPa 0,0 l/m 5,0 km/h (1 Bft) SW 221 0 min 0,000 mm 0,0 UV-I 76 W/m 11,5 C 14,9 C 8,0 km/h (2 Bft) 97,87 %
05.07.2019 06:26 14,9 C 25,0 C 15,0 C 81 % 1015,3 hPa 0,0 l/m 6,0 km/h (2 Bft) SW 236 0 min 0,000 mm 0,0 UV-I 79 W/m 11,7 C 14,9 C 9,7 km/h (2 Bft) 98,00 %
05.07.2019 06:28 15,0 C 25,0 C 15,0 C 81 % 1015,3 hPa 0,0 l/m 5,3 km/h (1 Bft) SW 223 0 min 0,000 mm 0,0 UV-I 86 W/m 11,8 C 15,0 C 8,0 km/h (2 Bft) 97,87 %
05.07.2019 06:30 15,0 C 25,0 C 15,0 C 81 % 1015,3 hPa 0,0 l/m 5,4 km/h (1 Bft) W-SW 238 0 min 0,000 mm 0,0 UV-I 90 W/m 11,8 C 15,0 C 8,0 km/h (2 Bft) 97,87 %
05.07.2019 06:32 15,1 C 25,0 C 15,0 C 80 % 1015,4 hPa 0,0 l/m 6,4 km/h (2 Bft) W-SW 244 0 min 0,000 mm 0,0 UV-I 92 W/m 11,7 C 15,1 C 8,0 km/h (2 Bft) 100,00 %
05.07.2019 06:34 15,1 C 25,0 C 15,0 C 81 % 1015,4 hPa 0,0 l/m 6,5 km/h (2 Bft) W-SW 239 0 min 0,000 mm 0,0 UV-I 101 W/m 11,9 C 15,1 C 9,7 km/h (2 Bft) 95,74 %
05.07.2019 06:36 15,1 C 25,0 C 15,0 C 81 % 1015,4 hPa 0,0 l/m 5,2 km/h (1 Bft) SW 227 0 min 0,000 mm 0,0 UV-I 105 W/m 11,9 C 15,1 C 8,0 km/h (2 Bft) 100,00 %
05.07.2019 06:38 15,1 C 25,0 C 15,0 C 81 % 1015,4 hPa 0,0 l/m 5,5 km/h (1 Bft) SW 227 0 min 0,000 mm 0,0 UV-I 111 W/m 11,9 C 15,1 C 8,0 km/h (2 Bft) 97,87 %
05.07.2019 06:40 15,2 C 25,0 C 15,6 C 80 % 1015,4 hPa 0,0 l/m 6,0 km/h (2 Bft) SW 226 0 min 0,000 mm 0,0 UV-I 113 W/m 11,8 C 15,2 C 8,0 km/h (2 Bft) 97,87 %
05.07.2019 06:42 15,2 C 25,0 C 15,6 C 80 % 1015,4 hPa 0,0 l/m 5,9 km/h (2 Bft) SW 218 2 min 0,000 mm 0,0 UV-I 123 W/m 11,8 C 15,2 C 8,0 km/h (2 Bft) 95,74 %
05.07.2019 06:44 15,3 C 25,0 C 15,6 C 80 % 1015,4 hPa 0,0 l/m 6,0 km/h (2 Bft) SW 224 2 min 0,000 mm 0,0 UV-I 143 W/m 11,9 C 15,3 C 8,0 km/h (2 Bft) 95,74 %
05.07.2019 06:46 15,4 C 25,0 C 16,1 C 81 % 1015,4 hPa 0,0 l/m 6,2 km/h (2 Bft) SW 223 2 min 0,000 mm 0,0 UV-I 151 W/m 12,2 C 15,4 C 8,0 km/h (2 Bft) 97,37 %
05.07.2019 06:48 15,6 C 25,0 C 16,1 C 80 % 1015,5 hPa 0,0 l/m 5,5 km/h (1 Bft) SW 232 2 min 0,000 mm 0,0 UV-I 153 W/m 12,2 C 15,6 C 8,0 km/h (2 Bft) 97,96 %
05.07.2019 06:50 15,6 C 25,0 C 16,1 C 80 % 1015,5 hPa 0,0 l/m 5,7 km/h (1 Bft) SW 236 2 min 0,000 mm 0,0 UV-I 145 W/m 12,2 C 15,6 C 8,0 km/h (2 Bft) 97,87 %
05.07.2019 06:52 15,7 C 25,0 C 16,1 C 80 % 1015,5 hPa 0,0 l/m 7,0 km/h (2 Bft) SW 233 2 min 0,000 mm 0,0 UV-I 150 W/m 12,3 C 15,4 C 9,7 km/h (2 Bft) 98,00 %
05.07.2019 06:54 15,7 C 25,0 C 16,7 C 80 % 1015,6 hPa 0,0 l/m 7,0 km/h (2 Bft) W-SW 243 2 min 0,000 mm 0,0 UV-I 152 W/m 12,3 C 15,4 C 9,7 km/h (2 Bft) 97,92 %
05.07.2019 06:56 15,8 C 25,0 C 16,7 C 80 % 1015,5 hPa 0,0 l/m 7,5 km/h (2 Bft) W-SW 247 2 min 0,000 mm 0,0 UV-I 147 W/m 12,4 C 15,2 C 11,3 km/h (2 Bft) 97,87 %
05.07.2019 06:58 15,8 C 25,0 C 16,7 C 80 % 1015,5 hPa 0,0 l/m 5,6 km/h (1 Bft) W-SW 252 2 min 0,000 mm 0,0 UV-I 160 W/m 12,4 C 15,8 C 8,0 km/h (2 Bft) 96,43 %
05.07.2019 07:00 15,9 C 25,0 C 16,7 C 80 % 1015,6 hPa 0,0 l/m 4,7 km/h (1 Bft) W-SW 257 2 min 0,077 mm 0,0 UV-I 169 W/m 12,5 C 15,9 C 6,4 km/h (2 Bft) 98,44 %
05.07.2019 07:02 16,0 C 25,0 C 17,2 C 80 % 1015,6 hPa 0,0 l/m 4,8 km/h (1 Bft) W 263 2 min 0,000 mm 0,0 UV-I 181 W/m 12,5 C 16,0 C 6,4 km/h (2 Bft) 100,00 %
05.07.2019 07:04 16,2 C 25,0 C 17,2 C 80 % 1015,6 hPa 0,0 l/m 4,9 km/h (1 Bft) W-SW 253 2 min 0,000 mm 0,0 UV-I 185 W/m 12,7 C 16,2 C 6,4 km/h (2 Bft) 97,87 %
05.07.2019 07:06 16,3 C 25,0 C 17,2 C 80 % 1015,6 hPa 0,0 l/m 4,8 km/h (1 Bft) W 265 2 min 0,000 mm 0,0 UV-I 199 W/m 12,8 C 16,3 C 9,7 km/h (2 Bft) 97,87 %
05.07.2019 07:08 16,5 C 25,0 C 17,8 C 78 % 1015,6 hPa 0,0 l/m 8,5 km/h (2 Bft) W 263 2 min 0,000 mm 0,0 UV-I 203 W/m 12,6 C 15,4 C 11,3 km/h (2 Bft) 100,00 %
05.07.2019 07:10 16,6 C 25,0 C 17,8 C 77 % 1015,6 hPa 0,0 l/m 8,5 km/h (2 Bft) W-SW 245 2 min 0,000 mm 0,0 UV-I 205 W/m 12,5 C 15,5 C 12,9 km/h (3 Bft) 98,00 %
05.07.2019 07:12 16,7 C 25,0 C 17,8 C 76 % 1015,6 hPa 0,0 l/m 7,7 km/h (2 Bft) W-SW 244 2 min 0,000 mm 0,0 UV-I 190 W/m 12,4 C 16,0 C 12,9 km/h (3 Bft) 97,87 %
05.07.2019 07:14 16,8 C 25,0 C 17,8 C 74 % 1015,6 hPa 0,0 l/m 10,1 km/h (2 Bft) W-SW 254 2 min 0,000 mm 0,0 UV-I 195 W/m 12,1 C 15,1 C 14,5 km/h (3 Bft) 100,00 %
05.07.2019 07:16 16,8 C 25,0 C 17,8 C 74 % 1015,6 hPa 0,0 l/m 9,6 km/h (2 Bft) SW 220 2 min 0,000 mm 0,0 UV-I 199 W/m 12,1 C 15,3 C 16,1 km/h (3 Bft) 95,74 %
05.07.2019 07:18 16,9 C 25,0 C 17,8 C 75 % 1015,6 hPa 0,0 l/m 9,6 km/h (2 Bft) SW 236 2 min 0,000 mm 0,5 UV-I 208 W/m 12,4 C 15,4 C 14,5 km/h (3 Bft) 96,23 %
05.07.2019 07:20 17,0 C 25,0 C 17,8 C 74 % 1015,6 hPa 0,0 l/m 9,3 km/h (2 Bft) W-SW 244 2 min 0,000 mm 0,5 UV-I 211 W/m 12,3 C 15,6 C 12,9 km/h (3 Bft) 100,00 %
05.07.2019 07:22 17,1 C 25,0 C 17,8 C 75 % 1015,5 hPa 0,0 l/m 8,3 km/h (2 Bft) W-SW 245 2 min 0,000 mm 0,5 UV-I 206 W/m 12,6 C 16,2 C 14,5 km/h (3 Bft) 97,87 %
05.07.2019 07:24 17,1 C 25,0 C 18,3 C 74 % 1015,5 hPa 0,0 l/m 6,7 km/h (2 Bft) W 261 2 min 0,000 mm 0,5 UV-I 216 W/m 12,4 C 17,0 C 11,3 km/h (2 Bft) 100,00 %
05.07.2019 07:26 17,2 C 25,0 C 18,3 C 73 % 1015,6 hPa 0,0 l/m 7,0 km/h (2 Bft) W 273 2 min 0,000 mm 0,5 UV-I 234 W/m 12,3 C 16,9 C 11,3 km/h (2 Bft) 100,00 %
05.07.2019 07:29 17,3 C 25,0 C 18,3 C 73 % 1015,6 hPa 0,0 l/m 7,4 km/h (2 Bft) W 261 3 min 0,000 mm 0,6 UV-I 253 W/m 12,4 C 16,8 C 12,9 km/h (3 Bft) 98,65 %
05.07.2019 07:30 17,4 C 25,0 C 18,9 C 73 % 1015,6 hPa 0,0 l/m 11,8 km/h (2 Bft) SW 235 1 min 0,000 mm 0,6 UV-I 269 W/m 12,5 C 15,1 C 14,5 km/h (3 Bft) 100,00 %
05.07.2019 07:32 17,5 C 25,0 C 18,9 C 72 % 1015,6 hPa 0,0 l/m 9,2 km/h (2 Bft) W-SW 255 2 min 0,000 mm 0,6 UV-I 288 W/m 12,4 C 16,2 C 12,9 km/h (3 Bft) 100,00 %
05.07.2019 07:34 17,6 C 25,0 C 18,9 C 72 % 1015,7 hPa 0,0 l/m 7,2 km/h (2 Bft) W-SW 252 2 min 0,000 mm 0,6 UV-I 289 W/m 12,5 C 17,2 C 12,9 km/h (3 Bft) 100,00 %
05.07.2019 07:36 17,7 C 25,0 C 18,9 C 72 % 1015,7 hPa 0,0 l/m 9,1 km/h (2 Bft) W-NW 286 2 min 0,000 mm 0,6 UV-I 247 W/m 12,6 C 16,5 C 14,5 km/h (3 Bft) 100,00 %
05.07.2019 07:38 17,7 C 25,0 C 18,9 C 71 % 1015,6 hPa 0,0 l/m 5,7 km/h (1 Bft) SW 236 2 min 0,000 mm 0,6 UV-I 241 W/m 12,4 C 17,7 C 11,3 km/h (2 Bft) 97,87 %
05.07.2019 07:40 17,7 C 25,0 C 18,9 C 70 % 1015,6 hPa 0,0 l/m 8,7 km/h (2 Bft) W 259 2 min 0,000 mm 0,7 UV-I 254 W/m 12,2 C 16,6 C 16,1 km/h (3 Bft) 97,37 %
05.07.2019 07:42 17,7 C 25,0 C 18,9 C 70 % 1015,7 hPa 0,0 l/m 3,7 km/h (1 Bft) W 271 2 min 0,000 mm 0,7 UV-I 228 W/m 12,2 C 17,7 C 6,4 km/h (2 Bft) 94,00 %
05.07.2019 07:44 17,7 C 25,0 C 18,9 C 70 % 1015,6 hPa 0,0 l/m 4,9 km/h (1 Bft) W 265 2 min 0,000 mm 0,7 UV-I 249 W/m 12,2 C 17,7 C 9,7 km/h (2 Bft) 96,00 %
05.07.2019 07:46 17,8 C 25,0 C 19,4 C 71 % 1015,6 hPa 0,0 l/m 5,0 km/h (1 Bft) W-SW 254 2 min 0,000 mm 0,7 UV-I 279 W/m 12,5 C 17,8 C 9,7 km/h (2 Bft) 93,62 %
05.07.2019 07:48 17,9 C 25,0 C 19,4 C 71 % 1015,6 hPa 0,0 l/m 4,6 km/h (1 Bft) W-SW 257 2 min 0,000 mm 0,7 UV-I 290 W/m 12,6 C 17,9 C 6,4 km/h (2 Bft) 93,62 %
05.07.2019 07:50 18,0 C 25,0 C 19,4 C 71 % 1015,6 hPa 0,0 l/m 3,5 km/h (1 Bft) W 267 2 min 0,000 mm 0,8 UV-I 296 W/m 12,7 C 18,0 C 6,4 km/h (2 Bft) 93,62 %
05.07.2019 07:52 18,1 C 25,0 C 20,0 C 70 % 1015,6 hPa 0,0 l/m 2,1 km/h (1 Bft) W 271 2 min 0,000 mm 0,8 UV-I 278 W/m 12,5 C 18,1 C 3,2 km/h (1 Bft) 93,62 %
05.07.2019 07:54 18,1 C 25,0 C 20,0 C 71 % 1015,7 hPa 0,0 l/m 2,6 km/h (1 Bft) W 269 2 min 0,000 mm 0,8 UV-I 244 W/m 12,8 C 18,1 C 4,8 km/h (1 Bft) 95,74 %
05.07.2019 07:56 18,0 C 25,0 C 20,0 C 70 % 1015,7 hPa 0,0 l/m 4,0 km/h (1 Bft) W-NW 299 2 min 0,000 mm 0,8 UV-I 230 W/m 12,4 C 18,0 C 6,4 km/h (2 Bft) 96,00 %
05.07.2019 07:58 17,9 C 25,0 C 20,0 C 70 % 1015,7 hPa 0,0 l/m 4,7 km/h (1 Bft) W 277 2 min 0,000 mm 0,8 UV-I 237 W/m 12,3 C 17,9 C 9,7 km/h (2 Bft) 95,74 %
05.07.2019 08:00 17,9 C 25,0 C 20,0 C 70 % 1015,7 hPa 0,0 l/m 4,0 km/h (1 Bft) W-SW 254 2 min 0,152 mm 0,8 UV-I 248 W/m 12,3 C 17,9 C 6,4 km/h (2 Bft) 94,00 %
05.07.2019 08:02 18,0 C 24,4 C 20,6 C 70 % 1015,6 hPa 0,0 l/m 3,1 km/h (1 Bft) W-SW 254 2 min 0,000 mm 0,8 UV-I 247 W/m 12,4 C 18,0 C 6,4 km/h (2 Bft) 93,48 %
05.07.2019 08:04 18,0 C 25,0 C 20,6 C 70 % 1015,7 hPa 0,0 l/m 2,9 km/h (1 Bft) W 273 2 min 0,000 mm 0,8 UV-I 238 W/m 12,4 C 18,0 C 4,8 km/h (1 Bft) 91,67 %
05.07.2019 08:06 18,0 C 25,0 C 20,6 C 70 % 1015,7 hPa 0,0 l/m 4,4 km/h (1 Bft) W-SW 248 2 min 0,000 mm 0,8 UV-I 245 W/m 12,4 C 18,0 C 6,4 km/h (2 Bft) 94,00 %
05.07.2019 08:08 18,0 C 25,0 C 20,6 C 70 % 1015,7 hPa 0,0 l/m 3,9 km/h (1 Bft) NW 316 2 min 0,000 mm 0,8 UV-I 246 W/m 12,4 C 18,0 C 6,4 km/h (2 Bft) 91,49 %
05.07.2019 08:10 18,1 C 24,4 C 20,6 C 69 % 1015,7 hPa 0,0 l/m 2,1 km/h (1 Bft) W 266 0 min 0,000 mm 0,8 UV-I 227 W/m 12,3 C 18,1 C 4,8 km/h (1 Bft) 93,62 %
05.07.2019 08:12 18,1 C 24,4 C 20,6 C 70 % 1015,6 hPa 0,0 l/m 2,7 km/h (1 Bft) W 269 0 min 0,000 mm 0,9 UV-I 225 W/m 12,5 C 18,1 C 4,8 km/h (1 Bft) 96,00 %
05.07.2019 08:14 18,1 C 24,4 C 20,6 C 69 % 1015,6 hPa 0,0 l/m 3,2 km/h (1 Bft) W 267 0 min 0,000 mm 0,9 UV-I 227 W/m 12,3 C 18,1 C 4,8 km/h (1 Bft) 95,74 %
05.07.2019 08:16 18,1 C 24,4 C 20,6 C 70 % 1015,6 hPa 0,0 l/m 1,0 km/h (0 Bft) W 267 0 min 0,000 mm 0,9 UV-I 226 W/m 12,5 C 18,1 C 1,6 km/h (1 Bft) 95,74 %
05.07.2019 08:18 18,1 C 25,0 C 20,6 C 69 % 1015,7 hPa 0,0 l/m 2,4 km/h (1 Bft) W 269 2 min 0,000 mm 1,0 UV-I 270 W/m 12,3 C 18,1 C 4,8 km/h (1 Bft) 96,00 %
05.07.2019 08:20 18,1 C 25,0 C 21,1 C 70 % 1015,7 hPa 0,0 l/m 1,2 km/h (1 Bft) W 269 2 min 0,000 mm 1,1 UV-I 293 W/m 12,5 C 18,1 C 3,2 km/h (1 Bft) 94,74 %
05.07.2019 08:22 18,3 C 25,0 C 21,1 C 72 % 1015,7 hPa 0,0 l/m 2,3 km/h (1 Bft) W 269 2 min 0,000 mm 1,2 UV-I 344 W/m 13,2 C 18,3 C 3,2 km/h (1 Bft) 95,74 %
05.07.2019 08:24 18,4 C 25,0 C 21,1 C 69 % 1015,6 hPa 0,0 l/m 2,2 km/h (1 Bft) W 269 2 min 0,000 mm 1,3 UV-I 371 W/m 12,6 C 18,4 C 3,2 km/h (1 Bft) 95,74 %
05.07.2019 08:26 18,4 C 25,0 C 21,7 C 70 % 1015,6 hPa 0,0 l/m 1,3 km/h (1 Bft) W 269 2 min 0,000 mm 1,4 UV-I 488 W/m 12,8 C 18,4 C 3,2 km/h (1 Bft) 94,00 %
05.07.2019 08:28 18,7 C 25,0 C 21,7 C 70 % 1015,7 hPa 0,0 l/m 2,0 km/h (1 Bft) NW 316 2 min 0,000 mm 1,5 UV-I 489 W/m 13,1 C 18,7 C 4,8 km/h (1 Bft) 98,00 %
05.07.2019 08:30 18,8 C 25,0 C 21,7 C 68 % 1015,6 hPa 0,0 l/m 1,5 km/h (1 Bft) NW 316 2 min 0,000 mm 1,5 UV-I 529 W/m 12,8 C 18,8 C 3,2 km/h (1 Bft) 97,87 %
05.07.2019 08:32 19,0 C 25,0 C 21,7 C 67 % 1015,6 hPa 0,0 l/m 2,4 km/h (1 Bft) N 350 2 min 0,000 mm 1,6 UV-I 550 W/m 12,7 C 19,0 C 4,8 km/h (1 Bft) 95,74 %
05.07.2019 08:34 19,2 C 25,0 C 21,7 C 67 % 1015,6 hPa 0,0 l/m 3,2 km/h (1 Bft) W-SW 250 2 min 0,000 mm 1,6 UV-I 547 W/m 12,9 C 19,2 C 4,8 km/h (1 Bft) 97,87 %
05.07.2019 08:36 19,4 C 25,0 C 22,2 C 66 % 1015,6 hPa 0,0 l/m 1,7 km/h (1 Bft) W 259 2 min 0,000 mm 1,7 UV-I 556 W/m 12,9 C 19,4 C 4,8 km/h (1 Bft) 100,00 %
05.07.2019 08:38 19,5 C 25,0 C 22,2 C 63 % 1015,6 hPa 0,0 l/m 3,6 km/h (1 Bft) W-NW 290 2 min 0,000 mm 1,7 UV-I 553 W/m 12,3 C 19,5 C 6,4 km/h (2 Bft) 95,74 %
05.07.2019 08:40 19,6 C 25,0 C 22,8 C 64 % 1015,6 hPa 0,0 l/m 3,5 km/h (1 Bft) W-NW 287 2 min 0,000 mm 1,8 UV-I 569 W/m 12,6 C 19,6 C 4,8 km/h (1 Bft) 97,22 %
05.07.2019 08:42 19,6 C 25,0 C 23,3 C 63 % 1015,6 hPa 0,0 l/m 3,5 km/h (1 Bft) W-NW 289 2 min 0,000 mm 1,8 UV-I 571 W/m 12,4 C 19,6 C 4,8 km/h (1 Bft) 98,00 %
05.07.2019 08:44 19,6 C 25,0 C 23,9 C 63 % 1015,6 hPa 0,0 l/m 3,4 km/h (1 Bft) W-NW 296 2 min 0,000 mm 1,8 UV-I 540 W/m 12,4 C 19,6 C 6,4 km/h (2 Bft) 100,00 %
05.07.2019 08:46 19,7 C 25,0 C 24,4 C 63 % 1015,6 hPa 0,0 l/m 2,7 km/h (1 Bft) NW 325 2 min 0,000 mm 1,7 UV-I 485 W/m 12,5 C 19,7 C 4,8 km/h (1 Bft) 98,00 %
05.07.2019 08:48 19,8 C 25,0 C 25,0 C 61 % 1015,6 hPa 0,0 l/m 2,0 km/h (1 Bft) NW 307 2 min 0,000 mm 1,6 UV-I 438 W/m 12,1 C 19,8 C 6,4 km/h (2 Bft) 100,00 %
05.07.2019 08:50 19,8 C 25,0 C 25,0 C 62 % 1015,6 hPa 0,0 l/m 1,4 km/h (1 Bft) NW 307 2 min 0,000 mm 1,6 UV-I 368 W/m 12,3 C 19,8 C 3,2 km/h (1 Bft) 97,87 %
05.07.2019 08:52 19,9 C 25,0 C 25,0 C 61 % 1015,6 hPa 0,0 l/m 1,5 km/h (1 Bft) NW 304 2 min 0,000 mm 1,7 UV-I 408 W/m 12,2 C 19,9 C 4,8 km/h (1 Bft) 95,74 %
05.07.2019 08:54 19,9 C 25,0 C 25,6 C 63 % 1015,6 hPa 0,0 l/m 2,7 km/h (1 Bft) NW 305 2 min 0,000 mm 1,8 UV-I 463 W/m 12,6 C 19,9 C 4,8 km/h (1 Bft) 100,00 %
05.07.2019 08:56 20,1 C 25,0 C 26,7 C 62 % 1015,5 hPa 0,0 l/m 1,0 km/h (0 Bft) NW 305 2 min 0,000 mm 2,0 UV-I 533 W/m 12,6 C 20,1 C 3,2 km/h (1 Bft) 97,87 %
05.07.2019 08:58 20,3 C 25,0 C 28,3 C 62 % 1015,6 hPa 0,0 l/m 3,1 km/h (1 Bft) W-NW 300 2 min 0,000 mm 2,0 UV-I 530 W/m 12,8 C 20,3 C 6,4 km/h (2 Bft) 97,87 %
05.07.2019 09:00 20,3 C 25,0 C 28,9 C 60 % 1015,6 hPa 0,0 l/m 2,4 km/h (1 Bft) W 259 2 min 0,254 mm 2,0 UV-I 527 W/m 12,3 C 20,3 C 4,8 km/h (1 Bft) 97,87 %
05.07.2019 09:02 20,5 C 25,0 C 30,0 C 60 % 1015,6 hPa 0,0 l/m 6,7 km/h (2 Bft) W-SW 254 2 min 0,000 mm 2,1 UV-I 558 W/m 12,5 C 20,4 C 11,3 km/h (2 Bft) 100,00 %
05.07.2019 09:04 20,7 C 25,0 C 30,0 C 60 % 1015,6 hPa 0,0 l/m 3,7 km/h (1 Bft) W 279 2 min 0,000 mm 2,1 UV-I 560 W/m 12,7 C 20,7 C 6,4 km/h (2 Bft) 100,00 %
05.07.2019 09:06 20,7 C 25,0 C 30,6 C 59 % 1015,6 hPa 0,0 l/m 5,1 km/h (1 Bft) W-SW 257 2 min 0,000 mm 2,2 UV-I 558 W/m 12,4 C 20,7 C 11,3 km/h (2 Bft) 100,00 %
05.07.2019 09:08 20,9 C 25,0 C 30,6 C 58 % 1015,5 hPa 0,0 l/m 4,5 km/h (1 Bft) SW 230 2 min 0,000 mm 2,1 UV-I 494 W/m 12,3 C 20,9 C 9,7 km/h (2 Bft) 100,00 %
05.07.2019 09:10 21,0 C 25,0 C 30,6 C 59 % 1015,5 hPa 0,0 l/m 5,5 km/h (1 Bft) W-NW 302 2 min 0,000 mm 2,1 UV-I 421 W/m 12,7 C 21,0 C 11,3 km/h (2 Bft) 97,87 %
05.07.2019 09:12 21,0 C 25,0 C 30,0 C 56 % 1015,5 hPa 0,0 l/m 5,1 km/h (1 Bft) W-SW 255 2 min 0,000 mm 2,1 UV-I 489 W/m 11,9 C 21,0 C 8,0 km/h (2 Bft) 95,74 %
05.07.2019 09:14 21,0 C 25,0 C 30,6 C 56 % 1015,5 hPa 0,0 l/m 5,7 km/h (1 Bft) W 267 2 min 0,000 mm 2,2 UV-I 536 W/m 11,9 C 21,0 C 11,3 km/h (2 Bft) 97,87 %
05.07.2019 09:16 21,1 C 25,0 C 30,0 C 57 % 1015,5 hPa 0,0 l/m 4,4 km/h (1 Bft) W-SW 251 2 min 0,000 mm 2,1 UV-I 556 W/m 12,2 C 21,1 C 11,3 km/h (2 Bft) 100,00 %
05.07.2019 09:18 21,1 C 25,0 C 30,0 C 55 % 1015,5 hPa 0,0 l/m 9,6 km/h (2 Bft) W 272 2 min 0,000 mm 2,3 UV-I 610 W/m 11,7 C 20,0 C 17,7 km/h (3 Bft) 97,87 %
05.07.2019 09:20 21,2 C 25,0 C 30,6 C 55 % 1015,5 hPa 0,0 l/m 5,5 km/h (1 Bft) W-SW 242 2 min 0,000 mm 2,4 UV-I 586 W/m 11,8 C 21,2 C 12,9 km/h (3 Bft) 100,00 %
05.07.2019 09:22 21,2 C 25,0 C 30,6 C 54 % 1015,5 hPa 0,0 l/m 8,2 km/h (2 Bft) W-SW 250 2 min 0,000 mm 2,3 UV-I 531 W/m 11,5 C 20,5 C 14,5 km/h (3 Bft) 100,00 %
05.07.2019 09:24 21,3 C 25,0 C 30,6 C 54 % 1015,5 hPa 0,0 l/m 8,1 km/h (2 Bft) W-NW 292 2 min 0,000 mm 2,4 UV-I 586 W/m 11,6 C 20,7 C 14,5 km/h (3 Bft) 97,44 %
05.07.2019 09:26 21,3 C 25,0 C 31,1 C 54 % 1015,5 hPa 0,0 l/m 6,2 km/h (2 Bft) W 265 2 min 0,000 mm 2,5 UV-I 633 W/m 11,6 C 21,3 C 11,3 km/h (2 Bft) 100,00 %
05.07.2019 09:28 21,3 C 25,0 C 31,1 C 55 % 1015,5 hPa 0,0 l/m 8,5 km/h (2 Bft) W-SW 254 2 min 0,000 mm 2,3 UV-I 596 W/m 11,9 C 20,5 C 12,9 km/h (3 Bft) 100,00 %
05.07.2019 09:30 21,5 C 25,0 C 31,7 C 55 % 1015,5 hPa 0,0 l/m 7,5 km/h (2 Bft) W-SW 247 2 min 0,000 mm 2,6 UV-I 600 W/m 12,1 C 21,1 C 12,9 km/h (3 Bft) 98,00 %
05.07.2019 09:32 21,8 C 25,0 C 32,2 C 56 % 1015,5 hPa 0,0 l/m 4,6 km/h (1 Bft) W-NW 286 2 min 0,000 mm 2,7 UV-I 610 W/m 12,6 C 21,8 C 9,7 km/h (2 Bft) 97,87 %
05.07.2019 09:34 21,8 C 25,0 C 32,8 C 52 % 1015,5 hPa 0,0 l/m 4,3 km/h (1 Bft) W-NW 301 2 min 0,000 mm 2,8 UV-I 662 W/m 11,5 C 21,8 C 11,3 km/h (2 Bft) 95,74 %
05.07.2019 09:36 21,8 C 25,0 C 32,8 C 53 % 1015,4 hPa 0,0 l/m 6,4 km/h (2 Bft) N 9 2 min 0,000 mm 2,7 UV-I 606 W/m 11,8 C 21,8 C 9,7 km/h (2 Bft) 95,74 %
05.07.2019 09:38 22,0 C 25,0 C 33,3 C 58 % 1015,4 hPa 0,0 l/m 3,2 km/h (1 Bft) N-NW 339 2 min 0,000 mm 2,8 UV-I 621 W/m 13,3 C 22,0 C 6,4 km/h (2 Bft) 93,62 %
05.07.2019 09:40 22,1 C 25,0 C 33,9 C 54 % 1015,4 hPa 0,0 l/m 4,7 km/h (1 Bft) W 270 2 min 0,000 mm 2,8 UV-I 627 W/m 12,3 C 22,1 C 9,7 km/h (2 Bft) 95,74 %
05.07.2019 09:42 22,1 C 25,0 C 33,3 C 51 % 1015,5 hPa 0,0 l/m 5,9 km/h (2 Bft) W 265 2 min 0,000 mm 2,9 UV-I 659 W/m 11,5 C 22,1 C 11,3 km/h (2 Bft) 92,11 %
05.07.2019 09:44 22,2 C 25,0 C 32,8 C 53 % 1015,5 hPa 0,0 l/m 11,1 km/h (2 Bft) W 260 2 min 0,000 mm 2,8 UV-I 575 W/m 12,2 C 20,8 C 16,1 km/h (3 Bft) 94,34 %
05.07.2019 09:46 22,3 C 25,0 C 32,8 C 53 % 1015,5 hPa 0,0 l/m 7,9 km/h (2 Bft) W 264 2 min 0,000 mm 2,8 UV-I 594 W/m 12,2 C 21,8 C 17,7 km/h (3 Bft) 95,74 %
05.07.2019 09:48 22,3 C 25,0 C 32,8 C 52 % 1015,4 hPa 0,0 l/m 8,2 km/h (2 Bft) W-NW 282 2 min 0,000 mm 2,8 UV-I 582 W/m 12,0 C 21,7 C 14,5 km/h (3 Bft) 93,62 %
05.07.2019 09:50 22,3 C 25,0 C 33,3 C 52 % 1015,4 hPa 0,0 l/m 4,2 km/h (1 Bft) N 10 2 min 0,000 mm 3,0 UV-I 651 W/m 12,0 C 22,3 C 8,0 km/h (2 Bft) 91,49 %
05.07.2019 09:52 22,4 C 25,0 C 33,9 C 51 % 1015,4 hPa 0,0 l/m 3,4 km/h (1 Bft) W-NW 302 2 min 0,000 mm 3,2 UV-I 727 W/m 11,8 C 22,4 C 6,4 km/h (2 Bft) 95,74 %
05.07.2019 09:54 22,6 C 25,0 C 34,4 C 53 % 1015,4 hPa 0,0 l/m 3,4 km/h (1 Bft) N-NW 343 2 min 0,000 mm 3,3 UV-I 737 W/m 12,5 C 22,6 C 6,4 km/h (2 Bft) 94,00 %
05.07.2019 09:56 22,9 C 25,0 C 35,0 C 52 % 1015,4 hPa 0,0 l/m 4,2 km/h (1 Bft) N-NW 328 2 min 0,000 mm 3,3 UV-I 726 W/m 12,5 C 22,9 C 6,4 km/h (2 Bft) 93,62 %
05.07.2019 09:58 23,1 C 25,0 C 34,4 C 53 % 1015,4 hPa 0,0 l/m 6,0 km/h (2 Bft) N-NO 19 2 min 0,000 mm 3,0 UV-I 759 W/m 13,0 C 23,1 C 8,0 km/h (2 Bft) 95,83 %
05.07.2019 10:00 23,1 C 25,0 C 33,3 C 51 % 1015,4 hPa 0,0 l/m 5,5 km/h (1 Bft) NO 35 2 min 0,381 mm 2,7 UV-I 530 W/m 12,4 C 23,1 C 8,0 km/h (2 Bft) 97,87 %
05.07.2019 10:02 23,1 C 25,0 C 32,8 C 51 % 1015,4 hPa 0,0 l/m 5,6 km/h (1 Bft) N 355 2 min 0,000 mm 3,0 UV-I 583 W/m 12,4 C 23,1 C 11,3 km/h (2 Bft) 97,37 %
05.07.2019 10:04 23,1 C 25,0 C 32,8 C 49 % 1015,3 hPa 0,0 l/m 3,5 km/h (1 Bft) W-NW 300 2 min 0,000 mm 3,0 UV-I 610 W/m 11,8 C 23,1 C 6,4 km/h (2 Bft) 98,11 %
05.07.2019 10:06 23,2 C 25,0 C 32,8 C 50 % 1015,3 hPa 0,0 l/m 3,1 km/h (1 Bft) W-SW 247 2 min 0,000 mm 3,1 UV-I 644 W/m 12,2 C 23,2 C 11,3 km/h (2 Bft) 97,37 %
05.07.2019 10:08 23,1 C 25,0 C 33,9 C 48 % 1015,3 hPa 0,0 l/m 2,8 km/h (1 Bft) NO 44 2 min 0,000 mm 3,4 UV-I 531 W/m 11,5 C 23,1 C 6,4 km/h (2 Bft) 100,00 %
05.07.2019 10:10 23,3 C 25,0 C 35,0 C 49 % 1015,3 hPa 0,0 l/m 4,3 km/h (1 Bft) NW 317 2 min 0,000 mm 3,8 UV-I 531 W/m 12,0 C 23,3 C 6,4 km/h (2 Bft) 100,00 %
05.07.2019 10:12 23,6 C 25,0 C 36,1 C 47 % 1015,3 hPa 0,0 l/m 4,8 km/h (1 Bft) W 275 2 min 0,000 mm 3,8 UV-I 899 W/m 11,6 C 23,6 C 12,9 km/h (3 Bft) 100,00 %
05.07.2019 10:14 23,8 C 25,0 C 35,6 C 49 % 1015,3 hPa 0,0 l/m 4,6 km/h (1 Bft) W-NW 298 2 min 0,000 mm 3,1 UV-I 751 W/m 12,4 C 23,8 C 9,7 km/h (2 Bft) 96,92 %
05.07.2019 10:16 23,9 C 25,0 C 34,4 C 47 % 1015,3 hPa 0,0 l/m 3,3 km/h (1 Bft) NW 304 2 min 0,000 mm 2,7 UV-I 495 W/m 11,9 C 23,9 C 8,0 km/h (2 Bft) 97,87 %
05.07.2019 10:18 23,8 C 25,0 C 33,3 C 43 % 1015,3 hPa 0,0 l/m 9,5 km/h (2 Bft) W-SW 246 2 min 0,000 mm 3,1 UV-I 579 W/m 10,5 C 23,0 C 14,5 km/h (3 Bft) 100,00 %
05.07.2019 10:20 23,8 C 25,0 C 33,3 C 43 % 1015,2 hPa 0,0 l/m 7,6 km/h (2 Bft) W 271 2 min 0,000 mm 3,3 UV-I 606 W/m 10,5 C 23,5 C 16,1 km/h (3 Bft) 100,00 %
05.07.2019 10:22 23,8 C 25,0 C 33,3 C 46 % 1015,3 hPa 0,0 l/m 5,6 km/h (1 Bft) W-NW 288 2 min 0,000 mm 3,3 UV-I 577 W/m 11,5 C 23,8 C 12,9 km/h (3 Bft) 100,00 %
05.07.2019 10:24 23,9 C 25,0 C 34,4 C 45 % 1015,2 hPa 0,0 l/m 5,1 km/h (1 Bft) W-SW 254 2 min 0,000 mm 3,8 UV-I 744 W/m 11,2 C 23,9 C 11,3 km/h (2 Bft) 100,00 %
05.07.2019 10:26 24,1 C 25,0 C 36,1 C 44 % 1015,3 hPa 0,0 l/m 4,3 km/h (1 Bft) NW 319 2 min 0,000 mm 4,0 UV-I 786 W/m 11,1 C 24,1 C 8,0 km/h (2 Bft) 100,00 %
05.07.2019 10:28 24,4 C 25,0 C 36,7 C 47 % 1015,3 hPa 0,0 l/m 5,2 km/h (1 Bft) N 355 2 min 0,000 mm 4,0 UV-I 695 W/m 12,3 C 24,4 C 8,0 km/h (2 Bft) 100,00 %
05.07.2019 10:30 24,6 C 25,0 C 37,2 C 46 % 1015,3 hPa 0,0 l/m 5,4 km/h (1 Bft) N-NW 335 2 min 0,000 mm 4,2 UV-I 927 W/m 12,2 C 24,6 C 12,9 km/h (3 Bft) 100,00 %
05.07.2019 10:32 24,5 C 25,0 C 35,0 C 44 % 1015,3 hPa 0,0 l/m 10,1 km/h (2 Bft) W-NW 296 2 min 0,000 mm 3,4 UV-I 838 W/m 11,4 C 23,6 C 17,7 km/h (3 Bft) 100,00 %
05.07.2019 10:34 24,4 C 25,0 C 33,9 C 45 % 1015,3 hPa 0,0 l/m 6,8 km/h (2 Bft) N-NW 342 2 min 0,000 mm 3,3 UV-I 590 W/m 11,7 C 24,3 C 19,3 km/h (3 Bft) 97,44 %
05.07.2019 10:36 24,3 C 25,0 C 32,2 C 44 % 1015,3 hPa 0,0 l/m 5,4 km/h (1 Bft) NO 43 2 min 0,000 mm 3,0 UV-I 457 W/m 11,3 C 24,3 C 12,9 km/h (3 Bft) 100,00 %
05.07.2019 10:38 24,2 C 25,0 C 31,7 C 41 % 1015,3 hPa 0,0 l/m 4,9 km/h (1 Bft) W-NW 294 2 min 0,000 mm 3,2 UV-I 504 W/m 10,1 C 24,2 C 6,4 km/h (2 Bft) 97,87 %
05.07.2019 10:40 24,1 C 25,0 C 31,7 C 42 % 1015,3 hPa 0,0 l/m 6,8 km/h (2 Bft) W 279 2 min 0,000 mm 3,4 UV-I 447 W/m 10,4 C 24,0 C 12,9 km/h (3 Bft) 100,00 %
05.07.2019 10:42 24,1 C 25,0 C 33,3 C 42 % 1015,2 hPa 0,0 l/m 2,2 km/h (1 Bft) S-SO 163 2 min 0,000 mm 4,2 UV-I 661 W/m 10,4 C 24,1 C 4,8 km/h (1 Bft) 100,00 %
05.07.2019 10:44 24,2 C 25,0 C 33,3 C 43 % 1015,3 hPa 0,0 l/m 8,1 km/h (2 Bft) W-NW 289 2 min 0,000 mm 3,6 UV-I 638 W/m 10,8 C 23,7 C 16,1 km/h (3 Bft) 97,87 %
05.07.2019 10:46 24,2 C 25,0 C 33,9 C 41 % 1015,3 hPa 0,0 l/m 6,2 km/h (2 Bft) W-SW 258 2 min 0,000 mm 3,8 UV-I 589 W/m 10,1 C 24,2 C 14,5 km/h (3 Bft) 97,87 %
05.07.2019 10:48 24,1 C 25,0 C 33,9 C 43 % 1015,2 hPa 0,0 l/m 3,3 km/h (1 Bft) NO 55 2 min 0,000 mm 4,2 UV-I 636 W/m 10,7 C 24,1 C 6,4 km/h (2 Bft) 97,87 %
05.07.2019 10:50 24,2 C 25,0 C 34,4 C 44 % 1015,2 hPa 0,0 l/m 6,6 km/h (2 Bft) NO 34 2 min 0,000 mm 4,2 UV-I 620 W/m 11,2 C 24,2 C 12,9 km/h (3 Bft) 100,00 %
05.07.2019 10:52 24,3 C 25,0 C 35,0 C 44 % 1015,2 hPa 0,0 l/m 4,9 km/h (1 Bft) W-NW 294 2 min 0,000 mm 4,5 UV-I 796 W/m 11,3 C 24,3 C 8,0 km/h (2 Bft) 100,00 %
05.07.2019 10:54 24,3 C 25,0 C 35,0 C 42 % 1015,2 hPa 0,0 l/m 4,3 km/h (1 Bft) W-SW 253 2 min 0,000 mm 4,4 UV-I 810 W/m 10,6 C 24,3 C 11,3 km/h (2 Bft) 100,00 %
05.07.2019 10:56 24,4 C 25,0 C 35,0 C 43 % 1015,2 hPa 0,0 l/m 7,8 km/h (2 Bft) N-NO 24 2 min 0,000 mm 4,2 UV-I 726 W/m 11,0 C 24,0 C 19,3 km/h (3 Bft) 100,00 %
05.07.2019 10:58 24,4 C 25,0 C 34,4 C 43 % 1015,2 hPa 0,0 l/m 10,8 km/h (2 Bft) W-NW 284 2 min 0,000 mm 4,3 UV-I 684 W/m 11,0 C 23,3 C 16,1 km/h (3 Bft) 100,00 %
05.07.2019 11:00 24,4 C 25,0 C 34,4 C 43 % 1015,2 hPa 0,0 l/m 4,9 km/h (1 Bft) W-SW 254 2 min 0,457 mm 4,5 UV-I 700 W/m 11,0 C 24,4 C 9,7 km/h (2 Bft) 100,00 %
05.07.2019 11:02 24,6 C 25,0 C 35,0 C 43 % 1015,2 hPa 0,0 l/m 8,8 km/h (2 Bft) W-SW 249 2 min 0,000 mm 4,8 UV-I 800 W/m 11,2 C 24,0 C 14,5 km/h (3 Bft) 97,87 %
05.07.2019 11:04 24,6 C 25,0 C 35,6 C 42 % 1015,2 hPa 0,0 l/m 6,0 km/h (2 Bft) N-NW 348 2 min 0,000 mm 4,4 UV-I 718 W/m 10,8 C 24,6 C 14,5 km/h (3 Bft) 100,00 %
05.07.2019 11:06 24,9 C 25,0 C 37,2 C 43 % 1015,2 hPa 0,0 l/m 5,2 km/h (1 Bft) W-NW 292 2 min 0,000 mm 4,7 UV-I 613 W/m 11,4 C 24,9 C 14,5 km/h (3 Bft) 96,00 %
05.07.2019 11:08 24,9 C 25,0 C 37,2 C 38 % 1015,1 hPa 0,0 l/m 7,4 km/h (2 Bft) NW 313 2 min 0,000 mm 5,2 UV-I 613 W/m 9,6 C 24,6 C 16,1 km/h (3 Bft) 95,74 %
05.07.2019 11:10 24,9 C 25,0 C 36,7 C 38 % 1015,1 hPa 0,0 l/m 4,1 km/h (1 Bft) S-SW 207 2 min 0,000 mm 4,5 UV-I 607 W/m 9,6 C 24,9 C 6,4 km/h (2 Bft) 97,87 %
05.07.2019 11:12 24,9 C 25,0 C 36,7 C 38 % 1015,1 hPa 0,0 l/m 9,6 km/h (2 Bft) W 275 2 min 0,000 mm 4,5 UV-I 606 W/m 9,6 C 24,1 C 16,1 km/h (3 Bft) 95,74 %
05.07.2019 11:14 24,8 C 25,0 C 36,1 C 39 % 1015,2 hPa 0,0 l/m 4,4 km/h (1 Bft) W-NW 294 2 min 0,000 mm 4,5 UV-I 603 W/m 9,9 C 24,8 C 14,5 km/h (3 Bft) 94,44 %
05.07.2019 11:16 24,9 C 25,0 C 36,7 C 42 % 1015,2 hPa 0,0 l/m 4,6 km/h (1 Bft) SW 230 2 min 0,000 mm 4,7 UV-I 602 W/m 11,1 C 24,9 C 11,3 km/h (2 Bft) 98,00 %
05.07.2019 11:18 25,1 C 25,0 C 37,2 C 39 % 1015,1 hPa 0,0 l/m 10,5 km/h (2 Bft) W 264 2 min 0,000 mm 5,2 UV-I 896 W/m 10,2 C 24,2 C 16,1 km/h (3 Bft) 98,00 %
05.07.2019 11:20 25,2 C 25,0 C 37,8 C 38 % 1015,1 hPa 0,0 l/m 8,1 km/h (2 Bft) W 271 2 min 0,000 mm 5,2 UV-I 875 W/m 9,9 C 24,8 C 14,5 km/h (3 Bft) 97,87 %
05.07.2019 11:22 25,3 C 25,0 C 37,8 C 38 % 1015,1 hPa 0,0 l/m 12,4 km/h (3 Bft) W-SW 245 2 min 0,000 mm 5,2 UV-I 874 W/m 9,9 C 24,1 C 19,3 km/h (3 Bft) 98,00 %
05.07.2019 11:24 25,3 C 25,0 C 37,8 C 36 % 1015,1 hPa 0,0 l/m 7,6 km/h (2 Bft) N 9 2 min 0,000 mm 5,3 UV-I 889 W/m 9,1 C 25,0 C 17,7 km/h (3 Bft) 97,14 %
05.07.2019 11:26 25,3 C 25,0 C 38,3 C 36 % 1015,1 hPa 0,0 l/m 7,4 km/h (2 Bft) N-NW 346 2 min 0,000 mm 5,2 UV-I 900 W/m 9,1 C 25,1 C 12,9 km/h (3 Bft) 98,11 %
05.07.2019 11:28 25,4 C 25,0 C 39,4 C 39 % 1015,1 hPa 0,0 l/m 4,7 km/h (1 Bft) SO 136 2 min 0,000 mm 5,5 UV-I 959 W/m 10,4 C 25,4 C 12,9 km/h (3 Bft) 93,62 %
05.07.2019 11:30 25,7 C 25,0 C 40,6 C 38 % 1015,1 hPa 0,0 l/m 3,2 km/h (1 Bft) O-NO 76 2 min 0,000 mm 5,6 UV-I 990 W/m 10,3 C 25,7 C 11,3 km/h (2 Bft) 96,00 %
05.07.2019 11:32 25,9 C 25,6 C 40,6 C 38 % 1015,1 hPa 0,0 l/m 8,4 km/h (2 Bft) W 277 2 min 0,000 mm 5,7 UV-I 976 W/m 10,5 C 25,5 C 16,1 km/h (3 Bft) 93,62 %
05.07.2019 11:34 25,9 C 25,0 C 40,6 C 38 % 1015,1 hPa 0,0 l/m 4,5 km/h (1 Bft) W-SW 255 2 min 0,000 mm 5,8 UV-I 987 W/m 10,5 C 25,9 C 9,7 km/h (2 Bft) 93,62 %
05.07.2019 11:36 26,0 C 25,0 C 38,3 C 37 % 1015,1 hPa 0,0 l/m 8,6 km/h (2 Bft) W 276 2 min 0,000 mm 4,3 UV-I 1006 W/m 10,2 C 25,5 C 17,7 km/h (3 Bft) 97,87 %
05.07.2019 11:38 25,7 C 25,0 C 35,6 C 37 % 1015,1 hPa 0,0 l/m 8,6 km/h (2 Bft) N-NW 344 2 min 0,000 mm 3,7 UV-I 506 W/m 9,9 C 25,2 C 17,7 km/h (3 Bft) 94,00 %
05.07.2019 11:40 25,4 C 25,6 C 35,6 C 39 % 1015,0 hPa 0,0 l/m 5,3 km/h (1 Bft) W-NW 292 2 min 0,000 mm 4,7 UV-I 517 W/m 10,4 C 25,4 C 9,7 km/h (2 Bft) 94,74 %
05.07.2019 11:42 25,6 C 25,6 C 37,2 C 40 % 1015,0 hPa 0,0 l/m 5,5 km/h (1 Bft) NW 317 2 min 0,000 mm 5,4 UV-I 651 W/m 11,0 C 25,6 C 16,1 km/h (3 Bft) 95,74 %
05.07.2019 11:44 25,9 C 25,6 C 38,9 C 40 % 1015,0 hPa 0,0 l/m 6,6 km/h (2 Bft) W 267 2 min 0,000 mm 5,9 UV-I 1177 W/m 11,3 C 25,9 C 16,1 km/h (3 Bft) 96,00 %
05.07.2019 11:46 26,3 C 25,6 C 41,7 C 39 % 1015,0 hPa 0,0 l/m 4,8 km/h (1 Bft) NO 53 2 min 0,000 mm 6,0 UV-I 1013 W/m 11,2 C 26,3 C 11,3 km/h (2 Bft) 93,62 %
05.07.2019 11:48 26,7 C 25,6 C 42,8 C 40 % 1015,0 hPa 0,0 l/m 7,9 km/h (2 Bft) W-SW 241 2 min 0,000 mm 6,4 UV-I 855 W/m 12,0 C 26,4 C 14,5 km/h (3 Bft) 95,83 %
05.07.2019 11:50 26,7 C 25,6 C 41,7 C 38 % 1015,0 hPa 0,0 l/m 8,9 km/h (2 Bft) W-NW 284 2 min 0,000 mm 6,5 UV-I 857 W/m 11,2 C 26,2 C 17,7 km/h (3 Bft) 93,62 %
05.07.2019 11:52 26,8 C 25,6 C 42,8 C 39 % 1014,9 hPa 0,0 l/m 4,8 km/h (1 Bft) NW 304 2 min 0,000 mm 6,4 UV-I 859 W/m 11,7 C 26,8 C 12,9 km/h (3 Bft) 94,29 %
05.07.2019 11:54 26,7 C 25,6 C 41,7 C 36 % 1014,9 hPa 0,0 l/m 10,4 km/h (2 Bft) W-NW 284 2 min 0,000 mm 5,4 UV-I 860 W/m 10,4 C 26,0 C 17,7 km/h (3 Bft) 93,55 %
05.07.2019 11:56 26,3 C 25,6 C 40,6 C 37 % 1014,8 hPa 0,0 l/m 6,4 km/h (2 Bft) N 11 2 min 0,000 mm 5,2 UV-I 848 W/m 10,4 C 26,3 C 14,5 km/h (3 Bft) 95,74 %
05.07.2019 11:58 26,1 C 25,6 C 38,3 C 36 % 1014,8 hPa 0,0 l/m 4,9 km/h (1 Bft) W-NW 283 2 min 0,000 mm 5,2 UV-I 703 W/m 9,8 C 26,1 C 11,3 km/h (2 Bft) 95,74 %
05.07.2019 12:00 26,2 C 25,6 C 37,8 C 37 % 1014,8 hPa 0,0 l/m 9,4 km/h (2 Bft) NW 309 2 min 0,000 mm 5,1 UV-I 682 W/m 10,3 C 25,6 C 16,1 km/h (3 Bft) 95,74 %
05.07.2019 12:02 26,2 C 25,6 C 37,8 C 36 % 1014,8 hPa 0,0 l/m 6,5 km/h (2 Bft) NW 307 2 min 0,635 mm 5,3 UV-I 840 W/m 9,9 C 26,2 C 17,7 km/h (3 Bft) 97,87 %
05.07.2019 12:04 26,2 C 25,6 C 37,8 C 40 % 1014,8 hPa 0,0 l/m 5,2 km/h (1 Bft) W-SW 254 2 min 0,000 mm 5,1 UV-I 798 W/m 11,5 C 26,2 C 12,9 km/h (3 Bft) 95,74 %
05.07.2019 12:06 26,3 C 25,6 C 37,8 C 38 % 1014,8 hPa 0,0 l/m 5,9 km/h (2 Bft) N-NO 31 2 min 0,000 mm 5,1 UV-I 794 W/m 10,8 C 26,3 C 12,9 km/h (3 Bft) 94,74 %
05.07.2019 12:08 26,3 C 25,6 C 36,7 C 37 % 1014,8 hPa 0,0 l/m 5,1 km/h (1 Bft) N 355 2 min 0,000 mm 4,5 UV-I 636 W/m 10,4 C 26,3 C 14,5 km/h (3 Bft) 95,74 %
05.07.2019 12:10 26,1 C 25,6 C 35,6 C 37 % 1014,8 hPa 0,0 l/m 7,0 km/h (2 Bft) W-NW 300 2 min 0,000 mm 4,3 UV-I 584 W/m 10,3 C 26,0 C 14,5 km/h (3 Bft) 96,00 %
05.07.2019 12:12 25,9 C 25,6 C 35,0 C 40 % 1014,8 hPa 0,0 l/m 6,0 km/h (2 Bft) NW 315 2 min 0,000 mm 4,7 UV-I 666 W/m 11,3 C 25,9 C 16,1 km/h (3 Bft) 97,87 %
05.07.2019 12:14 25,9 C 25,6 C 35,6 C 38 % 1014,8 hPa 0,0 l/m 4,9 km/h (1 Bft) N-NW 342 2 min 0,000 mm 4,9 UV-I 696 W/m 10,5 C 25,9 C 9,7 km/h (2 Bft) 97,87 %
05.07.2019 12:16 25,9 C 25,6 C 35,0 C 41 % 1014,7 hPa 0,0 l/m 5,9 km/h (2 Bft) N-NW 333 2 min 0,000 mm 4,5 UV-I 674 W/m 11,6 C 25,9 C 9,7 km/h (2 Bft) 97,87 %
05.07.2019 12:18 25,9 C 25,6 C 35,0 C 38 % 1014,7 hPa 0,0 l/m 4,8 km/h (1 Bft) W 259 2 min 0,000 mm 4,3 UV-I 682 W/m 10,5 C 25,9 C 11,3 km/h (2 Bft) 97,87 %
05.07.2019 12:20 25,8 C 25,6 C 33,9 C 38 % 1014,7 hPa 0,0 l/m 7,0 km/h (2 Bft) W 280 2 min 0,000 mm 3,8 UV-I 515 W/m 10,4 C 25,7 C 14,5 km/h (3 Bft) 95,74 %
05.07.2019 12:22 25,9 C 25,6 C 34,4 C 37 % 1014,6 hPa 0,0 l/m 9,9 km/h (2 Bft) W 268 2 min 0,000 mm 4,9 UV-I 571 W/m 10,1 C 25,2 C 17,7 km/h (3 Bft) 95,74 %
05.07.2019 12:24 26,0 C 25,6 C 35,6 C 38 % 1014,6 hPa 0,0 l/m 7,6 km/h (2 Bft) W 279 2 min 0,000 mm 5,4 UV-I 694 W/m 10,6 C 25,7 C 14,5 km/h (3 Bft) 98,00 %
05.07.2019 12:26 26,2 C 25,6 C 37,2 C 40 % 1014,6 hPa 0,0 l/m 3,9 km/h (1 Bft) W-SW 250 2 min 0,000 mm 5,7 UV-I 694 W/m 11,5 C 26,2 C 8,0 km/h (2 Bft) 97,87 %
05.07.2019 12:28 26,3 C 25,6 C 37,2 C 37 % 1014,6 hPa 0,0 l/m 7,6 km/h (2 Bft) W-NW 298 2 min 0,000 mm 6,0 UV-I 746 W/m 10,4 C 26,0 C 16,1 km/h (3 Bft) 95,74 %
05.07.2019 12:30 26,4 C 25,6 C 39,4 C 41 % 1014,6 hPa 0,0 l/m 7,9 km/h (2 Bft) N-NO 33 2 min 0,000 mm 6,6 UV-I 1033 W/m 12,1 C 26,1 C 17,7 km/h (3 Bft) 97,92 %
05.07.2019 12:32 26,7 C 25,6 C 40,0 C 37 % 1014,6 hPa 0,0 l/m 9,1 km/h (2 Bft) N-NO 28 2 min 0,000 mm 6,8 UV-I 1167 W/m 10,8 C 26,2 C 16,1 km/h (3 Bft) 95,74 %
05.07.2019 12:34 26,8 C 25,6 C 39,4 C 39 % 1014,6 hPa 0,0 l/m 5,3 km/h (1 Bft) N-NW 340 2 min 0,000 mm 5,5 UV-I 1136 W/m 11,7 C 26,8 C 12,9 km/h (3 Bft) 97,87 %
05.07.2019 12:36 26,8 C 25,6 C 38,9 C 36 % 1014,6 hPa 0,0 l/m 10,0 km/h (2 Bft) NW 315 2 min 0,000 mm 5,6 UV-I 866 W/m 10,5 C 26,2 C 19,3 km/h (3 Bft) 97,37 %
05.07.2019 12:38 26,6 C 25,6 C 36,7 C 38 % 1014,6 hPa 0,0 l/m 10,9 km/h (2 Bft) N 360 2 min 0,000 mm 4,5 UV-I 689 W/m 11,1 C 25,8 C 22,5 km/h (4 Bft) 98,00 %
05.07.2019 12:40 26,2 C 25,6 C 35,0 C 39 % 1014,6 hPa 0,0 l/m 10,8 km/h (2 Bft) N-NW 348 2 min 0,000 mm 5,0 UV-I 563 W/m 11,1 C 25,4 C 22,5 km/h (4 Bft) 95,74 %
05.07.2019 12:42 26,0 C 25,6 C 35,0 C 37 % 1014,6 hPa 0,0 l/m 3,9 km/h (1 Bft) NW 323 2 min 0,000 mm 5,5 UV-I 533 W/m 10,2 C 26,0 C 8,0 km/h (2 Bft) 95,74 %
05.07.2019 12:44 25,8 C 25,6 C 34,4 C 38 % 1014,5 hPa 0,0 l/m 5,0 km/h (1 Bft) N-NO 17 2 min 0,000 mm 4,2 UV-I 502 W/m 10,4 C 25,8 C 8,0 km/h (2 Bft) 100,00 %
05.07.2019 12:46 25,8 C 25,6 C 36,1 C 41 % 1014,5 hPa 0,0 l/m 5,3 km/h (1 Bft) W 263 2 min 0,000 mm 5,7 UV-I 514 W/m 11,5 C 25,8 C 11,3 km/h (2 Bft) 97,87 %
05.07.2019 12:48 26,1 C 25,6 C 35,6 C 40 % 1014,5 hPa 0,0 l/m 7,8 km/h (2 Bft) NO 34 2 min 0,000 mm 4,8 UV-I 575 W/m 11,4 C 25,8 C 16,1 km/h (3 Bft) 97,87 %
05.07.2019 12:50 26,1 C 25,6 C 33,9 C 39 % 1014,5 hPa 0,0 l/m 11,1 km/h (2 Bft) N 11 2 min 0,000 mm 4,4 UV-I 532 W/m 11,0 C 25,2 C 17,7 km/h (3 Bft) 95,74 %
05.07.2019 12:52 25,9 C 25,6 C 35,0 C 41 % 1014,5 hPa 0,0 l/m 9,3 km/h (2 Bft) W-NW 302 2 min 0,000 mm 5,1 UV-I 645 W/m 11,6 C 25,3 C 16,1 km/h (3 Bft) 97,87 %
05.07.2019 12:54 25,8 C 25,6 C 36,1 C 37 % 1014,5 hPa 0,0 l/m 6,4 km/h (2 Bft) NW 325 2 min 0,000 mm 5,6 UV-I 1053 W/m 10,0 C 25,8 C 16,1 km/h (3 Bft) 98,00 %
05.07.2019 12:56 25,9 C 25,6 C 35,6 C 38 % 1014,4 hPa 0,0 l/m 14,8 km/h (3 Bft) NO 36 2 min 0,000 mm 5,2 UV-I 1053 W/m 10,5 C 24,4 C 20,9 km/h (4 Bft) 97,87 %
05.07.2019 12:58 25,9 C 25,6 C 36,7 C 38 % 1014,3 hPa 0,0 l/m 12,8 km/h (3 Bft) N-NO 22 2 min 0,000 mm 6,4 UV-I 1076 W/m 10,5 C 24,7 C 19,3 km/h (3 Bft) 95,74 %
05.07.2019 13:00 26,2 C 25,6 C 37,8 C 39 % 1014,4 hPa 0,0 l/m 12,4 km/h (3 Bft) N-NW 338 2 min 0,559 mm 6,2 UV-I 1175 W/m 11,1 C 25,1 C 17,7 km/h (3 Bft) 97,87 %
05.07.2019 13:02 26,4 C 25,6 C 38,3 C 39 % 1014,3 hPa 0,0 l/m 12,6 km/h (3 Bft) N-NO 29 2 min 0,000 mm 6,3 UV-I 1214 W/m 11,3 C 25,3 C 19,3 km/h (3 Bft) 95,74 %
05.07.2019 13:04 26,4 C 25,6 C 35,6 C 40 % 1014,3 hPa 0,0 l/m 9,3 km/h (2 Bft) N-NW 340 2 min 0,000 mm 4,8 UV-I 892 W/m 11,7 C 25,8 C 14,5 km/h (3 Bft) 95,83 %
05.07.2019 13:06 26,4 C 25,6 C 36,7 C 41 % 1014,3 hPa 0,0 l/m 6,7 km/h (2 Bft) N 355 2 min 0,000 mm 5,6 UV-I 892 W/m 12,1 C 26,3 C 17,7 km/h (3 Bft) 95,16 %
05.07.2019 13:08 26,4 C 25,6 C 36,7 C 38 % 1014,3 hPa 0,0 l/m 9,6 km/h (2 Bft) N 355 2 min 0,000 mm 5,6 UV-I 860 W/m 10,9 C 25,8 C 16,1 km/h (3 Bft) 100,00 %
05.07.2019 13:10 26,4 C 25,6 C 37,2 C 39 % 1014,3 hPa 0,0 l/m 10,1 km/h (2 Bft) O-NO 71 2 min 0,000 mm 6,0 UV-I 1044 W/m 11,3 C 25,7 C 17,7 km/h (3 Bft) 97,87 %
05.07.2019 13:12 26,4 C 25,6 C 36,7 C 39 % 1014,3 hPa 0,0 l/m 11,7 km/h (2 Bft) W 279 2 min 0,000 mm 5,4 UV-I 723 W/m 11,3 C 25,4 C 17,7 km/h (3 Bft) 96,00 %
05.07.2019 13:14 26,4 C 25,6 C 37,8 C 39 % 1014,2 hPa 0,0 l/m 8,3 km/h (2 Bft) N 355 2 min 0,000 mm 6,4 UV-I 952 W/m 11,3 C 26,0 C 12,9 km/h (3 Bft) 100,00 %
05.07.2019 13:16 26,4 C 25,6 C 37,8 C 38 % 1014,1 hPa 0,0 l/m 11,1 km/h (2 Bft) N 355 2 min 0,000 mm 6,2 UV-I 903 W/m 10,9 C 25,5 C 16,1 km/h (3 Bft) 100,00 %
05.07.2019 13:18 26,4 C 25,6 C 36,7 C 38 % 1014,2 hPa 0,0 l/m 8,5 km/h (2 Bft) NW 309 2 min 0,000 mm 5,0 UV-I 881 W/m 10,9 C 26,0 C 16,1 km/h (3 Bft) 100,00 %
05.07.2019 13:20 26,3 C 25,6 C 34,4 C 38 % 1014,2 hPa 0,0 l/m 6,6 km/h (2 Bft) N 9 2 min 0,000 mm 4,7 UV-I 839 W/m 10,8 C 26,3 C 16,1 km/h (3 Bft) 100,00 %
05.07.2019 13:22 26,2 C 25,6 C 35,6 C 38 % 1014,2 hPa 0,0 l/m 5,1 km/h (1 Bft) NW 307 2 min 0,000 mm 5,3 UV-I 490 W/m 10,7 C 26,2 C 9,7 km/h (2 Bft) 97,87 %
05.07.2019 13:24 26,3 C 25,6 C 37,2 C 38 % 1014,3 hPa 0,0 l/m 6,0 km/h (2 Bft) NW 321 2 min 0,000 mm 6,2 UV-I 684 W/m 10,8 C 26,3 C 11,3 km/h (2 Bft) 100,00 %
05.07.2019 13:26 26,5 C 25,6 C 37,8 C 39 % 1014,3 hPa 0,0 l/m 11,7 km/h (2 Bft) NW 312 2 min 0,000 mm 6,3 UV-I 985 W/m 11,4 C 25,6 C 19,3 km/h (3 Bft) 96,00 %
05.07.2019 13:28 26,4 C 25,6 C 38,3 C 39 % 1014,2 hPa 0,0 l/m 9,9 km/h (2 Bft) W-NW 293 2 min 0,000 mm 6,6 UV-I 998 W/m 11,3 C 25,7 C 17,7 km/h (3 Bft) 98,00 %
05.07.2019 13:30 26,6 C 25,6 C 39,4 C 38 % 1014,2 hPa 0,0 l/m 8,2 km/h (2 Bft) W-NW 302 2 min 0,000 mm 6,6 UV-I 987 W/m 11,1 C 26,2 C 17,7 km/h (3 Bft) 98,00 %
05.07.2019 13:32 26,6 C 25,6 C 40,0 C 37 % 1014,2 hPa 0,0 l/m 7,6 km/h (2 Bft) W-NW 283 2 min 0,000 mm 6,7 UV-I 1030 W/m 10,7 C 26,4 C 12,9 km/h (3 Bft) 93,62 %
05.07.2019 13:34 26,4 C 25,6 C 40,0 C 37 % 1014,1 hPa 0,0 l/m 6,4 km/h (2 Bft) W-NW 303 2 min 0,000 mm 6,0 UV-I 1046 W/m 10,5 C 26,4 C 12,9 km/h (3 Bft) 95,74 %
05.07.2019 13:36 26,4 C 25,6 C 39,4 C 39 % 1014,1 hPa 0,0 l/m 6,0 km/h (2 Bft) N-NW 343 2 min 0,000 mm 5,4 UV-I 784 W/m 11,3 C 26,4 C 9,7 km/h (2 Bft) 93,62 %
05.07.2019 13:38 26,6 C 25,6 C 39,4 C 40 % 1014,1 hPa 0,0 l/m 4,5 km/h (1 Bft) W-NW 296 2 min 0,000 mm 5,7 UV-I 819 W/m 11,9 C 26,6 C 8,0 km/h (2 Bft) 97,87 %
05.07.2019 13:40 26,7 C 25,6 C 40,0 C 40 % 1014,1 hPa 0,0 l/m 4,4 km/h (1 Bft) W 270 2 min 0,000 mm 6,2 UV-I 932 W/m 12,0 C 26,7 C 6,4 km/h (2 Bft) 97,22 %
05.07.2019 13:42 26,8 C 26,1 C 40,6 C 41 % 1014,0 hPa 0,0 l/m 5,2 km/h (1 Bft) N-NW 327 2 min 0,000 mm 6,2 UV-I 940 W/m 12,4 C 26,8 C 12,9 km/h (3 Bft) 97,87 %
05.07.2019 13:44 26,8 C 26,1 C 40,0 C 39 % 1013,9 hPa 0,0 l/m 8,5 km/h (2 Bft) NW 317 2 min 0,000 mm 6,2 UV-I 943 W/m 11,7 C 26,4 C 12,9 km/h (3 Bft) 96,00 %
05.07.2019 13:46 26,9 C 26,1 C 40,0 C 40 % 1014,0 hPa 0,0 l/m 6,5 km/h (2 Bft) W 260 2 min 0,000 mm 6,2 UV-I 939 W/m 12,1 C 26,9 C 14,5 km/h (3 Bft) 97,87 %
05.07.2019 13:48 27,0 C 26,1 C 40,6 C 39 % 1014,0 hPa 0,0 l/m 11,2 km/h (2 Bft) N-NW 344 2 min 0,000 mm 6,1 UV-I 932 W/m 11,8 C 26,2 C 16,1 km/h (3 Bft) 98,00 %
05.07.2019 13:50 27,1 C 26,1 C 40,0 C 39 % 1013,9 hPa 0,0 l/m 9,3 km/h (2 Bft) N 360 2 min 0,000 mm 6,1 UV-I 931 W/m 11,9 C 26,6 C 20,9 km/h (4 Bft) 98,00 %
05.07.2019 13:52 27,2 C 26,1 C 40,0 C 37 % 1013,9 hPa 0,0 l/m 7,4 km/h (2 Bft) W 273 2 min 0,000 mm 6,0 UV-I 929 W/m 11,2 C 27,0 C 17,7 km/h (3 Bft) 93,62 %
05.07.2019 13:54 27,3 C 26,1 C 40,0 C 38 % 1014,1 hPa 0,0 l/m 8,5 km/h (2 Bft) W-SW 258 2 min 0,000 mm 6,1 UV-I 922 W/m 11,7 C 26,9 C 16,1 km/h (3 Bft) 97,87 %
05.07.2019 13:56 27,3 C 26,1 C 40,0 C 36 % 1014,1 hPa 0,0 l/m 13,9 km/h (3 Bft) SW 236 2 min 0,000 mm 6,2 UV-I 939 W/m 10,9 C 26,2 C 19,3 km/h (3 Bft) 97,87 %
05.07.2019 13:58 27,3 C 26,1 C 40,6 C 38 % 1014,0 hPa 0,0 l/m 5,8 km/h (2 Bft) W 273 2 min 0,000 mm 6,0 UV-I 933 W/m 11,7 C 27,3 C 16,1 km/h (3 Bft) 97,87 %
05.07.2019 14:00 27,3 C 26,1 C 40,6 C 38 % 1014,0 hPa 0,0 l/m 7,7 km/h (2 Bft) O-NO 63 2 min 0,000 mm 6,1 UV-I 882 W/m 11,7 C 27,1 C 16,1 km/h (3 Bft) 94,74 %
05.07.2019 14:02 27,4 C 26,1 C 40,0 C 38 % 1014,0 hPa 0,0 l/m 9,9 km/h (2 Bft) N-NW 347 2 min 0,660 mm 6,0 UV-I 868 W/m 11,8 C 26,8 C 20,9 km/h (4 Bft) 100,00 %
05.07.2019 14:04 27,3 C 26,1 C 39,4 C 39 % 1013,9 hPa 0,0 l/m 8,1 km/h (2 Bft) W-NW 296 2 min 0,000 mm 5,5 UV-I 873 W/m 12,1 C 27,0 C 14,5 km/h (3 Bft) 100,00 %
05.07.2019 14:06 27,4 C 26,1 C 38,9 C 39 % 1014,0 hPa 0,0 l/m 9,0 km/h (2 Bft) NW 320 2 min 0,000 mm 5,3 UV-I 765 W/m 12,2 C 27,0 C 17,7 km/h (3 Bft) 100,00 %
05.07.2019 14:08 27,3 C 26,1 C 37,8 C 40 % 1014,1 hPa 0,0 l/m 10,4 km/h (2 Bft) N-NW 339 2 min 0,000 mm 5,3 UV-I 749 W/m 12,5 C 26,6 C 19,3 km/h (3 Bft) 100,00 %
05.07.2019 14:10 27,1 C 26,1 C 37,8 C 38 % 1014,0 hPa 0,0 l/m 7,4 km/h (2 Bft) W-SW 247 2 min 0,000 mm 5,4 UV-I 788 W/m 11,5 C 26,9 C 16,1 km/h (3 Bft) 100,00 %
05.07.2019 14:12 27,2 C 26,1 C 37,8 C 38 % 1013,9 hPa 0,0 l/m 9,4 km/h (2 Bft) W 259 2 min 0,000 mm 5,6 UV-I 783 W/m 11,6 C 26,7 C 19,3 km/h (3 Bft) 97,87 %
05.07.2019 14:14 27,5 C 26,1 C 37,8 C 43 % 1013,9 hPa 0,0 l/m 8,9 km/h (2 Bft) N-NW 338 2 min 0,000 mm 5,1 UV-I 851 W/m 13,8 C 27,1 C 17,7 km/h (3 Bft) 100,00 %
05.07.2019 14:16 27,3 C 26,1 C 36,7 C 39 % 1014,0 hPa 0,0 l/m 8,0 km/h (2 Bft) N-NW 343 2 min 0,000 mm 4,5 UV-I 582 W/m 12,1 C 27,0 C 14,5 km/h (3 Bft) 97,87 %
05.07.2019 14:18 27,2 C 26,1 C 36,1 C 42 % 1014,0 hPa 0,0 l/m 6,7 km/h (2 Bft) N 5 2 min 0,000 mm 4,5 UV-I 597 W/m 13,2 C 27,1 C 11,3 km/h (2 Bft) 100,00 %
05.07.2019 14:20 27,2 C 26,1 C 36,1 C 41 % 1014,0 hPa 0,0 l/m 11,9 km/h (2 Bft) N-NO 28 2 min 0,000 mm 5,0 UV-I 669 W/m 12,8 C 26,3 C 24,1 km/h (4 Bft) 97,87 %
05.07.2019 14:22 27,1 C 26,1 C 34,4 C 40 % 1014,0 hPa 0,0 l/m 13,8 km/h (3 Bft) N-NW 337 2 min 0,000 mm 4,2 UV-I 581 W/m 12,3 C 26,0 C 22,5 km/h (4 Bft) 100,00 %
05.07.2019 14:24 26,8 C 26,1 C 33,3 C 40 % 1014,0 hPa 0,0 l/m 6,9 km/h (2 Bft) NW 318 0 min 0,000 mm 3,8 UV-I 449 W/m 12,1 C 26,7 C 16,1 km/h (3 Bft) 95,74 %
05.07.2019 14:26 26,8 C 26,1 C 33,3 C 42 % 1014,0 hPa 0,0 l/m 7,9 km/h (2 Bft) W 277 0 min 0,000 mm 3,6 UV-I 436 W/m 12,8 C 26,5 C 17,7 km/h (3 Bft) 97,92 %
05.07.2019 14:28 26,7 C 26,1 C 32,2 C 40 % 1013,9 hPa 0,0 l/m 5,0 km/h (1 Bft) NW 305 0 min 0,000 mm 3,5 UV-I 409 W/m 12,0 C 26,7 C 14,5 km/h (3 Bft) 95,74 %
05.07.2019 14:30 26,6 C 26,1 C 31,7 C 40 % 1013,9 hPa 0,0 l/m 5,5 km/h (1 Bft) NW 315 0 min 0,000 mm 3,6 UV-I 417 W/m 11,9 C 26,6 C 12,9 km/h (3 Bft) 97,87 %
05.07.2019 14:32 26,7 C 26,1 C 33,3 C 41 % 1013,9 hPa 0,0 l/m 4,9 km/h (1 Bft) N 5 2 min 0,000 mm 4,2 UV-I 514 W/m 12,3 C 26,7 C 8,0 km/h (2 Bft) 97,37 %
05.07.2019 14:34 26,9 C 26,1 C 33,9 C 41 % 1014,0 hPa 0,0 l/m 5,1 km/h (1 Bft) NW 322 2 min 0,000 mm 4,4 UV-I 629 W/m 12,5 C 26,9 C 12,9 km/h (3 Bft) 97,87 %
05.07.2019 14:36 26,9 C 26,1 C 35,0 C 40 % 1013,9 hPa 0,0 l/m 7,1 km/h (2 Bft) N 355 2 min 0,000 mm 4,3 UV-I 659 W/m 12,1 C 26,8 C 24,1 km/h (4 Bft) 98,00 %
05.07.2019 14:38 27,0 C 26,1 C 35,6 C 41 % 1013,8 hPa 0,0 l/m 12,3 km/h (3 Bft) NW 304 2 min 0,000 mm 5,0 UV-I 710 W/m 12,6 C 26,1 C 22,5 km/h (4 Bft) 97,87 %
05.07.2019 14:40 27,4 C 26,1 C 37,8 C 40 % 1013,9 hPa 0,0 l/m 7,6 km/h (2 Bft) W 275 2 min 0,000 mm 5,5 UV-I 698 W/m 12,6 C 27,2 C 14,5 km/h (3 Bft) 97,87 %
05.07.2019 14:42 27,9 C 26,1 C 38,9 C 39 % 1013,8 hPa 0,0 l/m 11,8 km/h (2 Bft) W-SW 250 2 min 0,000 mm 5,8 UV-I 862 W/m 12,6 C 27,1 C 27,4 km/h (4 Bft) 97,87 %
05.07.2019 14:44 28,1 C 26,1 C 40,0 C 38 % 1013,9 hPa 0,0 l/m 8,9 km/h (2 Bft) NW 305 2 min 0,000 mm 5,6 UV-I 1063 W/m 12,4 C 27,7 C 20,9 km/h (4 Bft) 98,00 %
05.07.2019 14:46 28,2 C 26,1 C 40,0 C 37 % 1013,9 hPa 0,0 l/m 6,2 km/h (2 Bft) O-NO 62 2 min 0,000 mm 4,8 UV-I 1063 W/m 12,1 C 28,2 C 12,9 km/h (3 Bft) 95,74 %
05.07.2019 14:48 28,1 C 26,1 C 38,9 C 37 % 1013,9 hPa 0,0 l/m 7,9 km/h (2 Bft) S-SW 209 2 min 0,000 mm 5,7 UV-I 1004 W/m 12,0 C 27,9 C 12,9 km/h (3 Bft) 95,74 %
05.07.2019 14:50 27,8 C 26,1 C 37,8 C 39 % 1013,9 hPa 0,0 l/m 7,6 km/h (2 Bft) W-NW 292 2 min 0,000 mm 4,2 UV-I 586 W/m 12,6 C 27,6 C 19,3 km/h (3 Bft) 97,87 %
05.07.2019 14:52 27,7 C 26,1 C 37,2 C 38 % 1014,0 hPa 0,0 l/m 6,5 km/h (2 Bft) W-SW 257 2 min 0,000 mm 4,0 UV-I 571 W/m 12,1 C 27,7 C 12,9 km/h (3 Bft) 94,74 %
05.07.2019 14:54 27,7 C 26,1 C 36,7 C 40 % 1013,9 hPa 0,0 l/m 7,1 km/h (2 Bft) W-NW 282 2 min 0,000 mm 3,7 UV-I 536 W/m 12,9 C 27,6 C 16,1 km/h (3 Bft) 95,74 %
05.07.2019 14:56 27,4 C 26,1 C 34,4 C 38 % 1014,0 hPa 0,0 l/m 13,0 km/h (3 Bft) W 279 2 min 0,000 mm 3,2 UV-I 463 W/m 11,8 C 26,4 C 24,1 km/h (4 Bft) 100,00 %
05.07.2019 14:58 27,1 C 26,1 C 33,3 C 39 % 1013,9 hPa 0,0 l/m 10,6 km/h (2 Bft) W 277 0 min 0,000 mm 3,0 UV-I 436 W/m 11,9 C 26,4 C 14,5 km/h (3 Bft) 100,00 %
05.07.2019 15:00 26,8 C 26,1 C 32,8 C 39 % 1014,0 hPa 0,0 l/m 9,8 km/h (2 Bft) W 265 0 min 0,000 mm 2,9 UV-I 424 W/m 11,7 C 26,2 C 17,7 km/h (3 Bft) 100,00 %
05.07.2019 15:02 26,7 C 26,1 C 32,2 C 39 % 1014,0 hPa 0,0 l/m 12,9 km/h (3 Bft) W 281 0 min 0,508 mm 2,9 UV-I 435 W/m 11,6 C 25,6 C 19,3 km/h (3 Bft) 100,00 %
05.07.2019 15:04 26,7 C 26,1 C 32,2 C 41 % 1014,0 hPa 0,0 l/m 3,2 km/h (1 Bft) N-NO 26 2 min 0,000 mm 2,9 UV-I 447 W/m 12,3 C 26,7 C 6,4 km/h (2 Bft) 100,00 %
05.07.2019 15:06 26,7 C 26,1 C 32,2 C 42 % 1014,0 hPa 0,0 l/m 4,8 km/h (1 Bft) W 264 2 min 0,000 mm 3,0 UV-I 466 W/m 12,7 C 26,7 C 11,3 km/h (2 Bft) 100,00 %
05.07.2019 15:08 26,7 C 26,1 C 32,2 C 40 % 1014,0 hPa 0,0 l/m 7,2 km/h (2 Bft) W-SW 244 2 min 0,000 mm 3,0 UV-I 480 W/m 12,0 C 26,5 C 12,9 km/h (3 Bft) 100,00 %
05.07.2019 15:10 26,8 C 26,1 C 32,2 C 40 % 1014,0 hPa 0,0 l/m 6,9 km/h (2 Bft) W-SW 249 2 min 0,000 mm 3,1 UV-I 485 W/m 12,1 C 26,7 C 12,9 km/h (3 Bft) 98,00 %
05.07.2019 15:12 26,7 C 26,1 C 32,8 C 40 % 1014,0 hPa 0,0 l/m 8,2 km/h (2 Bft) W-NW 284 2 min 0,000 mm 3,3 UV-I 512 W/m 12,0 C 26,3 C 14,5 km/h (3 Bft) 97,87 %
05.07.2019 15:14 26,8 C 26,1 C 33,3 C 40 % 1013,9 hPa 0,0 l/m 5,1 km/h (1 Bft) SW 225 2 min 0,000 mm 3,3 UV-I 522 W/m 12,1 C 26,8 C 12,9 km/h (3 Bft) 97,87 %
05.07.2019 15:16 26,9 C 26,1 C 32,8 C 40 % 1014,0 hPa 0,0 l/m 8,9 km/h (2 Bft) W 267 2 min 0,000 mm 3,3 UV-I 501 W/m 12,1 C 26,4 C 14,5 km/h (3 Bft) 94,00 %
05.07.2019 15:18 26,8 C 26,1 C 32,8 C 39 % 1014,0 hPa 0,0 l/m 9,5 km/h (2 Bft) N-NW 333 2 min 0,000 mm 3,1 UV-I 470 W/m 11,7 C 26,2 C 17,7 km/h (3 Bft) 95,74 %
05.07.2019 15:20 26,6 C 26,1 C 31,7 C 40 % 1014,0 hPa 0,0 l/m 10,5 km/h (2 Bft) W-NW 284 0 min 0,000 mm 2,9 UV-I 427 W/m 11,9 C 25,9 C 17,7 km/h (3 Bft) 95,74 %
05.07.2019 15:22 26,6 C 26,1 C 31,1 C 41 % 1014,0 hPa 0,0 l/m 6,6 km/h (2 Bft) W-NW 286 0 min 0,000 mm 2,8 UV-I 420 W/m 12,2 C 26,6 C 12,9 km/h (3 Bft) 98,00 %
05.07.2019 15:24 26,5 C 26,1 C 31,1 C 40 % 1014,0 hPa 0,0 l/m 6,4 km/h (2 Bft) W 278 0 min 0,000 mm 2,7 UV-I 401 W/m 11,8 C 26,5 C 16,1 km/h (3 Bft) 88,57 %
05.07.2019 15:26 26,5 C 26,1 C 30,6 C 41 % 1014,0 hPa 0,0 l/m 5,5 km/h (1 Bft) W-SW 255 0 min 0,000 mm 2,4 UV-I 372 W/m 12,2 C 26,5 C 11,3 km/h (2 Bft) 96,08 %
05.07.2019 15:28 26,5 C 26,1 C 30,6 C 40 % 1014,0 hPa 0,0 l/m 4,3 km/h (1 Bft) W-NW 285 0 min 0,000 mm 2,4 UV-I 369 W/m 11,8 C 26,5 C 12,9 km/h (3 Bft) 93,62 %
05.07.2019 15:30 26,4 C 26,1 C 30,6 C 41 % 1014,0 hPa 0,0 l/m 8,2 km/h (2 Bft) W 272 0 min 0,000 mm 2,4 UV-I 363 W/m 12,1 C 26,0 C 14,5 km/h (3 Bft) 94,00 %
05.07.2019 15:32 26,4 C 26,1 C 30,6 C 41 % 1014,0 hPa 0,0 l/m 9,4 km/h (2 Bft) W 270 0 min 0,000 mm 2,4 UV-I 364 W/m 12,1 C 25,8 C 19,3 km/h (3 Bft) 95,74 %
05.07.2019 15:34 26,4 C 26,1 C 30,6 C 41 % 1014,0 hPa 0,0 l/m 9,0 km/h (2 Bft) W 275 0 min 0,000 mm 2,5 UV-I 371 W/m 12,1 C 25,9 C 16,1 km/h (3 Bft) 94,00 %
05.07.2019 15:36 26,4 C 26,1 C 30,0 C 40 % 1014,0 hPa 0,0 l/m 11,8 km/h (2 Bft) W 278 0 min 0,000 mm 2,6 UV-I 385 W/m 11,7 C 25,4 C 19,3 km/h (3 Bft) 93,62 %
05.07.2019 15:38 26,3 C 26,1 C 30,0 C 42 % 1014,0 hPa 0,0 l/m 5,7 km/h (1 Bft) N-NW 334 0 min 0,000 mm 2,5 UV-I 385 W/m 12,3 C 26,3 C 12,9 km/h (3 Bft) 93,62 %
05.07.2019 15:40 26,3 C 26,1 C 30,6 C 43 % 1014,0 hPa 0,0 l/m 3,0 km/h (1 Bft) NW 309 0 min 0,000 mm 2,5 UV-I 381 W/m 12,7 C 26,3 C 6,4 km/h (2 Bft) 94,44 %
05.07.2019 15:42 26,3 C 26,1 C 30,6 C 44 % 1014,0 hPa 0,0 l/m 5,6 km/h (1 Bft) NW 315 0 min 0,000 mm 2,4 UV-I 375 W/m 13,1 C 26,3 C 14,5 km/h (3 Bft) 94,00 %
05.07.2019 15:44 26,2 C 26,1 C 30,0 C 42 % 1013,9 hPa 0,0 l/m 7,8 km/h (2 Bft) W-SW 250 0 min 0,000 mm 2,3 UV-I 359 W/m 12,3 C 25,9 C 14,5 km/h (3 Bft) 96,23 %
05.07.2019 15:46 26,1 C 26,1 C 30,0 C 41 % 1013,9 hPa 0,0 l/m 10,1 km/h (2 Bft) NW 323 0 min 0,000 mm 2,2 UV-I 342 W/m 11,8 C 25,4 C 17,7 km/h (3 Bft) 93,62 %
05.07.2019 15:48 26,1 C 26,1 C 29,4 C 42 % 1013,9 hPa 0,0 l/m 8,7 km/h (2 Bft) W-NW 296 0 min 0,000 mm 2,0 UV-I 321 W/m 12,2 C 25,6 C 17,7 km/h (3 Bft) 95,74 %
05.07.2019 15:50 26,1 C 26,1 C 29,4 C 42 % 1013,9 hPa 0,0 l/m 5,6 km/h (1 Bft) W 271 0 min 0,000 mm 1,9 UV-I 304 W/m 12,2 C 26,1 C 12,9 km/h (3 Bft) 91,49 %
05.07.2019 15:52 26,2 C 26,1 C 29,4 C 43 % 1013,9 hPa 0,0 l/m 4,0 km/h (1 Bft) W-NW 287 0 min 0,000 mm 1,8 UV-I 288 W/m 12,6 C 26,2 C 6,4 km/h (2 Bft) 94,74 %
05.07.2019 15:54 26,1 C 26,1 C 28,9 C 42 % 1013,9 hPa 0,0 l/m 4,2 km/h (1 Bft) SW 229 0 min 0,000 mm 1,6 UV-I 259 W/m 12,2 C 26,1 C 8,0 km/h (2 Bft) 94,00 %
05.07.2019 15:56 26,1 C 26,1 C 28,3 C 42 % 1013,9 hPa 0,0 l/m 6,0 km/h (2 Bft) N-NW 343 0 min 0,000 mm 1,4 UV-I 227 W/m 12,2 C 26,1 C 14,5 km/h (3 Bft) 97,87 %
05.07.2019 15:58 25,9 C 26,1 C 28,3 C 43 % 1013,9 hPa 0,0 l/m 3,5 km/h (1 Bft) NW 311 0 min 0,000 mm 1,2 UV-I 196 W/m 12,3 C 25,9 C 4,8 km/h (1 Bft) 96,00 %
05.07.2019 16:00 25,7 C 26,1 C 27,2 C 43 % 1013,9 hPa 0,0 l/m 6,2 km/h (2 Bft) N 350 0 min 0,305 mm 1,1 UV-I 177 W/m 12,2 C 25,7 C 11,3 km/h (2 Bft) 95,74 %
05.07.2019 16:02 25,7 C 26,1 C 27,2 C 44 % 1013,9 hPa 0,0 l/m 5,7 km/h (1 Bft) W-NW 300 0 min 0,000 mm 1,0 UV-I 170 W/m 12,5 C 25,7 C 9,7 km/h (2 Bft) 97,87 %
05.07.2019 16:04 25,6 C 26,1 C 27,2 C 43 % 1013,9 hPa 0,0 l/m 3,1 km/h (1 Bft) W 275 0 min 0,000 mm 1,0 UV-I 172 W/m 12,1 C 25,6 C 6,4 km/h (2 Bft) 93,62 %
05.07.2019 16:06 25,7 C 26,1 C 27,2 C 45 % 1013,9 hPa 0,0 l/m 3,7 km/h (1 Bft) SW 234 0 min 0,000 mm 1,1 UV-I 178 W/m 12,9 C 25,7 C 6,4 km/h (2 Bft) 95,74 %
05.07.2019 16:08 25,7 C 26,1 C 27,2 C 44 % 1013,9 hPa 0,0 l/m 3,6 km/h (1 Bft) NW 310 0 min 0,000 mm 1,2 UV-I 199 W/m 12,5 C 25,7 C 8,0 km/h (2 Bft) 98,00 %
05.07.2019 16:10 25,6 C 26,1 C 27,2 C 44 % 1013,9 hPa 0,0 l/m 4,5 km/h (1 Bft) W-SW 244 0 min 0,000 mm 1,3 UV-I 225 W/m 12,4 C 25,6 C 12,9 km/h (3 Bft) 95,74 %
05.07.2019 16:12 25,7 C 26,1 C 27,8 C 43 % 1013,9 hPa 0,0 l/m 4,9 km/h (1 Bft) W-NW 287 0 min 0,000 mm 1,4 UV-I 239 W/m 12,2 C 25,7 C 11,3 km/h (2 Bft) 94,74 %
05.07.2019 16:14 25,6 C 26,1 C 27,8 C 46 % 1013,9 hPa 0,0 l/m 5,4 km/h (1 Bft) NW 308 0 min 0,000 mm 1,5 UV-I 246 W/m 13,1 C 25,6 C 12,9 km/h (3 Bft) 96,00 %
05.07.2019 16:16 25,6 C 26,1 C 27,8 C 44 % 1013,9 hPa 0,0 l/m 4,2 km/h (1 Bft) W-SW 251 0 min 0,000 mm 1,5 UV-I 247 W/m 12,4 C 25,6 C 8,0 km/h (2 Bft) 93,62 %
05.07.2019 16:18 25,6 C 26,1 C 27,8 C 44 % 1013,9 hPa 0,0 l/m 3,3 km/h (1 Bft) N-NW 329 0 min 0,000 mm 1,4 UV-I 242 W/m 12,4 C 25,6 C 6,4 km/h (2 Bft) 93,75 %
05.07.2019 16:20 25,7 C 26,1 C 28,3 C 44 % 1013,8 hPa 0,0 l/m 2,8 km/h (1 Bft) W-NW 301 0 min 0,000 mm 1,4 UV-I 233 W/m 12,5 C 25,7 C 6,4 km/h (2 Bft) 95,74 %
05.07.2019 16:22 25,7 C 26,1 C 28,3 C 45 % 1013,9 hPa 0,0 l/m 2,9 km/h (1 Bft) W-NW 302 0 min 0,000 mm 1,3 UV-I 217 W/m 12,9 C 25,7 C 4,8 km/h (1 Bft) 95,74 %
05.07.2019 16:24 25,6 C 26,1 C 27,8 C 45 % 1013,8 hPa 0,0 l/m 4,9 km/h (1 Bft) NW 319 0 min 0,000 mm 1,2 UV-I 203 W/m 12,8 C 25,6 C 12,9 km/h (3 Bft) 97,87 %
05.07.2019 16:26 25,4 C 26,1 C 27,2 C 44 % 1013,9 hPa 0,0 l/m 4,8 km/h (1 Bft) W 259 0 min 0,000 mm 1,1 UV-I 189 W/m 12,2 C 25,4 C 12,9 km/h (3 Bft) 98,00 %
05.07.2019 16:28 25,4 C 26,1 C 27,2 C 46 % 1013,9 hPa 0,0 l/m 2,5 km/h (1 Bft) W 280 0 min 0,000 mm 1,0 UV-I 185 W/m 12,9 C 25,4 C 6,4 km/h (2 Bft) 97,37 %
05.07.2019 16:30 25,4 C 26,1 C 27,2 C 44 % 1013,9 hPa 0,0 l/m 5,6 km/h (1 Bft) W 272 0 min 0,000 mm 1,2 UV-I 205 W/m 12,2 C 25,4 C 12,9 km/h (3 Bft) 100,00 %
05.07.2019 16:32 25,4 C 26,1 C 27,2 C 44 % 1013,9 hPa 0,0 l/m 4,2 km/h (1 Bft) W 261 0 min 0,000 mm 1,3 UV-I 235 W/m 12,2 C 25,4 C 12,9 km/h (3 Bft) 100,00 %
05.07.2019 16:34 25,4 C 26,1 C 27,8 C 44 % 1013,9 hPa 0,0 l/m 4,8 km/h (1 Bft) W-NW 292 0 min 0,000 mm 1,5 UV-I 269 W/m 12,2 C 25,4 C 11,3 km/h (2 Bft) 100,00 %
05.07.2019 16:36 25,6 C 26,1 C 28,3 C 45 % 1013,9 hPa 0,0 l/m 3,5 km/h (1 Bft) NW 307 0 min 0,000 mm 1,6 UV-I 294 W/m 12,8 C 25,6 C 6,4 km/h (2 Bft) 95,74 %
05.07.2019 16:38 25,5 C 26,1 C 28,3 C 45 % 1013,8 hPa 0,0 l/m 4,7 km/h (1 Bft) N-NW 337 0 min 0,000 mm 1,7 UV-I 302 W/m 12,7 C 25,5 C 12,9 km/h (3 Bft) 100,00 %
05.07.2019 16:40 25,6 C 26,1 C 28,3 C 47 % 1013,7 hPa 0,0 l/m 5,0 km/h (1 Bft) W 279 0 min 0,000 mm 1,6 UV-I 286 W/m 13,4 C 25,6 C 9,7 km/h (2 Bft) 100,00 %
05.07.2019 16:42 25,5 C 26,1 C 28,3 C 47 % 1013,8 hPa 0,0 l/m 2,8 km/h (1 Bft) NW 309 0 min 0,000 mm 1,5 UV-I 260 W/m 13,3 C 25,5 C 6,4 km/h (2 Bft) 100,00 %
05.07.2019 16:44 25,5 C 26,1 C 28,3 C 46 % 1013,8 hPa 0,0 l/m 3,3 km/h (1 Bft) W 261 0 min 0,000 mm 1,4 UV-I 249 W/m 13,0 C 25,5 C 11,3 km/h (2 Bft) 100,00 %
05.07.2019 16:46 25,5 C 26,1 C 27,8 C 44 % 1013,9 hPa 0,0 l/m 6,9 km/h (2 Bft) N-NW 333 0 min 0,000 mm 1,3 UV-I 245 W/m 12,3 C 25,4 C 12,9 km/h (3 Bft) 100,00 %
05.07.2019 16:48 25,4 C 26,1 C 27,8 C 46 % 1013,9 hPa 0,0 l/m 3,9 km/h (1 Bft) W-NW 292 0 min 0,000 mm 1,3 UV-I 244 W/m 12,9 C 25,4 C 9,7 km/h (2 Bft) 97,87 %
05.07.2019 16:50 25,4 C 26,1 C 27,8 C 45 % 1013,9 hPa 0,0 l/m 8,2 km/h (2 Bft) N-NO 13 0 min 0,000 mm 1,3 UV-I 247 W/m 12,6 C 25,0 C 20,9 km/h (4 Bft) 100,00 %
05.07.2019 16:52 25,4 C 26,1 C 27,8 C 47 % 1013,9 hPa 0,0 l/m 2,6 km/h (1 Bft) N-NO 19 0 min 0,000 mm 1,3 UV-I 250 W/m 13,3 C 25,4 C 8,0 km/h (2 Bft) 100,00 %
05.07.2019 16:54 25,4 C 26,1 C 28,3 C 47 % 1013,9 hPa 0,0 l/m 4,1 km/h (1 Bft) N 355 0 min 0,000 mm 1,4 UV-I 264 W/m 13,3 C 25,4 C 8,0 km/h (2 Bft) 100,00 %
05.07.2019 16:56 25,4 C 26,1 C 28,3 C 47 % 1013,9 hPa 0,0 l/m 3,9 km/h (1 Bft) W 273 0 min 0,000 mm 1,4 UV-I 282 W/m 13,3 C 25,4 C 8,0 km/h (2 Bft) 97,87 %
05.07.2019 16:58 25,4 C 26,1 C 28,9 C 47 % 1013,9 hPa 0,0 l/m 4,5 km/h (1 Bft) W 267 0 min 0,000 mm 1,5 UV-I 291 W/m 13,3 C 25,4 C 11,3 km/h (2 Bft) 98,00 %
05.07.2019 17:00 25,5 C 26,1 C 28,9 C 45 % 1013,9 hPa 0,0 l/m 5,7 km/h (1 Bft) N 350 0 min 0,203 mm 1,5 UV-I 289 W/m 12,7 C 25,5 C 12,9 km/h (3 Bft) 100,00 %
05.07.2019 17:02 25,5 C 26,1 C 28,3 C 46 % 1013,9 hPa 0,0 l/m 5,6 km/h (1 Bft) W-NW 290 0 min 0,000 mm 1,4 UV-I 266 W/m 13,0 C 25,5 C 12,9 km/h (3 Bft) 97,14 %
05.07.2019 17:04 25,4 C 26,1 C 28,3 C 45 % 1013,9 hPa 0,0 l/m 4,0 km/h (1 Bft) N-NW 340 0 min 0,000 mm 1,3 UV-I 246 W/m 12,6 C 25,4 C 6,4 km/h (2 Bft) 100,00 %
05.07.2019 17:06 25,4 C 26,1 C 27,8 C 46 % 1013,9 hPa 0,0 l/m 4,3 km/h (1 Bft) NW 326 0 min 0,000 mm 1,3 UV-I 234 W/m 12,9 C 25,4 C 9,7 km/h (2 Bft) 100,00 %
05.07.2019 17:08 25,3 C 26,1 C 27,8 C 46 % 1014,0 hPa 0,0 l/m 5,5 km/h (1 Bft) W-NW 303 0 min 0,000 mm 1,2 UV-I 223 W/m 12,8 C 25,3 C 12,9 km/h (3 Bft) 100,00 %
05.07.2019 17:10 25,2 C 26,1 C 27,2 C 45 % 1014,0 hPa 0,0 l/m 7,0 km/h (2 Bft) W-NW 302 0 min 0,000 mm 1,2 UV-I 218 W/m 12,4 C 25,1 C 16,1 km/h (3 Bft) 100,00 %
05.07.2019 17:12 25,3 C 26,1 C 27,2 C 46 % 1014,0 hPa 0,0 l/m 4,9 km/h (1 Bft) W 281 0 min 0,000 mm 1,2 UV-I 215 W/m 12,8 C 25,3 C 9,7 km/h (2 Bft) 100,00 %
05.07.2019 17:14 25,2 C 26,1 C 27,2 C 47 % 1013,9 hPa 0,0 l/m 2,3 km/h (1 Bft) NW 321 0 min 0,000 mm 1,1 UV-I 211 W/m 13,1 C 25,2 C 4,8 km/h (1 Bft) 100,00 %
05.07.2019 17:16 25,2 C 26,1 C 27,2 C 46 % 1014,0 hPa 0,0 l/m 2,4 km/h (1 Bft) N 5 0 min 0,000 mm 1,1 UV-I 207 W/m 12,7 C 25,2 C 6,4 km/h (2 Bft) 100,00 %
05.07.2019 17:18 25,2 C 26,1 C 27,2 C 45 % 1014,0 hPa 0,0 l/m 3,2 km/h (1 Bft) W-NW 301 0 min 0,000 mm 1,1 UV-I 209 W/m 12,4 C 25,2 C 8,0 km/h (2 Bft) 95,74 %
05.07.2019 17:20 25,2 C 26,1 C 27,2 C 47 % 1014,0 hPa 0,0 l/m 3,1 km/h (1 Bft) W 259 0 min 0,000 mm 1,1 UV-I 209 W/m 13,1 C 25,2 C 9,7 km/h (2 Bft) 97,87 %
05.07.2019 17:22 25,1 C 26,1 C 27,2 C 45 % 1014,0 hPa 0,0 l/m 4,8 km/h (1 Bft) NO 34 0 min 0,000 mm 1,0 UV-I 207 W/m 12,3 C 25,1 C 11,3 km/h (2 Bft) 97,87 %
05.07.2019 17:24 25,1 C 26,1 C 27,2 C 46 % 1014,0 hPa 0,0 l/m 3,6 km/h (1 Bft) N-NW 329 0 min 0,000 mm 1,0 UV-I 202 W/m 12,7 C 25,1 C 9,7 km/h (2 Bft) 97,14 %
05.07.2019 17:26 25,1 C 26,1 C 27,2 C 45 % 1014,0 hPa 0,0 l/m 6,4 km/h (2 Bft) NW 304 0 min 0,000 mm 1,0 UV-I 199 W/m 12,3 C 25,1 C 14,5 km/h (3 Bft) 97,87 %
05.07.2019 17:28 25,1 C 26,1 C 26,7 C 45 % 1014,0 hPa 0,0 l/m 6,8 km/h (2 Bft) N-NO 12 0 min 0,000 mm 0,9 UV-I 198 W/m 12,3 C 25,0 C 12,9 km/h (3 Bft) 97,92 %
05.07.2019 17:30 25,1 C 26,1 C 26,7 C 45 % 1014,0 hPa 0,0 l/m 3,9 km/h (1 Bft) W-NW 292 0 min 0,000 mm 0,9 UV-I 195 W/m 12,3 C 25,1 C 9,7 km/h (2 Bft) 97,87 %
05.07.2019 17:32 25,0 C 26,1 C 26,7 C 45 % 1014,0 hPa 0,0 l/m 9,4 km/h (2 Bft) N 355 0 min 0,000 mm 0,9 UV-I 195 W/m 12,2 C 24,3 C 16,1 km/h (3 Bft) 96,23 %
05.07.2019 17:34 25,0 C 26,1 C 26,7 C 44 % 1014,0 hPa 0,0 l/m 8,5 km/h (2 Bft) NO 46 0 min 0,000 mm 0,9 UV-I 200 W/m 11,9 C 24,5 C 16,1 km/h (3 Bft) 95,74 %
05.07.2019 17:36 24,9 C 26,1 C 26,7 C 45 % 1013,9 hPa 0,0 l/m 5,2 km/h (1 Bft) NO 45 0 min 0,000 mm 0,9 UV-I 201 W/m 12,1 C 24,9 C 9,7 km/h (2 Bft) 100,00 %
05.07.2019 17:39 24,8 C 26,1 C 26,7 C 46 % 1013,9 hPa 0,0 l/m 1,9 km/h (1 Bft) NO 49 0 min 0,000 mm 0,8 UV-I 192 W/m 12,4 C 24,8 C 4,8 km/h (1 Bft) 94,29 %
05.07.2019 17:40 24,8 C 26,1 C 26,7 C 47 % 1013,9 hPa 0,0 l/m 1,8 km/h (1 Bft) W-NW 298 0 min 0,000 mm 0,8 UV-I 184 W/m 12,7 C 24,8 C 4,8 km/h (1 Bft) 91,67 %
05.07.2019 17:42 24,8 C 26,1 C 26,7 C 46 % 1013,8 hPa 0,0 l/m 2,2 km/h (1 Bft) N-NW 330 0 min 0,000 mm 0,8 UV-I 181 W/m 12,4 C 24,8 C 4,8 km/h (1 Bft) 93,62 %
05.07.2019 17:44 24,9 C 26,1 C 26,7 C 46 % 1013,8 hPa 0,0 l/m 3,9 km/h (1 Bft) NW 323 0 min 0,000 mm 0,8 UV-I 182 W/m 12,5 C 24,9 C 9,7 km/h (2 Bft) 93,62 %
05.07.2019 17:46 24,9 C 26,1 C 26,7 C 45 % 1013,7 hPa 0,0 l/m 5,3 km/h (1 Bft) N-NW 327 0 min 0,000 mm 0,8 UV-I 185 W/m 12,1 C 24,9 C 12,9 km/h (3 Bft) 93,62 %
05.07.2019 17:48 24,8 C 26,1 C 26,7 C 47 % 1013,8 hPa 0,0 l/m 5,1 km/h (1 Bft) N 10 0 min 0,000 mm 0,8 UV-I 189 W/m 12,7 C 24,8 C 11,3 km/h (2 Bft) 95,74 %
05.07.2019 17:50 24,8 C 26,1 C 26,7 C 47 % 1013,8 hPa 0,0 l/m 4,2 km/h (1 Bft) SW 219 0 min 0,000 mm 0,8 UV-I 195 W/m 12,7 C 24,8 C 12,9 km/h (3 Bft) 97,87 %
05.07.2019 17:52 24,8 C 26,1 C 26,7 C 45 % 1013,8 hPa 0,0 l/m 3,9 km/h (1 Bft) N-NW 327 0 min 0,000 mm 0,9 UV-I 210 W/m 12,0 C 24,8 C 11,3 km/h (2 Bft) 95,74 %
05.07.2019 17:54 24,8 C 26,1 C 26,7 C 47 % 1013,7 hPa 0,0 l/m 2,3 km/h (1 Bft) N-NW 329 0 min 0,000 mm 0,9 UV-I 228 W/m 12,7 C 24,8 C 4,8 km/h (1 Bft) 97,87 %
05.07.2019 17:56 24,8 C 26,1 C 27,2 C 46 % 1013,7 hPa 0,0 l/m 2,6 km/h (1 Bft) N-NO 23 0 min 0,000 mm 0,9 UV-I 220 W/m 12,4 C 24,8 C 4,8 km/h (1 Bft) 97,87 %
05.07.2019 17:58 24,8 C 26,1 C 26,7 C 45 % 1013,7 hPa 0,0 l/m 4,0 km/h (1 Bft) W 273 0 min 0,000 mm 0,9 UV-I 204 W/m 12,0 C 24,8 C 6,4 km/h (2 Bft) 97,37 %
05.07.2019 18:00 24,8 C 26,1 C 26,7 C 45 % 1013,7 hPa 0,0 l/m 4,0 km/h (1 Bft) W-SW 250 0 min 0,000 mm 0,9 UV-I 192 W/m 12,0 C 24,8 C 11,3 km/h (2 Bft) 95,74 %
05.07.2019 18:02 24,9 C 26,1 C 26,7 C 45 % 1013,7 hPa 0,0 l/m 3,8 km/h (1 Bft) W-NW 294 0 min 0,178 mm 0,8 UV-I 180 W/m 12,1 C 24,9 C 6,4 km/h (2 Bft) 95,74 %
05.07.2019 18:04 24,9 C 26,1 C 26,7 C 43 % 1013,7 hPa 0,0 l/m 6,0 km/h (2 Bft) N-NW 338 0 min 0,000 mm 0,7 UV-I 167 W/m 11,4 C 24,9 C 12,9 km/h (3 Bft) 95,74 %
05.07.2019 18:06 24,9 C 26,1 C 26,1 C 44 % 1013,7 hPa 0,0 l/m 4,7 km/h (1 Bft) NW 323 0 min 0,000 mm 0,7 UV-I 164 W/m 11,8 C 24,9 C 8,0 km/h (2 Bft) 100,00 %
05.07.2019 18:08 24,9 C 26,1 C 26,1 C 44 % 1013,7 hPa 0,0 l/m 3,3 km/h (1 Bft) NW 309 0 min 0,000 mm 0,6 UV-I 169 W/m 11,8 C 24,9 C 4,8 km/h (1 Bft) 100,00 %
05.07.2019 18:10 24,9 C 26,1 C 26,7 C 45 % 1013,6 hPa 0,0 l/m 3,8 km/h (1 Bft) W-NW 294 0 min 0,000 mm 0,7 UV-I 189 W/m 12,1 C 24,9 C 8,0 km/h (2 Bft) 100,00 %
05.07.2019 18:12 24,9 C 26,1 C 26,7 C 44 % 1013,6 hPa 0,0 l/m 2,0 km/h (1 Bft) W-NW 291 0 min 0,000 mm 0,7 UV-I 198 W/m 11,8 C 24,9 C 4,8 km/h (1 Bft) 97,87 %
05.07.2019 18:14 24,9 C 26,1 C 26,7 C 43 % 1013,7 hPa 0,0 l/m 3,3 km/h (1 Bft) W-NW 295 0 min 0,000 mm 0,7 UV-I 203 W/m 11,4 C 24,9 C 11,3 km/h (2 Bft) 100,00 %
05.07.2019 18:16 24,8 C 26,1 C 26,7 C 44 % 1013,6 hPa 0,0 l/m 3,1 km/h (1 Bft) N-NO 15 0 min 0,000 mm 0,7 UV-I 209 W/m 11,7 C 24,8 C 6,4 km/h (2 Bft) 94,74 %
05.07.2019 18:19 24,7 C 26,1 C 26,7 C 46 % 1013,6 hPa 0,0 l/m 2,6 km/h (1 Bft) NW 319 0 min 0,000 mm 0,7 UV-I 217 W/m 12,3 C 24,7 C 9,7 km/h (2 Bft) 97,14 %
05.07.2019 18:20 24,7 C 26,1 C 26,7 C 44 % 1013,6 hPa 0,0 l/m 3,7 km/h (1 Bft) W-NW 282 0 min 0,000 mm 0,7 UV-I 220 W/m 11,6 C 24,7 C 6,4 km/h (2 Bft) 100,00 %
05.07.2019 18:22 24,7 C 26,1 C 26,7 C 44 % 1013,6 hPa 0,0 l/m 3,6 km/h (1 Bft) N-NW 329 0 min 0,000 mm 0,7 UV-I 218 W/m 11,6 C 24,7 C 9,7 km/h (2 Bft) 100,00 %
05.07.2019 18:24 24,7 C 26,1 C 26,7 C 42 % 1013,6 hPa 0,0 l/m 3,0 km/h (1 Bft) N 355 0 min 0,000 mm 0,7 UV-I 216 W/m 10,9 C 24,7 C 9,7 km/h (2 Bft) 100,00 %
05.07.2019 18:26 24,6 C 26,1 C 26,7 C 44 % 1013,6 hPa 0,0 l/m 2,4 km/h (1 Bft) W 274 2 min 0,000 mm 0,7 UV-I 221 W/m 11,5 C 24,6 C 6,4 km/h (2 Bft) 100,00 %
05.07.2019 18:28 24,6 C 26,1 C 26,7 C 44 % 1013,5 hPa 0,0 l/m 4,4 km/h (1 Bft) N 11 2 min 0,000 mm 0,7 UV-I 215 W/m 11,5 C 24,6 C 11,3 km/h (2 Bft) 100,00 %
05.07.2019 18:30 24,5 C 26,1 C 26,7 C 46 % 1013,5 hPa 0,0 l/m 3,9 km/h (1 Bft) N-NW 341 0 min 0,000 mm 0,7 UV-I 200 W/m 12,1 C 24,5 C 6,4 km/h (2 Bft) 95,74 %
05.07.2019 18:32 24,4 C 26,1 C 26,7 C 45 % 1013,5 hPa 0,0 l/m 2,2 km/h (1 Bft) N-NW 339 0 min 0,000 mm 0,7 UV-I 189 W/m 11,7 C 24,4 C 4,8 km/h (1 Bft) 100,00 %
05.07.2019 18:34 24,6 C 26,1 C 26,7 C 45 % 1013,4 hPa 0,0 l/m 1,4 km/h (1 Bft) NW 325 0 min 0,000 mm 0,7 UV-I 193 W/m 11,9 C 24,6 C 4,8 km/h (1 Bft) 100,00 %
05.07.2019 18:36 24,6 C 26,1 C 26,7 C 44 % 1013,5 hPa 0,0 l/m 4,0 km/h (1 Bft) N 355 0 min 0,000 mm 0,7 UV-I 200 W/m 11,5 C 24,6 C 9,7 km/h (2 Bft) 97,87 %
05.07.2019 18:38 24,5 C 26,1 C 27,2 C 44 % 1013,4 hPa 0,0 l/m 2,0 km/h (1 Bft) W-SW 250 2 min 0,000 mm 0,7 UV-I 215 W/m 11,4 C 24,5 C 3,2 km/h (1 Bft) 100,00 %
05.07.2019 18:40 24,4 C 26,1 C 27,2 C 44 % 1013,4 hPa 0,0 l/m 2,9 km/h (1 Bft) NW 304 2 min 0,000 mm 0,7 UV-I 199 W/m 11,3 C 24,4 C 6,4 km/h (2 Bft) 100,00 %
05.07.2019 18:42 24,6 C 26,1 C 27,8 C 45 % 1013,4 hPa 0,0 l/m 1,8 km/h (1 Bft) W-NW 300 0 min 0,000 mm 0,6 UV-I 182 W/m 11,9 C 24,6 C 3,2 km/h (1 Bft) 97,22 %
05.07.2019 18:44 24,7 C 26,1 C 28,9 C 43 % 1013,4 hPa 0,0 l/m 3,4 km/h (1 Bft) N-NW 328 2 min 0,000 mm 0,7 UV-I 243 W/m 11,3 C 24,7 C 6,4 km/h (2 Bft) 97,96 %
05.07.2019 18:46 24,8 C 26,1 C 30,6 C 44 % 1013,4 hPa 0,0 l/m 2,6 km/h (1 Bft) W-SW 243 2 min 0,000 mm 0,7 UV-I 301 W/m 11,7 C 24,8 C 4,8 km/h (1 Bft) 96,08 %
05.07.2019 18:49 24,9 C 26,1 C 28,3 C 42 % 1013,4 hPa 0,0 l/m 3,9 km/h (1 Bft) N-NW 340 0 min 0,000 mm 0,6 UV-I 180 W/m 11,1 C 24,9 C 11,3 km/h (2 Bft) 100,00 %
05.07.2019 18:50 24,9 C 26,1 C 28,3 C 44 % 1013,4 hPa 0,0 l/m 4,9 km/h (1 Bft) W-NW 296 0 min 0,000 mm 0,5 UV-I 141 W/m 11,8 C 24,9 C 6,4 km/h (2 Bft) 100,00 %
05.07.2019 18:52 24,8 C 26,1 C 27,8 C 43 % 1013,4 hPa 0,0 l/m 2,7 km/h (1 Bft) W 261 0 min 0,000 mm 0,5 UV-I 143 W/m 11,4 C 24,8 C 4,8 km/h (1 Bft) 97,87 %
05.07.2019 18:54 24,8 C 26,1 C 28,3 C 43 % 1013,3 hPa 0,0 l/m 2,4 km/h (1 Bft) W 262 0 min 0,000 mm 0,5 UV-I 165 W/m 11,4 C 24,8 C 4,8 km/h (1 Bft) 100,00 %
05.07.2019 18:56 24,8 C 26,1 C 31,1 C 43 % 1013,3 hPa 0,0 l/m 2,3 km/h (1 Bft) W 261 2 min 0,000 mm 0,6 UV-I 277 W/m 11,4 C 24,8 C 4,8 km/h (1 Bft) 100,00 %
05.07.2019 18:58 25,1 C 26,1 C 33,3 C 44 % 1013,4 hPa 0,0 l/m 2,4 km/h (1 Bft) W 261 2 min 0,000 mm 0,6 UV-I 383 W/m 12,0 C 25,1 C 4,8 km/h (1 Bft) 98,00 %
05.07.2019 19:00 25,3 C 26,1 C 35,0 C 43 % 1013,3 hPa 0,0 l/m 2,4 km/h (1 Bft) N-NW 333 2 min 0,000 mm 0,6 UV-I 371 W/m 11,8 C 25,3 C 4,8 km/h (1 Bft) 100,00 %
05.07.2019 19:02 25,5 C 26,1 C 34,4 C 42 % 1013,3 hPa 0,0 l/m 6,8 km/h (2 Bft) W-SW 252 2 min 0,178 mm 0,6 UV-I 367 W/m 11,6 C 25,4 C 11,3 km/h (2 Bft) 94,74 %
05.07.2019 19:04 25,5 C 26,1 C 32,8 C 41 % 1013,3 hPa 0,0 l/m 4,8 km/h (1 Bft) W-NW 299 2 min 0,000 mm 0,5 UV-I 183 W/m 11,3 C 25,5 C 6,4 km/h (2 Bft) 100,00 %
05.07.2019 19:06 25,3 C 26,1 C 30,6 C 40 % 1013,3 hPa 0,0 l/m 5,1 km/h (1 Bft) W-NW 302 0 min 0,000 mm 0,3 UV-I 144 W/m 10,7 C 25,3 C 11,3 km/h (2 Bft) 100,00 %
05.07.2019 19:08 25,1 C 26,1 C 29,4 C 41 % 1013,3 hPa 0,0 l/m 3,8 km/h (1 Bft) W 279 0 min 0,000 mm 0,0 UV-I 138 W/m 10,9 C 25,1 C 9,7 km/h (2 Bft) 98,00 %
05.07.2019 19:10 24,9 C 26,1 C 28,3 C 43 % 1013,2 hPa 0,0 l/m 4,5 km/h (1 Bft) W-NW 289 0 min 0,000 mm 0,0 UV-I 141 W/m 11,4 C 24,9 C 9,7 km/h (2 Bft) 97,87 %
05.07.2019 19:12 24,7 C 26,1 C 27,8 C 43 % 1013,2 hPa 0,0 l/m 3,9 km/h (1 Bft) NW 309 0 min 0,000 mm 0,0 UV-I 150 W/m 11,3 C 24,7 C 6,4 km/h (2 Bft) 97,56 %
05.07.2019 19:14 24,6 C 26,1 C 27,2 C 42 % 1013,2 hPa 0,0 l/m 4,9 km/h (1 Bft) NW 326 0 min 0,000 mm 0,0 UV-I 140 W/m 10,8 C 24,6 C 9,7 km/h (2 Bft) 96,00 %
05.07.2019 19:16 24,6 C 26,1 C 26,7 C 43 % 1013,2 hPa 0,0 l/m 3,3 km/h (1 Bft) NO 41 0 min 0,000 mm 0,0 UV-I 101 W/m 11,2 C 24,6 C 6,4 km/h (2 Bft) 93,62 %
05.07.2019 19:18 24,4 C 26,1 C 25,6 C 43 % 1013,3 hPa 0,0 l/m 4,4 km/h (1 Bft) SW 222 0 min 0,000 mm 0,0 UV-I 96 W/m 11,0 C 24,4 C 8,0 km/h (2 Bft) 93,62 %
05.07.2019 19:20 24,3 C 26,1 C 25,0 C 44 % 1013,2 hPa 0,0 l/m 3,4 km/h (1 Bft) W 280 0 min 0,000 mm 0,0 UV-I 91 W/m 11,3 C 24,3 C 9,7 km/h (2 Bft) 89,36 %
05.07.2019 19:22 24,3 C 26,1 C 25,0 C 44 % 1013,2 hPa 0,0 l/m 1,3 km/h (1 Bft) W-NW 283 0 min 0,000 mm 0,0 UV-I 88 W/m 11,3 C 24,3 C 3,2 km/h (1 Bft) 91,67 %
05.07.2019 19:24 24,1 C 26,1 C 24,4 C 45 % 1013,2 hPa 0,0 l/m 2,3 km/h (1 Bft) N-NW 348 0 min 0,000 mm 0,0 UV-I 85 W/m 11,4 C 24,1 C 3,2 km/h (1 Bft) 93,62 %
05.07.2019 19:26 23,9 C 26,1 C 24,4 C 47 % 1013,2 hPa 0,0 l/m 1,7 km/h (1 Bft) N-NO 30 0 min 0,000 mm 0,0 UV-I 83 W/m 11,9 C 23,9 C 3,2 km/h (1 Bft) 92,00 %
05.07.2019 19:28 23,8 C 26,1 C 23,9 C 47 % 1013,2 hPa 0,0 l/m 1,6 km/h (1 Bft) NW 317 0 min 0,000 mm 0,0 UV-I 84 W/m 11,8 C 23,8 C 3,2 km/h (1 Bft) 94,00 %
05.07.2019 19:30 23,8 C 26,1 C 23,9 C 47 % 1013,2 hPa 0,0 l/m 1,5 km/h (1 Bft) W-NW 286 0 min 0,000 mm 0,0 UV-I 77 W/m 11,8 C 23,8 C 3,2 km/h (1 Bft) 91,49 %
05.07.2019 19:32 23,8 C 26,1 C 23,9 C 46 % 1013,2 hPa 0,0 l/m 1,5 km/h (1 Bft) W-NW 285 0 min 0,000 mm 0,0 UV-I 72 W/m 11,5 C 23,8 C 3,2 km/h (1 Bft) 91,49 %
05.07.2019 19:34 23,8 C 26,1 C 23,9 C 47 % 1013,3 hPa 0,0 l/m 0,6 km/h (0 Bft) W-NW 286 0 min 0,000 mm 0,0 UV-I 72 W/m 11,8 C 23,8 C 1,6 km/h (1 Bft) 93,62 %
05.07.2019 19:36 23,7 C 26,1 C 23,9 C 48 % 1013,3 hPa 0,0 l/m 2,5 km/h (1 Bft) N 5 0 min 0,000 mm 0,0 UV-I 75 W/m 12,0 C 23,7 C 4,8 km/h (1 Bft) 93,62 %
05.07.2019 19:38 23,6 C 26,1 C 23,3 C 46 % 1013,2 hPa 0,0 l/m 5,0 km/h (1 Bft) N 11 0 min 0,000 mm 0,0 UV-I 74 W/m 11,3 C 23,6 C 8,0 km/h (2 Bft) 91,43 %
05.07.2019 19:40 23,5 C 26,1 C 23,3 C 46 % 1013,3 hPa 0,0 l/m 4,4 km/h (1 Bft) N-NW 336 0 min 0,000 mm 0,0 UV-I 75 W/m 11,2 C 23,5 C 8,0 km/h (2 Bft) 94,23 %
05.07.2019 19:42 23,4 C 26,1 C 23,3 C 46 % 1013,2 hPa 0,0 l/m 7,0 km/h (2 Bft) N 5 0 min 0,000 mm 0,0 UV-I 70 W/m 11,1 C 23,2 C 9,7 km/h (2 Bft) 97,87 %
05.07.2019 19:44 23,4 C 26,1 C 23,3 C 47 % 1013,2 hPa 0,0 l/m 6,5 km/h (2 Bft) N 11 0 min 0,000 mm 0,0 UV-I 70 W/m 11,4 C 23,4 C 8,0 km/h (2 Bft) 97,87 %
05.07.2019 19:46 23,4 C 26,1 C 23,3 C 47 % 1013,2 hPa 0,0 l/m 7,0 km/h (2 Bft) N-NO 20 0 min 0,000 mm 0,0 UV-I 70 W/m 11,4 C 23,2 C 11,3 km/h (2 Bft) 97,87 %
05.07.2019 19:48 23,3 C 26,1 C 23,3 C 47 % 1013,2 hPa 0,0 l/m 5,4 km/h (1 Bft) NW 326 0 min 0,000 mm 0,0 UV-I 69 W/m 11,3 C 23,3 C 8,0 km/h (2 Bft) 95,74 %
05.07.2019 19:50 23,2 C 26,1 C 23,3 C 47 % 1013,2 hPa 0,0 l/m 5,0 km/h (1 Bft) N 360 0 min 0,000 mm 0,0 UV-I 70 W/m 11,3 C 23,2 C 8,0 km/h (2 Bft) 97,87 %
05.07.2019 19:52 23,2 C 26,1 C 23,3 C 47 % 1013,2 hPa 0,0 l/m 3,7 km/h (1 Bft) N 5 0 min 0,000 mm 0,0 UV-I 72 W/m 11,3 C 23,2 C 6,4 km/h (2 Bft) 97,87 %
05.07.2019 19:54 23,1 C 26,1 C 23,3 C 48 % 1013,2 hPa 0,0 l/m 3,4 km/h (1 Bft) N-NO 18 0 min 0,000 mm 0,0 UV-I 69 W/m 11,5 C 23,1 C 4,8 km/h (1 Bft) 95,74 %
05.07.2019 19:56 23,1 C 26,1 C 23,3 C 48 % 1013,2 hPa 0,0 l/m 2,5 km/h (1 Bft) N-NO 18 0 min 0,000 mm 0,0 UV-I 69 W/m 11,5 C 23,1 C 4,8 km/h (1 Bft) 97,87 %
05.07.2019 19:58 23,1 C 26,1 C 22,8 C 47 % 1013,2 hPa 0,0 l/m 2,4 km/h (1 Bft) N-NW 327 0 min 0,000 mm 0,0 UV-I 68 W/m 11,2 C 23,1 C 4,8 km/h (1 Bft) 95,74 %
05.07.2019 20:00 23,1 C 26,1 C 22,8 C 48 % 1013,2 hPa 0,0 l/m 1,8 km/h (1 Bft) N-NW 328 0 min 0,000 mm 0,0 UV-I 58 W/m 11,5 C 23,1 C 3,2 km/h (1 Bft) 95,74 %
05.07.2019 20:02 23,0 C 26,1 C 22,8 C 49 % 1013,2 hPa 0,0 l/m 1,8 km/h (1 Bft) N-NW 328 0 min 0,102 mm 0,0 UV-I 53 W/m 11,7 C 23,0 C 3,2 km/h (1 Bft) 96,00 %
05.07.2019 20:04 23,0 C 26,1 C 22,8 C 47 % 1013,2 hPa 0,0 l/m 2,3 km/h (1 Bft) N-NO 15 0 min 0,000 mm 0,0 UV-I 49 W/m 11,1 C 23,0 C 4,8 km/h (1 Bft) 97,92 %
05.07.2019 20:06 23,0 C 26,1 C 22,2 C 47 % 1013,2 hPa 0,0 l/m 3,3 km/h (1 Bft) N 11 0 min 0,000 mm 0,0 UV-I 47 W/m 11,1 C 23,0 C 8,0 km/h (2 Bft) 97,87 %
05.07.2019 20:08 22,9 C 26,1 C 22,2 C 48 % 1013,2 hPa 0,0 l/m 2,8 km/h (1 Bft) N 9 0 min 0,000 mm 0,0 UV-I 49 W/m 11,3 C 22,9 C 4,8 km/h (1 Bft) 95,74 %
05.07.2019 20:10 22,9 C 26,1 C 22,2 C 49 % 1013,2 hPa 0,0 l/m 3,3 km/h (1 Bft) N-NW 343 0 min 0,000 mm 0,0 UV-I 53 W/m 11,6 C 22,9 C 4,8 km/h (1 Bft) 97,14 %
05.07.2019 20:12 22,8 C 26,1 C 22,2 C 48 % 1013,2 hPa 0,0 l/m 3,7 km/h (1 Bft) N-NO 23 0 min 0,000 mm 0,0 UV-I 53 W/m 11,2 C 22,8 C 4,8 km/h (1 Bft) 96,23 %
05.07.2019 20:14 22,8 C 26,1 C 22,2 C 47 % 1013,2 hPa 0,0 l/m 4,7 km/h (1 Bft) N 9 0 min 0,000 mm 0,0 UV-I 49 W/m 10,9 C 22,8 C 8,0 km/h (2 Bft) 97,87 %
05.07.2019 20:16 22,9 C 26,1 C 22,2 C 48 % 1013,2 hPa 0,0 l/m 4,1 km/h (1 Bft) N 5 0 min 0,000 mm 0,0 UV-I 46 W/m 11,3 C 22,9 C 6,4 km/h (2 Bft) 97,87 %
05.07.2019 20:18 22,8 C 26,1 C 22,2 C 48 % 1013,2 hPa 0,0 l/m 5,1 km/h (1 Bft) N 11 0 min 0,000 mm 0,0 UV-I 41 W/m 11,2 C 22,8 C 6,4 km/h (2 Bft) 97,87 %
05.07.2019 20:20 22,7 C 26,1 C 21,7 C 49 % 1013,2 hPa 0,0 l/m 4,6 km/h (1 Bft) N 355 0 min 0,000 mm 0,0 UV-I 38 W/m 11,4 C 22,7 C 6,4 km/h (2 Bft) 97,87 %
05.07.2019 20:22 22,7 C 26,1 C 21,7 C 50 % 1013,2 hPa 0,0 l/m 5,1 km/h (1 Bft) N 355 0 min 0,000 mm 0,0 UV-I 35 W/m 11,7 C 22,7 C 8,0 km/h (2 Bft) 97,87 %
05.07.2019 20:24 22,7 C 26,1 C 21,7 C 49 % 1013,2 hPa 0,0 l/m 4,2 km/h (1 Bft) N 355 0 min 0,000 mm 0,0 UV-I 34 W/m 11,4 C 22,7 C 6,4 km/h (2 Bft) 98,00 %
05.07.2019 20:26 22,7 C 26,1 C 21,1 C 51 % 1013,2 hPa 0,0 l/m 3,6 km/h (1 Bft) N 11 0 min 0,000 mm 0,0 UV-I 33 W/m 12,0 C 22,7 C 4,8 km/h (1 Bft) 97,87 %
05.07.2019 20:28 22,6 C 26,1 C 21,1 C 50 % 1013,2 hPa 0,0 l/m 3,5 km/h (1 Bft) N 11 0 min 0,000 mm 0,0 UV-I 31 W/m 11,6 C 22,6 C 4,8 km/h (1 Bft) 100,00 %
05.07.2019 20:30 22,5 C 26,1 C 21,1 C 50 % 1013,2 hPa 0,0 l/m 2,3 km/h (1 Bft) N 11 0 min 0,000 mm 0,0 UV-I 26 W/m 11,5 C 22,5 C 3,2 km/h (1 Bft) 100,00 %
05.07.2019 20:32 22,4 C 26,1 C 20,6 C 50 % 1013,2 hPa 0,0 l/m 2,1 km/h (1 Bft) N 11 0 min 0,000 mm 0,0 UV-I 25 W/m 11,5 C 22,4 C 4,8 km/h (1 Bft) 95,74 %
05.07.2019 20:34 22,4 C 26,1 C 20,0 C 50 % 1013,2 hPa 0,0 l/m 1,6 km/h (1 Bft) N 11 0 min 0,000 mm 0,0 UV-I 23 W/m 11,5 C 22,4 C 3,2 km/h (1 Bft) 100,00 %
05.07.2019 20:36 22,5 C 26,1 C 20,0 C 48 % 1013,1 hPa 0,0 l/m 1,2 km/h (1 Bft) N 11 0 min 0,000 mm 0,0 UV-I 19 W/m 10,9 C 22,5 C 3,2 km/h (1 Bft) 100,00 %
05.07.2019 20:38 22,6 C 26,1 C 19,4 C 48 % 1013,2 hPa 0,0 l/m 0,5 km/h (0 Bft) N 11 0 min 0,000 mm 0,0 UV-I 17 W/m 11,0 C 22,6 C 1,6 km/h (1 Bft) 100,00 %
05.07.2019 20:40 22,7 C 26,1 C 19,4 C 50 % 1013,1 hPa 0,0 l/m 0,6 km/h (0 Bft) N 11 0 min 0,000 mm 0,0 UV-I 18 W/m 11,7 C 22,7 C 1,6 km/h (1 Bft) 100,00 %
05.07.2019 20:42 22,3 C 26,1 C 18,9 C 54 % 1013,1 hPa 0,0 l/m 0,8 km/h (0 Bft) N 11 2 min 0,000 mm 0,0 UV-I 24 W/m 12,5 C 22,3 C 1,6 km/h (1 Bft) 100,00 %
05.07.2019 20:44 21,9 C 26,1 C 19,4 C 56 % 1013,1 hPa 0,0 l/m 0,1 km/h (0 Bft) N 11 2 min 0,000 mm 0,0 UV-I 21 W/m 12,7 C 21,9 C 1,6 km/h (1 Bft) 100,00 %
05.07.2019 20:46 21,6 C 26,1 C 19,4 C 58 % 1013,1 hPa 0,0 l/m 1,0 km/h (0 Bft) N 11 2 min 0,000 mm 0,0 UV-I 20 W/m 13,0 C 21,6 C 3,2 km/h (1 Bft) 97,87 %
05.07.2019 20:48 21,3 C 26,1 C 19,4 C 61 % 1013,1 hPa 0,0 l/m 1,2 km/h (1 Bft) N 11 2 min 0,000 mm 0,0 UV-I 19 W/m 13,5 C 21,3 C 1,6 km/h (1 Bft) 97,87 %
05.07.2019 20:50 21,1 C 26,1 C 19,4 C 59 % 1013,1 hPa 0,0 l/m 2,2 km/h (1 Bft) N 9 2 min 0,000 mm 0,0 UV-I 19 W/m 12,8 C 21,1 C 3,2 km/h (1 Bft) 97,87 %
05.07.2019 20:52 21,0 C 26,1 C 19,4 C 60 % 1013,1 hPa 0,0 l/m 2,9 km/h (1 Bft) N 9 2 min 0,000 mm 0,0 UV-I 19 W/m 12,9 C 21,0 C 3,2 km/h (1 Bft) 97,87 %
05.07.2019 20:54 20,9 C 26,1 C 20,0 C 60 % 1013,1 hPa 0,0 l/m 3,4 km/h (1 Bft) NO 53 0 min 0,000 mm 0,0 UV-I 16 W/m 12,8 C 20,9 C 4,8 km/h (1 Bft) 97,87 %
05.07.2019 20:56 20,9 C 26,1 C 20,0 C 62 % 1013,1 hPa 0,0 l/m 3,7 km/h (1 Bft) NO 53 0 min 0,000 mm 0,0 UV-I 14 W/m 13,3 C 20,9 C 4,8 km/h (1 Bft) 96,00 %
05.07.2019 20:58 20,9 C 26,1 C 20,0 C 60 % 1013,1 hPa 0,0 l/m 3,3 km/h (1 Bft) NO 53 0 min 0,000 mm 0,0 UV-I 11 W/m 12,8 C 20,9 C 4,8 km/h (1 Bft) 93,62 %
05.07.2019 21:00 20,9 C 26,1 C 20,0 C 59 % 1013,1 hPa 0,0 l/m 3,1 km/h (1 Bft) NO 53 0 min 0,000 mm 0,0 UV-I 11 W/m 12,6 C 20,9 C 4,8 km/h (1 Bft) 97,87 %
05.07.2019 21:02 21,1 C 26,1 C 20,0 C 59 % 1013,1 hPa 0,0 l/m 2,7 km/h (1 Bft) NO 53 0 min 0,050 mm 0,0 UV-I 9 W/m 12,8 C 21,1 C 3,2 km/h (1 Bft) 95,74 %
05.07.2019 21:04 21,1 C 26,1 C 20,0 C 59 % 1013,1 hPa 0,0 l/m 2,3 km/h (1 Bft) NO 53 0 min 0,000 mm 0,0 UV-I 9 W/m 12,8 C 21,1 C 3,2 km/h (1 Bft) 93,62 %
05.07.2019 21:06 21,1 C 26,1 C 20,0 C 59 % 1013,1 hPa 0,0 l/m 2,8 km/h (1 Bft) NO 53 0 min 0,000 mm 0,0 UV-I 7 W/m 12,8 C 21,1 C 3,2 km/h (1 Bft) 93,62 %
05.07.2019 21:08 21,0 C 26,1 C 20,0 C 59 % 1013,1 hPa 0,0 l/m 3,0 km/h (1 Bft) NO 53 0 min 0,000 mm 0,0 UV-I 7 W/m 12,7 C 21,0 C 3,2 km/h (1 Bft) 95,74 %
05.07.2019 21:10 21,1 C 26,1 C 20,0 C 59 % 1013,1 hPa 0,0 l/m 2,3 km/h (1 Bft) NO 53 0 min 0,000 mm 0,0 UV-I 7 W/m 12,8 C 21,1 C 3,2 km/h (1 Bft) 95,74 %
05.07.2019 21:12 21,1 C 26,1 C 20,0 C 57 % 1013,1 hPa 0,0 l/m 1,9 km/h (1 Bft) NO 53 0 min 0,000 mm 0,0 UV-I 7 W/m 12,2 C 21,1 C 3,2 km/h (1 Bft) 97,87 %
05.07.2019 21:14 21,2 C 25,6 C 20,0 C 56 % 1013,1 hPa 0,0 l/m 2,4 km/h (1 Bft) NO 53 0 min 0,000 mm 0,0 UV-I 7 W/m 12,1 C 21,2 C 3,2 km/h (1 Bft) 97,87 %
05.07.2019 21:16 21,3 C 26,1 C 20,6 C 55 % 1013,1 hPa 0,0 l/m 2,3 km/h (1 Bft) O 84 0 min 0,000 mm 0,0 UV-I 7 W/m 11,9 C 21,3 C 4,8 km/h (1 Bft) 98,00 %
05.07.2019 21:18 21,3 C 26,1 C 20,6 C 55 % 1013,1 hPa 0,0 l/m 2,4 km/h (1 Bft) O 84 0 min 0,000 mm 0,0 UV-I 5 W/m 11,9 C 21,3 C 3,2 km/h (1 Bft) 97,87 %
05.07.2019 21:20 21,4 C 26,1 C 20,6 C 54 % 1013,2 hPa 0,0 l/m 2,4 km/h (1 Bft) O 84 0 min 0,000 mm 0,0 UV-I 5 W/m 11,7 C 21,4 C 3,2 km/h (1 Bft) 95,83 %
05.07.2019 21:22 21,3 C 26,1 C 20,6 C 54 % 1013,2 hPa 0,0 l/m 2,2 km/h (1 Bft) O 84 0 min 0,000 mm 0,0 UV-I 5 W/m 11,6 C 21,3 C 3,2 km/h (1 Bft) 93,62 %
05.07.2019 21:24 21,3 C 26,1 C 20,6 C 55 % 1013,1 hPa 0,0 l/m 2,5 km/h (1 Bft) O 84 0 min 0,000 mm 0,0 UV-I 1 W/m 11,9 C 21,3 C 3,2 km/h (1 Bft) 95,74 %
05.07.2019 21:26 21,2 C 26,1 C 20,6 C 56 % 1013,1 hPa 0,0 l/m 2,9 km/h (1 Bft) O 91 0 min 0,000 mm 0,0 UV-I 0 W/m 12,1 C 21,2 C 4,8 km/h (1 Bft) 97,87 %
05.07.2019 21:28 21,2 C 25,6 C 20,6 C 56 % 1013,1 hPa 0,0 l/m 3,6 km/h (1 Bft) O 91 0 min 0,000 mm 0,0 UV-I 0 W/m 12,1 C 21,2 C 4,8 km/h (1 Bft) 97,87 %
05.07.2019 21:30 21,1 C 25,6 C 20,0 C 57 % 1013,1 hPa 0,0 l/m 2,9 km/h (1 Bft) O 91 0 min 0,000 mm 0,0 UV-I 0 W/m 12,2 C 21,1 C 4,8 km/h (1 Bft) 97,87 %
05.07.2019 21:32 21,1 C 25,6 C 20,0 C 57 % 1013,2 hPa 0,0 l/m 2,2 km/h (1 Bft) O 91 0 min 0,000 mm 0,0 UV-I 0 W/m 12,2 C 21,1 C 4,8 km/h (1 Bft) 97,37 %
05.07.2019 21:34 21,0 C 25,6 C 19,4 C 58 % 1013,2 hPa 0,0 l/m 2,6 km/h (1 Bft) O 91 0 min 0,000 mm 0,0 UV-I 0 W/m 12,4 C 21,0 C 4,8 km/h (1 Bft) 95,74 %
05.07.2019 21:36 20,9 C 25,6 C 19,4 C 58 % 1013,2 hPa 0,0 l/m 2,8 km/h (1 Bft) O 92 0 min 0,000 mm 0,0 UV-I 0 W/m 12,3 C 20,9 C 4,8 km/h (1 Bft) 97,87 %
05.07.2019 21:38 20,8 C 25,6 C 19,4 C 58 % 1013,2 hPa 0,0 l/m 3,3 km/h (1 Bft) O 92 0 min 0,000 mm 0,0 UV-I 0 W/m 12,2 C 20,8 C 4,8 km/h (1 Bft) 100,00 %
05.07.2019 21:40 20,8 C 25,6 C 19,4 C 58 % 1013,2 hPa 0,0 l/m 3,7 km/h (1 Bft) O 92 0 min 0,000 mm 0,0 UV-I 0 W/m 12,2 C 20,8 C 4,8 km/h (1 Bft) 100,00 %
05.07.2019 21:42 20,8 C 25,6 C 19,4 C 58 % 1013,2 hPa 0,0 l/m 3,0 km/h (1 Bft) O 92 0 min 0,000 mm 0,0 UV-I 0 W/m 12,2 C 20,8 C 4,8 km/h (1 Bft) 100,00 %
05.07.2019 21:44 20,7 C 25,6 C 19,4 C 58 % 1013,2 hPa 0,0 l/m 2,8 km/h (1 Bft) O 93 0 min 0,000 mm 0,0 UV-I 0 W/m 12,1 C 20,7 C 4,8 km/h (1 Bft) 100,00 %
05.07.2019 21:46 20,6 C 25,6 C 19,4 C 59 % 1013,2 hPa 0,0 l/m 3,3 km/h (1 Bft) O-SO 123 0 min 0,000 mm 0,0 UV-I 0 W/m 12,3 C 20,6 C 4,8 km/h (1 Bft) 100,00 %
05.07.2019 21:48 20,4 C 25,6 C 19,4 C 59 % 1013,2 hPa 0,0 l/m 2,4 km/h (1 Bft) O-SO 123 0 min 0,000 mm 0,0 UV-I 0 W/m 12,1 C 20,4 C 3,2 km/h (1 Bft) 100,00 %
05.07.2019 21:50 20,4 C 25,6 C 19,4 C 59 % 1013,2 hPa 0,0 l/m 3,2 km/h (1 Bft) SO 128 0 min 0,000 mm 0,0 UV-I 0 W/m 12,1 C 20,4 C 4,8 km/h (1 Bft) 98,00 %
05.07.2019 21:52 20,4 C 25,6 C 19,4 C 60 % 1013,2 hPa 0,0 l/m 3,0 km/h (1 Bft) SO 138 0 min 0,000 mm 0,0 UV-I 0 W/m 12,4 C 20,4 C 4,8 km/h (1 Bft) 100,00 %
05.07.2019 21:54 20,3 C 25,6 C 18,9 C 61 % 1013,2 hPa 0,0 l/m 1,5 km/h (1 Bft) SO 143 0 min 0,000 mm 0,0 UV-I 0 W/m 12,5 C 20,3 C 3,2 km/h (1 Bft) 97,87 %
05.07.2019 21:56 20,1 C 25,6 C 18,9 C 61 % 1013,1 hPa 0,0 l/m 2,0 km/h (1 Bft) S-SO 159 0 min 0,000 mm 0,0 UV-I 0 W/m 12,3 C 20,1 C 4,8 km/h (1 Bft) 100,00 %
05.07.2019 21:58 20,0 C 25,6 C 18,3 C 61 % 1013,1 hPa 0,0 l/m 1,4 km/h (1 Bft) S-SO 159 0 min 0,000 mm 0,0 UV-I 0 W/m 12,2 C 20,0 C 3,2 km/h (1 Bft) 97,92 %
05.07.2019 22:00 20,1 C 25,6 C 17,8 C 60 % 1013,1 hPa 0,0 l/m 0,2 km/h (0 Bft) S-SO 159 0 min 0,026 mm 0,0 UV-I 0 W/m 12,1 C 20,1 C 1,6 km/h (1 Bft) 100,00 %
05.07.2019 22:02 20,2 C 25,6 C 17,8 C 60 % 1013,1 hPa 0,0 l/m 0,0 km/h (0 Bft) S-SO 159 0 min 0,000 mm 0,0 UV-I 0 W/m 12,2 C 20,2 C 0,0 km/h (0 Bft) 97,87 %
05.07.2019 22:04 20,2 C 25,6 C 17,8 C 61 % 1013,1 hPa 0,0 l/m 0,3 km/h (0 Bft) S-SO 159 0 min 0,000 mm 0,0 UV-I 0 W/m 12,4 C 20,2 C 1,6 km/h (1 Bft) 100,00 %
05.07.2019 22:06 20,2 C 25,6 C 17,8 C 59 % 1013,1 hPa 0,0 l/m 1,1 km/h (1 Bft) S-SO 159 0 min 0,000 mm 0,0 UV-I 0 W/m 11,9 C 20,2 C 1,6 km/h (1 Bft) 100,00 %
05.07.2019 22:08 20,2 C 25,6 C 17,8 C 60 % 1013,1 hPa 0,0 l/m 0,5 km/h (0 Bft) S-SO 159 0 min 0,000 mm 0,0 UV-I 0 W/m 12,2 C 20,2 C 1,6 km/h (1 Bft) 100,00 %
05.07.2019 22:10 20,1 C 25,6 C 17,8 C 61 % 1013,1 hPa 0,0 l/m 1,5 km/h (1 Bft) S-SO 159 0 min 0,000 mm 0,0 UV-I 0 W/m 12,3 C 20,1 C 3,2 km/h (1 Bft) 100,00 %
05.07.2019 22:12 20,1 C 25,6 C 17,2 C 61 % 1013,1 hPa 0,0 l/m 1,7 km/h (1 Bft) S-SO 159 0 min 0,000 mm 0,0 UV-I 0 W/m 12,3 C 20,1 C 3,2 km/h (1 Bft) 97,87 %
05.07.2019 22:14 20,2 C 25,6 C 17,8 C 61 % 1013,1 hPa 0,0 l/m 0,9 km/h (0 Bft) S-SO 159 0 min 0,000 mm 0,0 UV-I 0 W/m 12,4 C 20,2 C 1,6 km/h (1 Bft) 97,87 %
05.07.2019 22:16 20,2 C 25,6 C 17,8 C 61 % 1013,1 hPa 0,0 l/m 0,6 km/h (0 Bft) S-SO 159 0 min 0,000 mm 0,0 UV-I 0 W/m 12,4 C 20,2 C 1,6 km/h (1 Bft) 95,74 %
05.07.2019 22:18 20,2 C 25,6 C 17,8 C 62 % 1013,1 hPa 0,0 l/m 1,3 km/h (1 Bft) S-SO 159 0 min 0,000 mm 0,0 UV-I 0 W/m 12,7 C 20,2 C 3,2 km/h (1 Bft) 95,74 %
05.07.2019 22:20 20,2 C 25,6 C 17,8 C 62 % 1013,1 hPa 0,0 l/m 0,5 km/h (0 Bft) S-SO 159 0 min 0,000 mm 0,0 UV-I 0 W/m 12,7 C 20,2 C 1,6 km/h (1 Bft) 97,87 %
05.07.2019 22:22 20,2 C 25,6 C 17,8 C 61 % 1013,1 hPa 0,0 l/m 0,0 km/h (0 Bft) S-SO 159 0 min 0,000 mm 0,0 UV-I 0 W/m 12,4 C 20,2 C 0,0 km/h (0 Bft) 95,74 %
05.07.2019 22:24 20,2 C 25,6 C 17,8 C 61 % 1013,1 hPa 0,0 l/m 0,0 km/h (0 Bft) S-SO 159 0 min 0,000 mm 0,0 UV-I 0 W/m 12,4 C 20,2 C 0,0 km/h (0 Bft) 94,00 %
05.07.2019 22:26 20,3 C 25,6 C 17,8 C 60 % 1013,1 hPa 0,0 l/m 0,0 km/h (0 Bft) S-SO 159 0 min 0,000 mm 0,0 UV-I 0 W/m 12,3 C 20,3 C 0,0 km/h (0 Bft) 97,22 %
05.07.2019 22:29 20,3 C 25,6 C 17,8 C 60 % 1013,1 hPa 0,0 l/m 0,0 km/h (0 Bft) S-SO 159 0 min 0,000 mm 0,0 UV-I 0 W/m 12,3 C 20,3 C 0,0 km/h (0 Bft) 95,89 %
05.07.2019 22:30 20,3 C 25,6 C 17,8 C 60 % 1013,1 hPa 0,0 l/m 0,0 km/h (0 Bft) S-SO 159 0 min 0,000 mm 0,0 UV-I 0 W/m 12,3 C 20,3 C 0,0 km/h (0 Bft) 95,83 %
05.07.2019 22:32 20,2 C 25,6 C 17,8 C 63 % 1013,1 hPa 0,0 l/m 0,0 km/h (0 Bft) S-SO 159 0 min 0,000 mm 0,0 UV-I 0 W/m 12,9 C 20,2 C 0,0 km/h (0 Bft) 97,87 %
05.07.2019 22:34 20,1 C 25,6 C 17,8 C 64 % 1013,1 hPa 0,0 l/m 0,0 km/h (0 Bft) S-SO 159 0 min 0,000 mm 0,0 UV-I 0 W/m 13,1 C 20,1 C 0,0 km/h (0 Bft) 95,74 %
05.07.2019 22:36 19,9 C 25,6 C 17,8 C 65 % 1013,1 hPa 0,0 l/m 0,0 km/h (0 Bft) S-SO 159 0 min 0,000 mm 0,0 UV-I 0 W/m 13,1 C 19,9 C 0,0 km/h (0 Bft) 97,87 %
05.07.2019 22:39 19,9 C 25,6 C 17,8 C 64 % 1013,1 hPa 0,0 l/m 0,0 km/h (0 Bft) S-SO 159 0 min 0,000 mm 0,0 UV-I 0 W/m 12,9 C 19,9 C 0,0 km/h (0 Bft) 98,57 %
05.07.2019 22:40 19,9 C 25,6 C 17,8 C 64 % 1013,1 hPa 0,0 l/m 0,0 km/h (0 Bft) S-SO 159 0 min 0,000 mm 0,0 UV-I 0 W/m 12,9 C 19,9 C 0,0 km/h (0 Bft) 100,00 %
05.07.2019 22:42 19,9 C 25,6 C 17,8 C 64 % 1013,1 hPa 0,0 l/m 0,0 km/h (0 Bft) S-SO 159 0 min 0,000 mm 0,0 UV-I 0 W/m 12,9 C 19,9 C 0,0 km/h (0 Bft) 100,00 %
05.07.2019 22:44 19,9 C 25,6 C 17,8 C 64 % 1013,0 hPa 0,0 l/m 0,0 km/h (0 Bft) S-SO 159 0 min 0,000 mm 0,0 UV-I 0 W/m 12,9 C 19,9 C 0,0 km/h (0 Bft) 100,00 %
05.07.2019 22:46 19,9 C 25,6 C 17,8 C 64 % 1013,0 hPa 0,0 l/m 0,0 km/h (0 Bft) S-SO 159 0 min 0,000 mm 0,0 UV-I 0 W/m 12,9 C 19,9 C 0,0 km/h (0 Bft) 100,00 %
05.07.2019 22:48 19,8 C 25,6 C 17,8 C 63 % 1013,0 hPa 0,0 l/m 0,0 km/h (0 Bft) S-SO 159 0 min 0,000 mm 0,0 UV-I 0 W/m 12,5 C 19,8 C 0,0 km/h (0 Bft) 100,00 %
05.07.2019 22:50 19,7 C 25,6 C 17,8 C 64 % 1013,0 hPa 0,0 l/m 0,0 km/h (0 Bft) S-SO 159 0 min 0,000 mm 0,0 UV-I 0 W/m 12,7 C 19,7 C 0,0 km/h (0 Bft) 100,00 %
05.07.2019 22:52 19,7 C 25,6 C 17,8 C 63 % 1013,0 hPa 0,0 l/m 0,0 km/h (0 Bft) S-SO 159 0 min 0,000 mm 0,0 UV-I 0 W/m 12,5 C 19,7 C 0,0 km/h (0 Bft) 95,74 %
05.07.2019 22:54 19,7 C 25,6 C 17,8 C 63 % 1013,0 hPa 0,0 l/m 0,0 km/h (0 Bft) S-SO 159 0 min 0,000 mm 0,0 UV-I 0 W/m 12,5 C 19,7 C 0,0 km/h (0 Bft) 97,14 %
05.07.2019 22:56 19,8 C 25,6 C 17,8 C 63 % 1013,0 hPa 0,0 l/m 0,0 km/h (0 Bft) S-SO 159 0 min 0,000 mm 0,0 UV-I 0 W/m 12,5 C 19,8 C 0,0 km/h (0 Bft) 98,08 %
05.07.2019 22:59 19,8 C 25,6 C 17,8 C 62 % 1013,0 hPa 0,0 l/m 0,0 km/h (0 Bft) S-SO 159 0 min 0,000 mm 0,0 UV-I 0 W/m 12,3 C 19,8 C 0,0 km/h (0 Bft) 100,00 %
05.07.2019 23:00 19,8 C 25,6 C 17,8 C 63 % 1013,0 hPa 0,0 l/m 0,0 km/h (0 Bft) S-SO 159 0 min 0,000 mm 0,0 UV-I 0 W/m 12,5 C 19,8 C 0,0 km/h (0 Bft) 91,30 %
05.07.2019 23:02 19,9 C 25,6 C 17,8 C 63 % 1013,0 hPa 0,0 l/m 0,0 km/h (0 Bft) S-SO 159 0 min 0,000 mm 0,0 UV-I 0 W/m 12,6 C 19,9 C 0,0 km/h (0 Bft) 95,74 %
05.07.2019 23:04 19,9 C 25,6 C 17,8 C 63 % 1013,0 hPa 0,0 l/m 0,0 km/h (0 Bft) S-SO 159 0 min 0,000 mm 0,0 UV-I 0 W/m 12,6 C 19,9 C 0,0 km/h (0 Bft) 97,87 %
05.07.2019 23:06 19,9 C 25,6 C 17,8 C 64 % 1013,0 hPa 0,0 l/m 0,0 km/h (0 Bft) S-SO 159 0 min 0,000 mm 0,0 UV-I 0 W/m 12,9 C 19,9 C 0,0 km/h (0 Bft) 95,74 %
05.07.2019 23:09 19,8 C 25,6 C 17,8 C 62 % 1013,0 hPa 0,0 l/m 0,0 km/h (0 Bft) S-SO 159 0 min 0,000 mm 0,0 UV-I 0 W/m 12,3 C 19,8 C 0,0 km/h (0 Bft) 95,77 %
05.07.2019 23:10 19,8 C 25,6 C 18,3 C 62 % 1013,0 hPa 0,0 l/m 0,0 km/h (0 Bft) S-SO 159 0 min 0,000 mm 0,0 UV-I 0 W/m 12,3 C 19,8 C 0,0 km/h (0 Bft) 91,67 %
05.07.2019 23:12 19,7 C 25,6 C 18,3 C 63 % 1012,9 hPa 0,0 l/m 0,0 km/h (0 Bft) S-SO 159 0 min 0,000 mm 0,0 UV-I 0 W/m 12,5 C 19,7 C 0,0 km/h (0 Bft) 93,88 %
05.07.2019 23:14 19,6 C 25,6 C 18,3 C 65 % 1012,9 hPa 0,0 l/m 0,0 km/h (0 Bft) S-SO 159 0 min 0,000 mm 0,0 UV-I 0 W/m 12,8 C 19,6 C 0,0 km/h (0 Bft) 94,87 %
05.07.2019 23:16 19,6 C 25,6 C 18,3 C 64 % 1013,0 hPa 0,0 l/m 0,0 km/h (0 Bft) S-SO 159 0 min 0,000 mm 0,0 UV-I 0 W/m 12,6 C 19,6 C 0,0 km/h (0 Bft) 95,74 %
05.07.2019 23:19 19,7 C 25,6 C 18,3 C 63 % 1012,9 hPa 0,0 l/m 0,0 km/h (0 Bft) S-SO 159 0 min 0,000 mm 0,0 UV-I 0 W/m 12,5 C 19,7 C 0,0 km/h (0 Bft) 95,12 %
05.07.2019 23:20 19,7 C 25,6 C 18,3 C 63 % 1012,9 hPa 0,0 l/m 0,0 km/h (0 Bft) S-SO 159 0 min 0,000 mm 0,0 UV-I 0 W/m 12,5 C 19,7 C 0,0 km/h (0 Bft) 100,00 %
05.07.2019 23:22 19,7 C 25,6 C 18,9 C 65 % 1012,8 hPa 0,0 l/m 0,0 km/h (0 Bft) S-SO 159 0 min 0,000 mm 0,0 UV-I 0 W/m 12,9 C 19,7 C 0,0 km/h (0 Bft) 94,34 %
05.07.2019 23:24 19,6 C 25,6 C 18,9 C 66 % 1012,9 hPa 0,0 l/m 0,0 km/h (0 Bft) S-SO 159 0 min 0,000 mm 0,0 UV-I 0 W/m 13,1 C 19,6 C 0,0 km/h (0 Bft) 97,14 %
05.07.2019 23:26 19,4 C 25,6 C 18,3 C 67 % 1012,8 hPa 0,0 l/m 0,0 km/h (0 Bft) S-SO 159 0 min 0,000 mm 0,0 UV-I 0 W/m 13,1 C 19,4 C 0,0 km/h (0 Bft) 92,86 %
05.07.2019 23:29 19,2 C 25,6 C 18,3 C 69 % 1012,9 hPa 0,0 l/m 0,0 km/h (0 Bft) S-SO 159 0 min 0,000 mm 0,0 UV-I 0 W/m 13,4 C 19,2 C 1,6 km/h (1 Bft) 97,18 %
05.07.2019 23:30 19,2 C 25,6 C 18,3 C 68 % 1012,9 hPa 0,0 l/m 0,0 km/h (0 Bft) S-SO 159 0 min 0,000 mm 0,0 UV-I 0 W/m 13,1 C 19,2 C 0,0 km/h (0 Bft) 86,96 %
05.07.2019 23:32 19,2 C 25,6 C 18,3 C 67 % 1012,9 hPa 0,0 l/m 0,0 km/h (0 Bft) S-SO 159 0 min 0,000 mm 0,0 UV-I 0 W/m 12,9 C 19,2 C 0,0 km/h (0 Bft) 95,74 %
05.07.2019 23:34 19,2 C 25,6 C 18,3 C 68 % 1012,8 hPa 0,0 l/m 0,0 km/h (0 Bft) S-SO 159 0 min 0,000 mm 0,0 UV-I 0 W/m 13,1 C 19,2 C 0,0 km/h (0 Bft) 97,87 %
05.07.2019 23:36 19,2 C 25,6 C 18,3 C 69 % 1012,8 hPa 0,0 l/m 0,0 km/h (0 Bft) S-SO 159 0 min 0,000 mm 0,0 UV-I 0 W/m 13,4 C 19,2 C 0,0 km/h (0 Bft) 94,00 %
05.07.2019 23:38 19,2 C 25,6 C 18,3 C 69 % 1012,8 hPa 0,0 l/m 0,0 km/h (0 Bft) S-SO 159 0 min 0,000 mm 0,0 UV-I 0 W/m 13,4 C 19,2 C 0,0 km/h (0 Bft) 93,62 %
05.07.2019 23:40 19,2 C 25,6 C 18,3 C 68 % 1012,8 hPa 0,0 l/m 0,0 km/h (0 Bft) S-SO 159 0 min 0,000 mm 0,0 UV-I 0 W/m 13,1 C 19,2 C 0,0 km/h (0 Bft) 97,87 %
05.07.2019 23:42 19,3 C 25,6 C 18,3 C 67 % 1012,8 hPa 0,0 l/m 0,0 km/h (0 Bft) S-SO 159 0 min 0,000 mm 0,0 UV-I 0 W/m 13,0 C 19,3 C 0,0 km/h (0 Bft) 91,49 %
05.07.2019 23:44 19,4 C 25,6 C 18,3 C 67 % 1012,8 hPa 0,0 l/m 0,0 km/h (0 Bft) S-SO 159 0 min 0,000 mm 0,0 UV-I 0 W/m 13,1 C 19,4 C 0,0 km/h (0 Bft) 95,74 %
05.07.2019 23:46 19,3 C 25,6 C 18,3 C 68 % 1012,8 hPa 0,0 l/m 0,0 km/h (0 Bft) S-SO 159 0 min 0,000 mm 0,0 UV-I 0 W/m 13,2 C 19,3 C 0,0 km/h (0 Bft) 95,74 %
05.07.2019 23:49 19,1 C 25,6 C 18,3 C 68 % 1012,8 hPa 0,0 l/m 0,0 km/h (0 Bft) S-SO 159 0 min 0,000 mm 0,0 UV-I 0 W/m 13,1 C 19,1 C 0,0 km/h (0 Bft) 97,18 %
05.07.2019 23:50 19,2 C 25,6 C 18,3 C 68 % 1012,8 hPa 0,0 l/m 0,0 km/h (0 Bft) S-SO 159 0 min 0,000 mm 0,0 UV-I 0 W/m 13,1 C 19,2 C 0,0 km/h (0 Bft) 91,30 %
05.07.2019 23:52 19,2 C 25,6 C 18,3 C 66 % 1012,8 hPa 0,0 l/m 0,0 km/h (0 Bft) S-SO 159 0 min 0,000 mm 0,0 UV-I 0 W/m 12,7 C 19,2 C 0,0 km/h (0 Bft) 95,83 %
05.07.2019 23:54 19,4 C 25,6 C 18,3 C 66 % 1012,7 hPa 0,0 l/m 0,0 km/h (0 Bft) S-SO 159 0 min 0,000 mm 0,0 UV-I 0 W/m 12,9 C 19,4 C 0,0 km/h (0 Bft) 94,74 %
05.07.2019 23:56 19,5 C 25,6 C 17,8 C 66 % 1012,7 hPa 0,0 l/m 0,0 km/h (0 Bft) S-SO 159 0 min 0,000 mm 0,0 UV-I 0 W/m 13,0 C 19,5 C 0,0 km/h (0 Bft) 96,00 %
05.07.2019 23:59 19,6 C 25,6 C 17,8 C 65 % 1012,8 hPa 0,0 l/m 0,0 km/h (0 Bft) S-SO 159 0 min 0,000 mm 0,0 UV-I 0 W/m 12,8 C 19,6 C 0,0 km/h (0 Bft) 94,29 %
_ Min-Zeit 04:08 08:02 04:10 11:24 23:54 - 22:02 - - - - - - 11:24 04:26 22:02 23:30
Minimum _ 13,7 C 24,4 C 12,2 C 36 % 1012,7 hPa - 0,0 km/h (0 Bft) - - - - - - 9,1 C 12,4 C 0,0 km/h (0 Bft) 86,96 %
_ Max-Zeit 14:46 00:00 11:48 04:06 00:00 00:00 12:56 - - 07:29 14:02 12:32 13:02 14:14 14:46 14:42 00:10
Maximum _ 28,2 C 26,1 C 42,8 C 82 % 1016,2 hPa 0,0 l/m 14,8 km/h
NO (3 Bft)
- - 3 min 0,660 mm 6,8 UV-I 1214 W/m 13,8 C 28,2 C 27,4 km/h
W-SW (4 Bft)
100,00 %
Durchschnitt _ 21,0 C 25,6 C 24,0 C 58 % 1014,6 hPa #0,0 l/m 5,1 km/h (1 Bft) S-SW - #8:58 h #4,877 mm 2,9 UV-I 385 W/m 11,7 C 20,8 C 9,1 km/h (2 Bft) 97,24 %